[[{"header":{"parameterUnit":"m.s-1","parameterCategory":1,"la1":31.0,"la2":29.5877,"lo1":-88.7671,"lo2":-86.6584,"dy":0.0162,"dx":0.0185,"nx":115,"ny":88,"refTime":"2024-04-22T18:00:00:Z","depth":0,"parameterNumber":2,"parameterNumberName":"U-component_of_WINDS"},"data":[0.0,0.0,0.0,0.0,0.0,0.0,0.0,0.0,0.0,0.0,0.0,0.0,0.0,0.0,0.0,0.0,0.0,0.0,0.0,0.0,0.0,0.0,0.0,0.0,0.0,0.0,0.0,0.0,0.0,0.0,0.0,0.0,0.0,0.0,0.0,0.0,0.0,0.0,0.0,0.0,0.0,0.0,0.0,0.0,0.0,0.0,0.0,0.0,0.0,0.0,0.0,0.0,0.0,0.0,0.0,0.0,0.0,0.0,0.0,0.0,0.0,0.0,0.0,0.0,0.0,0.0,0.0,0.0,0.0,0.0,0.0,0.0,0.0,0.0,0.0,0.0,0.0,0.0,0.0,0.0,0.0,0.0,0.0,0.0,0.0,0.0,0.0,0.0,0.0,0.0,0.0,0.0,0.0,0.0,0.0,0.0,0.0,0.0,0.0,0.0,0.0,0.0,0.0,0.0,0.0,0.0,0.0,0.0,0.0,0.0,0.0,0.0,0.0,0.0,0.0,0.0,0.0,0.0,0.0,0.0,0.0,0.0,0.0,0.0,0.0,0.0,0.0,0.0,0.0,0.0,0.0,0.0,0.0,0.0,0.0,0.0,0.0,0.0,0.0,0.0,0.0,0.0,0.0,0.0,0.0,0.0,0.0,0.0,0.0,0.0,0.0,0.0,0.0,0.0,0.0,0.0,0.0,0.0,0.0,0.0,0.0,0.0,0.0,0.0,0.0,0.0,0.0,0.0,0.0,0.0,0.0,0.0,0.0,0.0,0.0,0.0,0.0,0.0,0.0,0.0,0.0,0.0,0.0,0.0,0.0,0.0,0.0,0.0,0.0,0.0,0.0,0.0,0.0,0.0,0.0,0.0,0.0,0.0,0.0,0.0,0.0,0.0,0.0,0.0,0.0,0.0,0.0,0.0,0.0,0.0,0.0,0.0,0.0,0.0,0.0,0.0,0.0,0.0,0.0,0.0,0.0,0.0,0.0,0.0,0.0,0.0,0.0,0.0,0.0,0.0,0.0,0.0,0.0,0.0,0.0,0.0,0.0,0.0,0.0,0.0,0.0,0.0,0.0,0.0,0.0,0.0,0.0,0.0,0.0,0.0,0.0,0.0,0.0,0.0,0.0,0.0,0.0,0.0,0.0,0.0,0.0,0.0,0.0,0.0,0.0,0.0,0.0,0.0,0.0,0.0,0.0,0.0,0.0,0.0,0.0,0.0,0.0,0.0,0.0,0.0,0.0,0.0,0.0,0.0,0.0,0.0,0.0,0.0,0.0,0.0,0.0,0.0,0.0,0.0,0.0,0.0,0.0,0.0,0.0,0.0,0.0,0.0,0.0,0.0,0.0,0.0,0.0,0.0,0.0,0.0,0.0,0.0,0.0,0.0,0.0,0.0,0.0,0.0,0.0,0.0,0.0,0.0,0.0,0.0,0.0,0.0,0.0,0.0,0.0,0.0,0.0,0.0,0.0,0.0,0.0,0.0,0.0,0.0,0.0,0.0,0.0,0.0,0.0,0.0,0.0,0.0,0.0,0.0,0.0,0.0,0.0,0.0,0.0,0.0,0.0,0.0,0.0,0.0,0.0,0.0,0.0,0.0,0.0,0.0,0.0,0.0,0.0,0.0,0.0,0.0,0.0,0.0,0.0,0.0,0.0,0.0,0.0,0.0,0.0,0.0,0.0,0.0,0.0,0.0,0.0,0.0,0.0,0.0,0.0,0.0,0.0,0.0,0.0,0.0,0.0,0.0,0.0,0.0,0.0,0.0,0.0,0.0,0.0,0.0,0.0,0.0,0.0,0.0,0.0,0.0,0.0,0.0,0.0,0.0,0.0,0.0,0.0,0.0,0.0,0.0,0.0,0.0,0.0,0.0,0.0,0.0,0.0,0.0,0.0,0.0,0.0,0.0,0.0,0.0,0.0,0.0,0.0,0.0,0.0,0.0,0.0,0.0,0.0,0.0,0.0,0.0,0.0,0.0,0.0,0.0,0.0,0.0,0.0,0.0,0.0,0.0,0.0,0.0,0.0,0.0,0.0,0.0,0.0,0.0,0.0,0.0,0.0,0.0,0.0,0.0,0.0,0.0,0.0,0.0,0.0,0.0,0.0,0.0,0.0,0.0,0.0,0.0,0.0,0.0,0.0,0.0,0.0,0.0,0.0,0.0,0.0,0.0,0.0,0.0,0.0,0.0,0.0,0.0,0.0,0.0,0.0,0.0,0.0,0.0,0.0,0.0,0.0,0.0,0.0,0.0,0.0,0.0,0.0,0.0,0.0,0.0,0.0,0.0,0.0,0.0,0.0,0.0,0.0,0.0,0.0,0.0,0.0,0.0,0.0,0.0,0.0,0.0,0.0,0.0,0.0,0.0,0.0,0.0,0.0,0.0,0.0,0.0,0.0,0.0,0.0,0.0,0.0,0.0,0.0,0.0,0.0,0.0,0.0,0.0,0.0,0.0,0.0,0.0,0.0,0.0,0.0,0.0,0.0,0.0,0.0,0.0,0.0,0.0,0.0,0.0,0.0,0.0,0.0,0.0,0.0,0.0,0.0,0.0,0.0,0.0,0.0,0.0,0.0,0.0,0.0,0.0,0.0,0.0,0.0,0.0,0.0,0.0,0.0,0.0,0.0,0.0,0.0,0.0,0.0,0.0,0.0,0.0,0.0,0.0,0.0,0.0,0.0,0.0,0.0,0.0,0.0,0.0,0.0,0.0,0.0,0.0,0.0,0.0,0.0,0.0,0.0,0.0,0.0,0.0,0.0,0.0,0.0,0.0,0.0,0.0,0.0,0.0,0.0,0.0,0.0,0.0,0.0,0.0,0.0,0.0,0.0,0.0,0.0,0.0,0.0,0.0,0.0,0.0,0.0,0.0,0.0,0.0,0.0,0.0,0.0,0.0,0.0,0.0,0.0,0.0,0.0,0.0,0.0,0.0,0.0,0.0,0.0,0.0,0.0,0.0,0.0,0.0,0.0,0.0,0.0,0.0,0.0,0.0,0.0,0.0,0.0,0.0,0.0,0.0,0.0,0.0,0.0,0.0,0.0,0.0,0.0,0.0,0.0,0.0,0.0,0.0,0.0,0.0,0.0,0.0,0.0,0.0,0.0,0.0,0.0,0.0,0.0,0.0,0.0,0.0,0.0,0.0,0.0,0.0,0.0,0.0,0.0,0.0,0.0,0.0,0.0,0.0,0.0,0.0,0.0,0.0,0.0,0.0,0.0,0.0,0.0,0.0,0.0,0.0,0.0,0.0,0.0,0.0,0.0,0.0,0.0,0.0,0.0,0.0,0.0,0.0,0.0,0.0,0.0,0.0,0.0,0.0,0.0,0.0,0.0,0.0,0.0,0.0,0.0,0.0,0.0,0.0,0.0,0.0,0.0,0.0,0.0,0.0,0.0,0.0,0.0,0.0,0.0,0.0,0.0,0.0,0.0,0.0,0.0,0.0,0.0,0.0,0.0,0.0,0.0,0.0,0.0,0.0,0.0,0.0,0.0,0.0,0.0,0.0,0.0,0.0,0.0,0.0,0.0,0.0,0.0,0.0,0.0,0.0,0.0,0.0,0.0,0.0,0.0,0.0,0.0,0.0,0.0,0.0,0.0,0.0,0.0,0.0,0.0,0.0,0.0,0.0,0.0,0.0,0.0,0.0,0.0,0.0,0.0,0.0,0.0,0.0,0.0,0.0,0.0,0.0,0.0,0.0,0.0,0.0,0.0,0.0,0.0,0.0,0.0,0.0,0.0,0.0,0.0,0.0,0.0,0.0,0.0,0.0,0.0,0.0,0.0,0.0,0.0,0.0,0.0,0.0,0.0,0.0,0.0,0.0,0.0,0.0,0.0,0.0,0.0,0.0,0.0,0.0,0.0,0.0,0.0,0.0,0.0,0.0,0.0,0.0,0.0,0.0,0.0,0.0,0.0,0.0,0.0,0.0,0.0,0.0,0.0,0.0,0.0,0.0,0.0,0.0,0.0,0.0,0.0,0.0,0.0,0.0,0.0,0.0,0.0,0.0,0.0,0.0,0.0,0.0,0.0,0.0,0.0,0.0,0.0,0.0,0.0,0.0,0.0,0.0,0.0,0.0,0.0,0.0,0.0,0.0,0.0,0.0,0.0,0.0,0.0,0.0,0.0,0.0,0.0,0.0,0.0,0.0,0.0,0.0,0.0,0.0,0.0,0.0,0.0,0.0,0.0,0.0,0.0,0.0,0.0,0.0,0.0,0.0,0.0,0.0,0.0,0.0,0.0,0.0,0.0,0.0,0.0,0.0,-4.7942,0.0,0.0,0.0,0.0,0.0,0.0,0.0,0.0,0.0,0.0,0.0,0.0,0.0,0.0,0.0,0.0,0.0,0.0,0.0,0.0,0.0,0.0,0.0,0.0,0.0,0.0,0.0,0.0,0.0,0.0,0.0,0.0,0.0,0.0,0.0,0.0,0.0,0.0,0.0,0.0,0.0,0.0,0.0,0.0,0.0,0.0,0.0,0.0,0.0,0.0,0.0,0.0,0.0,0.0,0.0,0.0,0.0,0.0,0.0,0.0,0.0,0.0,0.0,0.0,0.0,0.0,0.0,0.0,0.0,0.0,0.0,0.0,0.0,0.0,0.0,0.0,0.0,0.0,0.0,0.0,0.0,0.0,0.0,0.0,0.0,0.0,0.0,0.0,0.0,0.0,0.0,0.0,0.0,0.0,0.0,0.0,0.0,0.0,0.0,0.0,0.0,0.0,0.0,0.0,0.0,0.0,0.0,0.0,0.0,0.0,-4.9396,-5.1021,-5.0182,-4.9192,-4.8115,0.0,0.0,0.0,0.0,0.0,0.0,0.0,0.0,0.0,0.0,0.0,0.0,0.0,0.0,0.0,0.0,0.0,0.0,0.0,0.0,0.0,0.0,0.0,0.0,0.0,0.0,0.0,0.0,0.0,0.0,0.0,0.0,0.0,0.0,0.0,0.0,0.0,0.0,0.0,0.0,0.0,0.0,0.0,0.0,0.0,0.0,0.0,0.0,0.0,0.0,0.0,0.0,0.0,0.0,0.0,0.0,0.0,0.0,0.0,0.0,0.0,0.0,0.0,0.0,0.0,0.0,0.0,0.0,0.0,0.0,0.0,0.0,0.0,0.0,0.0,0.0,0.0,0.0,0.0,0.0,0.0,0.0,0.0,0.0,0.0,0.0,0.0,0.0,0.0,0.0,0.0,0.0,0.0,0.0,0.0,0.0,0.0,0.0,0.0,0.0,0.0,0.0,0.0,0.0,0.0,0.0,0.0,0.0,0.0,0.0,0.0,0.0,-5.0687,-4.9494,-4.8412,0.0,0.0,0.0,0.0,0.0,0.0,0.0,0.0,0.0,0.0,0.0,0.0,0.0,0.0,0.0,0.0,0.0,0.0,0.0,0.0,0.0,0.0,0.0,0.0,0.0,0.0,0.0,0.0,0.0,0.0,0.0,0.0,0.0,0.0,0.0,0.0,0.0,0.0,0.0,0.0,0.0,0.0,0.0,0.0,0.0,0.0,0.0,0.0,0.0,0.0,0.0,0.0,0.0,0.0,0.0,0.0,0.0,0.0,0.0,0.0,0.0,0.0,0.0,0.0,0.0,0.0,0.0,0.0,0.0,0.0,0.0,0.0,0.0,0.0,0.0,0.0,0.0,0.0,0.0,0.0,0.0,0.0,0.0,0.0,0.0,0.0,0.0,0.0,0.0,0.0,0.0,0.0,0.0,0.0,0.0,0.0,0.0,0.0,0.0,0.0,0.0,0.0,0.0,0.0,0.0,0.0,0.0,0.0,0.0,0.0,-4.9678,-5.4354,-5.2149,0.0,-4.9288,0.0,0.0,0.0,0.0,0.0,0.0,0.0,0.0,0.0,0.0,0.0,0.0,0.0,0.0,0.0,0.0,0.0,0.0,0.0,0.0,0.0,0.0,0.0,0.0,0.0,0.0,0.0,0.0,0.0,0.0,0.0,0.0,0.0,0.0,0.0,0.0,0.0,0.0,0.0,0.0,0.0,0.0,0.0,0.0,0.0,0.0,0.0,0.0,0.0,0.0,0.0,0.0,0.0,0.0,0.0,0.0,0.0,0.0,0.0,0.0,0.0,0.0,0.0,0.0,0.0,0.0,0.0,0.0,0.0,0.0,0.0,0.0,0.0,0.0,0.0,0.0,0.0,0.0,0.0,0.0,0.0,0.0,0.0,0.0,0.0,0.0,0.0,0.0,0.0,0.0,0.0,0.0,0.0,0.0,0.0,0.0,0.0,0.0,0.0,0.0,0.0,0.0,0.0,0.0,0.0,0.0,0.0,0.0,0.0,0.0,-5.0074,-5.4042,-5.1981,-5.013,0.0,0.0,0.0,0.0,0.0,0.0,0.0,0.0,0.0,0.0,0.0,0.0,0.0,0.0,0.0,0.0,0.0,0.0,0.0,0.0,0.0,0.0,0.0,0.0,0.0,0.0,0.0,0.0,0.0,0.0,0.0,0.0,0.0,0.0,0.0,0.0,0.0,0.0,0.0,0.0,0.0,0.0,0.0,0.0,0.0,0.0,0.0,0.0,0.0,0.0,0.0,0.0,0.0,0.0,0.0,0.0,0.0,0.0,0.0,0.0,0.0,0.0,0.0,0.0,0.0,0.0,0.0,0.0,0.0,0.0,0.0,0.0,0.0,0.0,0.0,0.0,0.0,0.0,0.0,0.0,0.0,0.0,0.0,0.0,0.0,0.0,0.0,0.0,0.0,0.0,0.0,0.0,0.0,0.0,0.0,0.0,0.0,0.0,0.0,0.0,0.0,0.0,0.0,0.0,0.0,0.0,0.0,0.0,0.0,0.0,-4.9556,-5.0388,-5.2966,-5.1581,-4.9875,-4.8163,0.0,0.0,0.0,0.0,0.0,0.0,0.0,0.0,0.0,0.0,0.0,0.0,0.0,0.0,0.0,0.0,0.0,0.0,0.0,0.0,0.0,0.0,0.0,0.0,0.0,0.0,0.0,0.0,0.0,0.0,0.0,0.0,0.0,0.0,0.0,0.0,0.0,0.0,0.0,0.0,0.0,0.0,0.0,0.0,0.0,0.0,0.0,0.0,0.0,0.0,0.0,0.0,0.0,0.0,0.0,0.0,0.0,0.0,0.0,0.0,0.0,0.0,0.0,0.0,0.0,0.0,0.0,0.0,0.0,0.0,0.0,0.0,0.0,0.0,0.0,0.0,0.0,0.0,0.0,0.0,0.0,0.0,0.0,0.0,0.0,0.0,0.0,0.0,0.0,0.0,0.0,0.0,0.0,0.0,0.0,0.0,0.0,0.0,0.0,0.0,0.0,0.0,0.0,0.0,0.0,0.0,0.0,0.0,-5.445,-5.1632,-5.0719,-5.233,-5.1294,-4.9885,0.0,0.0,0.0,0.0,0.0,0.0,0.0,0.0,0.0,0.0,0.0,0.0,0.0,0.0,0.0,0.0,0.0,0.0,0.0,0.0,0.0,0.0,0.0,0.0,0.0,0.0,0.0,0.0,0.0,0.0,0.0,0.0,0.0,0.0,0.0,0.0,0.0,0.0,0.0,0.0,0.0,0.0,0.0,0.0,0.0,0.0,0.0,0.0,0.0,0.0,0.0,0.0,0.0,0.0,0.0,0.0,0.0,0.0,0.0,0.0,0.0,0.0,0.0,0.0,0.0,0.0,0.0,0.0,0.0,0.0,0.0,0.0,0.0,0.0,0.0,0.0,0.0,0.0,0.0,0.0,0.0,0.0,0.0,0.0,0.0,0.0,0.0,0.0,0.0,0.0,0.0,0.0,0.0,0.0,0.0,0.0,0.0,0.0,0.0,0.0,0.0,0.0,0.0,0.0,0.0,0.0,0.0,0.0,0.0,-5.0974,-5.1866,-5.2574,-5.3052,-5.1551,-5.0154,0.0,0.0,0.0,0.0,0.0,0.0,0.0,0.0,0.0,0.0,0.0,0.0,0.0,0.0,0.0,0.0,0.0,0.0,0.0,0.0,0.0,0.0,0.0,0.0,0.0,0.0,0.0,0.0,0.0,0.0,0.0,0.0,0.0,0.0,0.0,0.0,0.0,0.0,0.0,0.0,0.0,0.0,0.0,0.0,0.0,0.0,0.0,0.0,0.0,0.0,0.0,0.0,0.0,0.0,0.0,0.0,0.0,0.0,0.0,0.0,0.0,0.0,0.0,0.0,0.0,0.0,0.0,0.0,0.0,0.0,0.0,0.0,0.0,0.0,0.0,0.0,0.0,0.0,0.0,0.0,0.0,0.0,0.0,0.0,0.0,0.0,0.0,0.0,0.0,0.0,0.0,0.0,0.0,0.0,0.0,0.0,0.0,0.0,0.0,0.0,0.0,0.0,0.0,0.0,0.0,0.0,0.0,0.0,0.0,-5.002,0.0,-5.3916,-5.3531,-5.1463,-4.9633,0.0,0.0,0.0,0.0,0.0,0.0,0.0,0.0,0.0,0.0,0.0,0.0,0.0,0.0,0.0,0.0,0.0,0.0,0.0,0.0,0.0,0.0,0.0,0.0,0.0,0.0,0.0,0.0,0.0,0.0,0.0,0.0,0.0,0.0,0.0,0.0,0.0,0.0,0.0,0.0,0.0,0.0,0.0,0.0,0.0,0.0,0.0,0.0,0.0,0.0,0.0,0.0,0.0,0.0,0.0,0.0,0.0,0.0,0.0,0.0,0.0,0.0,0.0,0.0,0.0,0.0,0.0,0.0,0.0,0.0,0.0,0.0,0.0,0.0,0.0,0.0,0.0,0.0,0.0,0.0,0.0,0.0,0.0,0.0,0.0,0.0,0.0,0.0,0.0,0.0,0.0,0.0,0.0,0.0,0.0,0.0,0.0,0.0,0.0,0.0,0.0,0.0,0.0,0.0,0.0,0.0,0.0,0.0,-4.886,-5.2345,-5.4035,-5.4433,-5.3599,-5.0942,-4.8362,0.0,0.0,0.0,0.0,0.0,0.0,0.0,0.0,0.0,0.0,0.0,0.0,0.0,0.0,0.0,0.0,0.0,0.0,0.0,0.0,0.0,0.0,0.0,0.0,0.0,0.0,0.0,0.0,0.0,0.0,0.0,0.0,0.0,0.0,0.0,0.0,0.0,0.0,0.0,0.0,0.0,0.0,0.0,0.0,0.0,0.0,0.0,0.0,0.0,0.0,0.0,0.0,0.0,0.0,0.0,0.0,0.0,0.0,0.0,0.0,0.0,0.0,0.0,0.0,0.0,0.0,0.0,0.0,0.0,0.0,0.0,0.0,0.0,0.0,0.0,0.0,0.0,0.0,0.0,0.0,0.0,0.0,0.0,0.0,0.0,0.0,0.0,0.0,0.0,0.0,0.0,0.0,0.0,0.0,0.0,0.0,0.0,0.0,0.0,0.0,0.0,0.0,0.0,0.0,0.0,0.0,0.0,0.0,0.0,-4.9991,-5.2138,-5.3661,-5.4318,-5.0715,-4.8844,0.0,0.0,0.0,0.0,0.0,0.0,0.0,0.0,0.0,0.0,0.0,0.0,0.0,0.0,0.0,0.0,0.0,0.0,0.0,0.0,0.0,0.0,0.0,0.0,0.0,0.0,0.0,0.0,0.0,0.0,0.0,0.0,0.0,0.0,0.0,0.0,0.0,0.0,0.0,0.0,0.0,0.0,0.0,0.0,0.0,0.0,0.0,0.0,0.0,0.0,0.0,0.0,0.0,0.0,0.0,0.0,0.0,0.0,0.0,0.0,0.0,0.0,0.0,0.0,0.0,0.0,0.0,0.0,0.0,0.0,0.0,0.0,0.0,0.0,0.0,0.0,0.0,0.0,0.0,0.0,0.0,0.0,0.0,0.0,0.0,0.0,0.0,0.0,0.0,0.0,0.0,0.0,0.0,0.0,0.0,0.0,0.0,0.0,0.0,0.0,0.0,0.0,0.0,0.0,0.0,0.0,0.0,0.0,0.0,-5.0791,-5.2798,-5.4225,-5.4908,-5.1564,-4.9636,-4.9362,0.0,0.0,0.0,0.0,0.0,0.0,0.0,0.0,0.0,0.0,0.0,0.0,0.0,0.0,0.0,0.0,0.0,0.0,0.0,0.0,0.0,0.0,0.0,0.0,0.0,0.0,0.0,0.0,0.0,0.0,0.0,0.0,0.0,0.0,0.0,0.0,0.0,0.0,0.0,0.0,0.0,0.0,0.0,0.0,0.0,0.0,0.0,0.0,0.0,0.0,0.0,0.0,0.0,0.0,0.0,0.0,0.0,0.0,0.0,0.0,0.0,0.0,0.0,0.0,0.0,0.0,0.0,0.0,0.0,0.0,0.0,0.0,0.0,0.0,0.0,0.0,0.0,0.0,0.0,0.0,0.0,0.0,0.0,0.0,0.0,0.0,0.0,0.0,0.0,0.0,0.0,0.0,0.0,0.0,0.0,0.0,0.0,0.0,0.0,0.0,0.0,0.0,0.0,0.0,0.0,0.0,0.0,0.0,-5.3957,-5.5634,-5.6137,-5.5357,-5.3288,-5.0704,0.0,0.0,0.0,0.0,0.0,0.0,0.0,0.0,0.0,0.0,0.0,0.0,0.0,0.0,0.0,0.0,0.0,0.0,0.0,0.0,0.0,0.0,0.0,0.0,0.0,0.0,0.0,0.0,0.0,0.0,0.0,0.0,0.0,0.0,0.0,0.0,0.0,0.0,0.0,0.0,0.0,0.0,0.0,0.0,0.0,0.0,0.0,0.0,0.0,0.0,0.0,0.0,0.0,0.0,0.0,0.0,0.0,0.0,0.0,0.0,0.0,0.0,0.0,0.0,0.0,0.0,0.0,0.0,0.0,0.0,0.0,0.0,0.0,0.0,0.0,0.0,0.0,0.0,0.0,0.0,0.0,0.0,0.0,0.0,0.0,0.0,0.0,0.0,0.0,0.0,0.0,0.0,0.0,0.0,0.0,0.0,0.0,0.0,0.0,0.0,0.0,0.0,0.0,0.0,0.0,0.0,0.0,0.0,0.0,-5.485,-5.7598,-5.8914,-5.8612,-5.4577,-5.1871,0.0,0.0,0.0,0.0,0.0,0.0,0.0,0.0,0.0,0.0,0.0,0.0,0.0,0.0,0.0,0.0,0.0,0.0,0.0,0.0,0.0,0.0,0.0,0.0,0.0,0.0,0.0,0.0,0.0,0.0,0.0,0.0,0.0,0.0,0.0,0.0,0.0,0.0,0.0,0.0,0.0,0.0,0.0,0.0,0.0,0.0,0.0,0.0,0.0,0.0,0.0,0.0,0.0,0.0,0.0,0.0,0.0,0.0,0.0,0.0,0.0,0.0,0.0,0.0,0.0,0.0,0.0,0.0,0.0,0.0,0.0,0.0,0.0,0.0,0.0,0.0,0.0,0.0,0.0,0.0,0.0,0.0,0.0,0.0,0.0,0.0,0.0,0.0,0.0,0.0,0.0,0.0,0.0,0.0,0.0,0.0,0.0,0.0,0.0,0.0,0.0,0.0,0.0,0.0,0.0,0.0,0.0,0.0,-5.3701,-5.6173,-5.9468,-6.1188,-6.1183,-5.6923,-5.3682,0.0,0.0,0.0,0.0,0.0,0.0,0.0,0.0,0.0,0.0,0.0,0.0,0.0,0.0,0.0,0.0,0.0,0.0,0.0,0.0,0.0,0.0,0.0,0.0,0.0,0.0,0.0,0.0,0.0,0.0,0.0,0.0,0.0,0.0,0.0,0.0,0.0,0.0,0.0,0.0,0.0,0.0,0.0,0.0,0.0,0.0,0.0,0.0,0.0,0.0,0.0,0.0,0.0,0.0,0.0,0.0,0.0,0.0,0.0,0.0,0.0,0.0,0.0,0.0,0.0,0.0,0.0,0.0,0.0,0.0,0.0,0.0,0.0,0.0,0.0,0.0,0.0,0.0,0.0,0.0,0.0,0.0,0.0,0.0,0.0,0.0,0.0,0.0,0.0,0.0,0.0,0.0,0.0,0.0,0.0,0.0,0.0,0.0,0.0,0.0,0.0,0.0,0.0,0.0,0.0,0.0,0.0,0.0,-5.5534,-5.758,-6.0893,-6.2682,-6.2713,-5.9342,-5.5634,0.0,0.0,0.0,0.0,0.0,0.0,0.0,0.0,0.0,0.0,0.0,0.0,0.0,0.0,0.0,0.0,0.0,0.0,0.0,0.0,0.0,0.0,0.0,0.0,0.0,0.0,0.0,0.0,0.0,0.0,0.0,0.0,0.0,0.0,0.0,0.0,0.0,0.0,0.0,0.0,0.0,0.0,0.0,0.0,0.0,0.0,0.0,0.0,0.0,0.0,0.0,0.0,0.0,0.0,0.0,0.0,0.0,0.0,0.0,0.0,0.0,0.0,0.0,0.0,0.0,0.0,0.0,0.0,0.0,0.0,0.0,0.0,0.0,0.0,0.0,0.0,0.0,0.0,0.0,0.0,0.0,0.0,0.0,0.0,0.0,0.0,0.0,0.0,0.0,0.0,0.0,0.0,0.0,0.0,0.0,0.0,0.0,0.0,0.0,0.0,0.0,0.0,0.0,0.0,0.0,0.0,0.0,0.0,-5.4847,-5.7572,-6.0229,-6.2051,-6.2908,-5.891,-5.5614,0.0,0.0,0.0,0.0,0.0,0.0,0.0,0.0,0.0,0.0,0.0,0.0,0.0,0.0,0.0,0.0,0.0,0.0,0.0,0.0,0.0,0.0,0.0,0.0,0.0,0.0,0.0,0.0,0.0,0.0,0.0,0.0,0.0,0.0,0.0,0.0,0.0,0.0,0.0,0.0,0.0,0.0,0.0,0.0,0.0,0.0,0.0,0.0,-5.2758,0.0,0.0,0.0,0.0,0.0,0.0,0.0,0.0,0.0,0.0,0.0,0.0,0.0,0.0,0.0,0.0,0.0,0.0,0.0,0.0,0.0,0.0,0.0,0.0,0.0,0.0,0.0,0.0,0.0,0.0,0.0,0.0,0.0,0.0,0.0,0.0,0.0,0.0,0.0,0.0,0.0,0.0,0.0,0.0,0.0,0.0,0.0,0.0,0.0,0.0,0.0,0.0,0.0,0.0,0.0,0.0,0.0,0.0,0.0,-5.4385,-5.6794,-5.8982,-6.0398,-6.0924,-5.8125,-5.5692,0.0,0.0,0.0,0.0,0.0,0.0,0.0,0.0,0.0,0.0,0.0,0.0,0.0,0.0,0.0,0.0,0.0,0.0,0.0,0.0,0.0,0.0,0.0,0.0,0.0,0.0,0.0,0.0,0.0,0.0,0.0,0.0,0.0,0.0,0.0,0.0,0.0,0.0,0.0,0.0,0.0,0.0,0.0,0.0,0.0,0.0,0.0,0.0,0.0,0.0,0.0,0.0,0.0,0.0,0.0,0.0,0.0,0.0,0.0,0.0,0.0,0.0,0.0,0.0,0.0,0.0,0.0,0.0,0.0,0.0,0.0,0.0,0.0,0.0,0.0,0.0,0.0,0.0,0.0,0.0,0.0,0.0,0.0,0.0,0.0,0.0,0.0,0.0,0.0,0.0,0.0,0.0,0.0,0.0,0.0,0.0,0.0,0.0,0.0,0.0,0.0,0.0,0.0,0.0,0.0,0.0,0.0,-5.1329,-5.3985,-5.5955,-5.7612,-5.8549,-5.866,-5.7175,-5.5545,-5.3785,0.0,0.0,0.0,0.0,0.0,0.0,0.0,0.0,0.0,0.0,0.0,0.0,0.0,0.0,0.0,0.0,0.0,0.0,0.0,0.0,0.0,0.0,0.0,0.0,0.0,0.0,0.0,0.0,0.0,0.0,0.0,0.0,0.0,0.0,0.0,0.0,0.0,0.0,-4.4064,-4.7291,0.0,0.0,0.0,0.0,0.0,0.0,0.0,0.0,-5.3215,0.0,0.0,0.0,0.0,0.0,0.0,0.0,0.0,0.0,0.0,0.0,0.0,0.0,0.0,0.0,0.0,0.0,0.0,0.0,0.0,0.0,0.0,0.0,0.0,0.0,0.0,0.0,0.0,0.0,0.0,0.0,0.0,0.0,0.0,0.0,0.0,0.0,0.0,0.0,0.0,0.0,0.0,0.0,0.0,0.0,0.0,0.0,0.0,0.0,0.0,0.0,0.0,0.0,0.0,0.0,0.0,-4.9649,-5.1308,-5.3368,-5.5936,-5.6947,-5.7541,-5.7668,-5.6185,-5.4477,-5.2614,0.0,0.0,0.0,0.0,0.0,0.0,0.0,0.0,0.0,0.0,0.0,0.0,0.0,0.0,0.0,0.0,0.0,0.0,0.0,0.0,0.0,0.0,0.0,0.0,0.0,0.0,0.0,0.0,0.0,0.0,0.0,0.0,0.0,0.0,0.0,0.0,0.0,0.0,0.0,-5.1264,-5.2695,0.0,0.0,0.0,0.0,0.0,0.0,0.0,0.0,-5.3641,0.0,0.0,0.0,0.0,0.0,0.0,0.0,0.0,0.0,0.0,0.0,0.0,0.0,0.0,0.0,0.0,0.0,0.0,0.0,0.0,0.0,0.0,0.0,0.0,0.0,0.0,0.0,0.0,0.0,0.0,0.0,0.0,0.0,0.0,0.0,0.0,0.0,0.0,0.0,0.0,0.0,0.0,0.0,0.0,0.0,0.0,0.0,0.0,0.0,0.0,0.0,0.0,0.0,0.0,0.0,-4.8163,-5.0225,-5.2117,-5.3837,-5.476,-5.5063,-5.4679,-5.3617,-5.2169,0.0,0.0,0.0,0.0,0.0,0.0,0.0,0.0,0.0,0.0,0.0,0.0,0.0,0.0,0.0,0.0,0.0,0.0,0.0,0.0,0.0,0.0,0.0,0.0,0.0,0.0,0.0,0.0,0.0,0.0,0.0,0.0,0.0,0.0,0.0,0.0,0.0,0.0,0.0,0.0,-5.2884,-5.4078,-5.5315,0.0,0.0,0.0,0.0,0.0,0.0,-5.3409,-5.2857,0.0,0.0,0.0,0.0,0.0,0.0,0.0,0.0,0.0,0.0,0.0,0.0,0.0,0.0,0.0,0.0,0.0,0.0,0.0,0.0,0.0,0.0,0.0,0.0,0.0,0.0,0.0,0.0,0.0,0.0,0.0,0.0,0.0,0.0,0.0,0.0,0.0,0.0,0.0,0.0,0.0,0.0,0.0,0.0,0.0,0.0,0.0,0.0,0.0,0.0,0.0,0.0,0.0,0.0,0.0,-4.626,-4.8845,-5.0587,-5.1375,-5.2177,-5.2256,-5.1568,-5.0886,-4.979,0.0,0.0,0.0,0.0,0.0,0.0,0.0,0.0,0.0,0.0,0.0,0.0,0.0,0.0,0.0,0.0,0.0,0.0,0.0,0.0,0.0,0.0,0.0,0.0,0.0,0.0,0.0,0.0,0.0,0.0,0.0,0.0,0.0,0.0,0.0,0.0,0.0,0.0,0.0,0.0,0.0,-5.538,-5.6493,-5.5409,0.0,0.0,0.0,0.0,-5.2847,-5.3388,0.0,0.0,0.0,0.0,0.0,0.0,0.0,0.0,0.0,0.0,0.0,0.0,0.0,0.0,0.0,0.0,0.0,0.0,0.0,0.0,0.0,0.0,0.0,0.0,0.0,0.0,0.0,0.0,0.0,0.0,0.0,0.0,0.0,0.0,0.0,0.0,0.0,0.0,0.0,0.0,0.0,0.0,0.0,0.0,0.0,0.0,0.0,0.0,0.0,0.0,0.0,0.0,0.0,0.0,0.0,0.0,-4.5322,-4.7357,-4.8836,-4.9644,-4.9807,-4.9807,-4.97,-4.901,-4.8123,0.0,0.0,0.0,0.0,0.0,0.0,0.0,0.0,0.0,0.0,0.0,0.0,0.0,0.0,0.0,0.0,0.0,0.0,0.0,0.0,0.0,0.0,0.0,0.0,0.0,0.0,0.0,0.0,0.0,0.0,0.0,0.0,0.0,0.0,0.0,0.0,0.0,0.0,0.0,0.0,0.0,-5.6936,-5.4538,-5.413,-5.3854,0.0,0.0,-5.4004,-5.6754,-5.8349,0.0,0.0,0.0,0.0,0.0,0.0,0.0,0.0,0.0,0.0,0.0,0.0,0.0,0.0,0.0,0.0,0.0,0.0,0.0,0.0,0.0,0.0,0.0,0.0,0.0,0.0,0.0,0.0,0.0,0.0,0.0,0.0,0.0,0.0,0.0,0.0,0.0,0.0,0.0,0.0,0.0,0.0,0.0,0.0,0.0,0.0,0.0,0.0,0.0,0.0,0.0,0.0,0.0,0.0,0.0,-4.223,-4.3805,-4.6187,-4.7577,-4.799,-4.8432,-4.8452,-4.799,-4.666,-4.5518,0.0,0.0,0.0,0.0,0.0,0.0,0.0,0.0,0.0,0.0,0.0,0.0,0.0,0.0,0.0,0.0,0.0,0.0,0.0,0.0,0.0,0.0,0.0,0.0,0.0,0.0,0.0,0.0,0.0,0.0,0.0,0.0,0.0,0.0,0.0,0.0,0.0,0.0,0.0,0.0,0.0,0.0,-5.4384,-5.4635,0.0,0.0,0.0,-5.4023,-5.4896,0.0,0.0,0.0,0.0,0.0,0.0,0.0,0.0,0.0,0.0,0.0,0.0,0.0,0.0,0.0,0.0,0.0,0.0,0.0,0.0,0.0,0.0,0.0,0.0,0.0,0.0,0.0,0.0,0.0,0.0,0.0,0.0,0.0,0.0,0.0,0.0,0.0,0.0,0.0,0.0,0.0,0.0,0.0,0.0,0.0,0.0,0.0,0.0,0.0,0.0,0.0,0.0,0.0,0.0,0.0,0.0,0.0,-4.2421,-4.4949,-4.6355,-4.6567,-4.7163,-4.7155,-4.6455,-4.4901,0.0,0.0,0.0,0.0,0.0,0.0,0.0,0.0,0.0,0.0,0.0,0.0,0.0,0.0,0.0,0.0,0.0,0.0,0.0,0.0,0.0,0.0,0.0,0.0,0.0,0.0,0.0,-3.6965,0.0,0.0,0.0,0.0,0.0,0.0,0.0,0.0,0.0,0.0,0.0,0.0,0.0,0.0,-5.4869,-5.365,-5.4745,-5.53,0.0,0.0,-5.4093,-5.4089,-5.5878,-5.595,0.0,0.0,0.0,0.0,0.0,0.0,0.0,0.0,0.0,0.0,0.0,0.0,0.0,0.0,0.0,0.0,0.0,0.0,0.0,0.0,0.0,0.0,0.0,0.0,0.0,0.0,0.0,0.0,0.0,0.0,0.0,0.0,0.0,0.0,0.0,0.0,0.0,0.0,0.0,0.0,0.0,0.0,0.0,0.0,0.0,0.0,0.0,0.0,0.0,0.0,0.0,0.0,0.0,0.0,0.0,-4.1571,-4.348,-4.4893,-4.5671,-4.5729,-4.5582,-4.5216,-4.4357,-4.3065,0.0,0.0,0.0,0.0,0.0,0.0,0.0,0.0,0.0,0.0,0.0,0.0,0.0,0.0,0.0,0.0,0.0,0.0,0.0,0.0,0.0,0.0,0.0,0.0,0.0,0.0,0.0,0.0,0.0,0.0,0.0,0.0,0.0,0.0,0.0,0.0,0.0,0.0,0.0,0.0,0.0,-5.365,-5.1365,-5.3508,-5.5432,0.0,0.0,-5.4886,-5.7098,-5.992,-5.9681,-5.3019,0.0,0.0,0.0,0.0,0.0,0.0,0.0,0.0,0.0,0.0,0.0,0.0,0.0,0.0,0.0,0.0,0.0,0.0,0.0,0.0,0.0,0.0,0.0,0.0,0.0,0.0,0.0,0.0,0.0,0.0,0.0,0.0,0.0,0.0,0.0,0.0,0.0,0.0,0.0,0.0,0.0,0.0,0.0,0.0,0.0,0.0,0.0,0.0,0.0,0.0,0.0,0.0,0.0,-3.901,-4.022,-4.2752,-4.4461,-4.5264,-4.5302,-4.5222,-4.5115,-4.3966,-4.2365,0.0,0.0,0.0,0.0,0.0,0.0,0.0,0.0,0.0,0.0,0.0,0.0,0.0,0.0,0.0,0.0,0.0,0.0,0.0,0.0,0.0,0.0,0.0,0.0,0.0,0.0,0.0,0.0,-3.8723,-3.8964,-4.0065,0.0,0.0,0.0,0.0,0.0,0.0,0.0,0.0,0.0,0.0,-5.2757,-5.2318,-5.3742,0.0,0.0,-5.4665,-5.4844,-5.6283,-5.6617,-5.5549,-5.2111,-5.0389,0.0,0.0,0.0,0.0,0.0,0.0,0.0,0.0,0.0,0.0,0.0,0.0,0.0,0.0,0.0,0.0,0.0,0.0,0.0,0.0,0.0,0.0,0.0,0.0,0.0,0.0,0.0,0.0,0.0,0.0,0.0,0.0,0.0,0.0,0.0,0.0,0.0,0.0,0.0,0.0,0.0,0.0,0.0,0.0,0.0,0.0,0.0,0.0,0.0,0.0,0.0,0.0,-3.8702,-3.9783,-4.1979,-4.363,-4.4696,-4.4704,-4.4671,-4.4532,-4.3275,-4.1729,0.0,0.0,0.0,0.0,0.0,0.0,0.0,0.0,0.0,0.0,0.0,0.0,0.0,0.0,0.0,0.0,0.0,0.0,0.0,0.0,0.0,0.0,0.0,0.0,0.0,0.0,0.0,0.0,-3.9247,-3.9241,-3.9727,0.0,0.0,0.0,0.0,0.0,0.0,0.0,0.0,0.0,0.0,-5.1766,-5.2005,-5.283,-5.3464,-5.3509,-5.3153,-5.3338,-5.4635,-5.3545,-5.2129,-5.099,0.0,0.0,0.0,0.0,0.0,0.0,0.0,0.0,0.0,0.0,0.0,0.0,0.0,0.0,0.0,0.0,0.0,0.0,0.0,0.0,0.0,0.0,0.0,0.0,0.0,0.0,0.0,0.0,0.0,0.0,-3.8383,0.0,0.0,0.0,0.0,0.0,0.0,0.0,0.0,0.0,0.0,0.0,0.0,0.0,0.0,0.0,0.0,0.0,0.0,0.0,0.0,0.0,0.0,-3.8794,-4.0634,-4.113,-4.2169,-4.3759,-4.3836,-4.3654,-4.3335,-4.2229,-4.1179,-4.0141,0.0,0.0,0.0,0.0,0.0,0.0,0.0,0.0,0.0,0.0,0.0,0.0,0.0,0.0,0.0,0.0,0.0,0.0,0.0,0.0,0.0,0.0,0.0,0.0,0.0,0.0,-3.8728,-3.7773,-3.7114,0.0,0.0,0.0,0.0,0.0,0.0,0.0,0.0,0.0,0.0,-4.8892,-5.0522,-4.9574,-5.0365,-5.1194,-5.1299,-5.0211,-5.0152,-5.2504,-5.1796,-5.0723,0.0,0.0,0.0,0.0,0.0,0.0,0.0,0.0,0.0,0.0,0.0,0.0,0.0,0.0,0.0,0.0,0.0,0.0,0.0,0.0,0.0,0.0,0.0,0.0,0.0,0.0,0.0,-4.0672,-3.9827,0.0,0.0,0.0,0.0,0.0,0.0,0.0,0.0,0.0,0.0,0.0,-4.0938,-4.1575,0.0,0.0,0.0,0.0,0.0,0.0,0.0,0.0,0.0,0.0,0.0,0.0,-3.8204,-3.933,-4.0242,-4.1336,-4.2612,-4.2448,-4.2403,-4.2498,-4.17,-4.0394,-3.8522,0.0,0.0,0.0,0.0,0.0,0.0,0.0,0.0,0.0,0.0,0.0,0.0,0.0,0.0,0.0,0.0,0.0,0.0,0.0,0.0,0.0,0.0,0.0,0.0,0.0,-3.817,0.0,0.0,0.0,0.0,0.0,0.0,0.0,0.0,0.0,0.0,0.0,-4.4384,-4.567,-4.7873,-4.9075,-4.8229,-4.935,-5.0194,0.0,0.0,0.0,0.0,0.0,0.0,0.0,0.0,0.0,0.0,0.0,0.0,0.0,0.0,-4.8478,-4.5138,-4.4711,-4.4875,-4.4964,0.0,0.0,0.0,0.0,0.0,0.0,0.0,0.0,0.0,0.0,0.0,0.0,0.0,0.0,0.0,0.0,-4.0168,0.0,0.0,0.0,0.0,0.0,0.0,0.0,0.0,-4.2341,-4.2451,-4.1956,-4.2584,-4.2255,0.0,-4.1412,-4.09,0.0,0.0,0.0,0.0,0.0,0.0,0.0,0.0,-3.8175,-3.8704,-3.9527,-4.0446,-4.1417,-4.1254,-4.1254,-4.1454,-4.0974,-3.9711,-3.7646,-3.6353,-3.506,0.0,0.0,0.0,0.0,0.0,0.0,0.0,0.0,0.0,0.0,0.0,0.0,0.0,0.0,0.0,0.0,0.0,0.0,0.0,0.0,0.0,0.0,0.0,-3.7201,0.0,0.0,0.0,0.0,0.0,0.0,0.0,0.0,0.0,-4.1265,-4.3059,-4.4741,-4.5958,-4.7467,-4.8082,-4.7056,0.0,0.0,0.0,0.0,0.0,0.0,0.0,-4.6341,-4.7393,-4.6503,-4.5912,-4.6553,-4.7491,-4.8086,-4.8061,0.0,0.0,-4.6582,-4.6338,-4.6477,-4.6563,-4.6127,-4.573,-4.5834,-4.5486,-4.4953,0.0,0.0,0.0,0.0,0.0,0.0,0.0,0.0,-4.1052,-4.0493,0.0,-3.9761,0.0,0.0,0.0,0.0,0.0,0.0,0.0,0.0,-4.3112,-4.3479,-4.3461,-4.3515,-4.3229,-4.2704,-4.3458,-4.2752,-4.064,-3.9532,0.0,0.0,0.0,0.0,0.0,0.0,-3.8707,-3.8689,-3.8929,-3.9439,-4.024,-4.0212,-4.0212,-4.0235,-4.0043,-3.92,-3.7654,-3.7752,-3.6781,-3.4456,-3.4427,0.0,0.0,0.0,0.0,0.0,0.0,0.0,0.0,0.0,0.0,0.0,0.0,0.0,0.0,0.0,0.0,0.0,0.0,0.0,0.0,-3.6274,0.0,0.0,0.0,0.0,0.0,0.0,0.0,0.0,0.0,0.0,-4.2695,-4.507,-4.6797,-4.6758,0.0,0.0,0.0,0.0,-4.6239,-4.5455,-4.5233,-4.5628,-4.6854,-4.6347,-4.6257,-4.7696,0.0,0.0,-4.8673,-4.7723,-4.7003,-4.6908,-4.6603,-4.7152,-5.0207,-4.9417,-4.8625,-4.8805,-4.7637,-4.6753,-4.6937,-4.689,-4.6537,-4.5214,0.0,0.0,0.0,0.0,-4.3116,-4.4042,-4.6034,-4.4498,-4.3822,-4.3769,-4.2725,0.0,0.0,0.0,0.0,0.0,0.0,-4.2616,-4.3149,-4.3387,-4.3479,-4.3515,-4.4085,-4.3954,-4.3287,-4.4078,-4.3836,-4.265,-4.174,-4.0419,-3.8665,0.0,0.0,0.0,0.0,-3.8707,-3.867,-3.8203,-3.8442,-3.9415,-3.8701,-3.8593,-3.915,-3.9632,-3.9405,-3.8395,-3.8431,-3.7936,-3.6742,-3.5528,0.0,0.0,0.0,0.0,0.0,0.0,0.0,0.0,0.0,0.0,0.0,0.0,0.0,0.0,0.0,0.0,0.0,0.0,0.0,-3.6133,-3.5642,-3.5596,0.0,0.0,0.0,0.0,0.0,0.0,0.0,0.0,0.0,-4.3464,-4.4308,-4.4733,0.0,0.0,-4.5641,-4.4076,-4.5381,-4.6155,-4.5173,0.0,0.0,0.0,-4.6246,-4.5849,-4.6795,-4.7007,-4.7186,-4.7545,-4.7191,-4.6846,-4.6829,-4.6691,-4.6946,-4.7752,-4.8082,-4.8242,-4.8705,-4.8504,-4.8434,-4.8924,-4.8338,-4.7348,-4.7441,-4.5047,-4.4254,-4.439,-4.5111,-4.4389,-4.5082,-4.6643,-4.5671,-4.509,-4.4739,-4.4027,-4.2912,-4.1589,-4.1572,0.0,0.0,0.0,-4.3056,-4.3479,-4.3479,-4.3479,-4.3516,-4.3993,-4.3975,-4.3533,-4.3993,-4.3975,-4.3479,-4.3002,-4.1765,-3.9813,0.0,0.0,-3.8248,-3.8542,-3.8524,-3.8212,-3.7749,-3.7978,-3.8915,-3.8309,-3.8193,-3.8689,-3.9478,-3.9533,-3.8726,-3.9001,-3.8695,-3.7667,-3.6577,-3.5515,0.0,0.0,0.0,0.0,0.0,0.0,0.0,0.0,0.0,0.0,0.0,-3.4544,-3.3725,0.0,0.0,0.0,-3.3647,-3.4568,-3.6331,-3.6022,0.0,0.0,0.0,0.0,0.0,0.0,0.0,-3.989,-4.0794,-4.1878,-4.314,-4.353,-4.3956,-4.4616,-4.4993,-4.4827,-4.3683,0.0,-4.5606,-4.4736,-4.5446,-4.6153,-4.6436,-4.6052,-4.5887,-4.6514,-4.6493,-4.6504,-4.6912,-4.6683,-4.6363,-4.6312,-4.5872,-4.5449,-4.5449,-4.5776,-4.6509,-4.7779,-4.8071,-4.8226,-4.8661,-4.806,-4.7259,-4.9291,-4.7131,-4.6397,-4.603,-4.5993,-4.5956,-4.574,-4.5426,-4.5311,-4.4844,-4.4155,-4.405,-4.3413,-4.2396,-4.2396,0.0,-4.2415,-4.3166,-4.3479,-4.3479,-4.3479,-4.3479,-4.3479,-4.3479,-4.3479,-4.3479,-4.3479,-4.3461,-4.3369,-4.3352,-4.2546,-4.1022,-4.0217,-3.908,-3.7731,-3.8322,-3.834,-3.7621,-3.7547,-3.7881,-3.867,-3.8762,-3.8799,-3.8799,-3.957,-3.9606,-3.8781,-3.946,-3.9163,-3.7621,-3.7437,-3.6652,-3.5096,0.0,0.0,0.0,0.0,0.0,0.0,0.0,0.0,0.0,0.0,0.0,0.0,0.0,0.0,0.0,-3.4249,0.0,-3.6768,-3.7058,0.0,0.0,0.0,-3.8348,-3.8348,-3.9389,-4.0113,-4.0113,0.0,0.0,-4.2134,0.0,-4.3908,-4.5578,-4.5275,-4.4707,-4.4294,-4.4685,-4.4759,-4.4224,-4.4828,-4.5302,-4.5247,-4.548,-4.5874,-4.636,-4.6532,-4.629,-4.6341,-4.5821,-4.5449,-4.5348,-4.4282,-4.3386,-4.3308,-4.3464,-4.3978,-4.6015,-4.654,-4.6629,-4.6658,-4.6527,-4.6194,-4.8836,-4.8012,-4.7829,-4.7388,-4.6783,-4.6473,-4.6791,-4.7366,-4.6191,-4.5546,-4.5312,-4.4393,-4.3709,-4.3204,-4.3204,-4.3204,-4.3239,-4.3406,-4.3479,-4.3479,-4.3479,-4.3479,-4.3479,-4.3479,-4.3479,-4.3479,-4.3479,-4.3184,-4.2581,-4.2158,-4.1375,-4.0198,-3.9591,-3.9008,-3.8435,-3.8615,-3.8615,-3.8414,-3.7823,-3.7896,-3.8689,-3.9294,-3.9606,-3.9606,-4.0396,-4.0157,-3.8781,-3.946,-3.9182,-3.7584,-3.6923,-3.6101,-3.5041,-3.298,0.0,0.0,0.0,0.0,0.0,0.0,0.0,0.0,0.0,-3.3816,-3.1324,0.0,-3.4521,0.0,-3.4618,-3.6022,-3.7483,-3.7682,0.0,0.0,-3.9561,-3.9662,-3.9662,-3.9918,-4.0113,-4.0113,-4.073,-4.1271,-4.1457,-4.21,-4.2719,-4.3172,-4.3545,-4.3963,-4.4408,-4.4601,-4.4421,-4.3814,-4.4232,-4.4555,-4.4011,-4.3946,-4.4315,-4.5004,-4.4164,-4.3555,-4.413,-4.3606,-4.3115,-4.3098,-4.2844,-4.2574,-4.254,-4.2557,-4.2692,-4.3318,-4.4265,-4.5139,-4.5122,-4.4654,-4.4181,-4.8657,-4.8269,-4.7921,-4.7498,-4.7076,-4.6851,-4.6797,-4.678,-4.5894,-4.5326,-4.4923,-4.4129,-4.3679,-4.3496,-4.3479,-4.3479,-4.3479,-4.3479,-4.3479,-4.3479,-4.3479,-4.3479,-4.3479,-4.3479,-4.3479,-4.3479,-4.3479,-4.3259,-4.2801,-4.1923,-4.1124,-4.0416,-3.9544,-3.8964,-3.871,-3.8707,-3.8872,-3.9221,-3.8432,-3.8248,-3.8707,-3.9148,-3.9549,-3.99,-4.0223,-3.9678,-3.8104,-3.8752,-3.8376,-3.6842,-3.6313,-3.5695,-3.4838,-3.313,-3.2029,0.0,0.0,0.0,0.0,0.0,0.0,0.0,0.0,0.0,0.0,0.0,-3.4868,0.0,-3.5859,0.0,-3.87,-3.887,-3.9208,-4.0028,-4.0113,-4.0113,-4.0113,-4.0113,-4.0113,-4.0113,-4.0443,-4.0832,-4.117,-4.1559,-4.1931,-4.2236,-4.2371,-4.2709,-4.3413,-4.3599,-4.3403,-4.3014,-4.3267,-4.3436,-4.2963,-4.2929,-4.3047,-4.3413,-4.2888,-4.2439,-4.2828,-4.2591,-4.2185,-4.1897,-4.1813,-4.1694,-4.1407,-4.161,-4.1728,-4.1568,-4.2262,-4.3098,-4.3498,-4.3217,-4.2912,-4.8656,-4.8233,-4.7535,-4.7131,-4.6947,-4.6947,-4.6281,-4.5193,-4.5081,-4.4653,-4.3986,-4.3664,-4.3479,-4.3479,-4.3427,-4.3427,-4.3479,-4.3427,-4.3427,-4.3479,-4.3479,-4.3479,-4.3479,-4.3479,-4.3479,-4.3479,-4.3479,-4.3387,-4.3167,-4.196,-4.1125,-4.0667,-3.9528,-3.8876,-3.8761,-3.8713,-3.9056,-3.9717,-3.9166,-3.8839,-3.8808,-3.8915,-3.9192,-3.9653,-3.9508,-3.8658,-3.7127,-3.764,-3.7288,-3.5842,-3.5774,-3.5485,-3.4751,-3.3852,-3.3038,0.0,-3.1673,0.0,0.0,0.0,0.0,0.0,0.0,0.0,0.0,-3.4336,-3.5757,-3.7753,-3.7483,-3.798,-3.9791,-4.0045,-4.0062,-3.996,-3.996,-3.996,-3.996,-3.996,-4.0011,-4.0096,-4.0113,-4.0367,-4.0933,-4.1052,-4.1322,-4.1762,-4.1457,-4.1356,-4.188,-4.2117,-4.2202,-4.2151,-4.2066,-4.1982,-4.1965,-4.1965,-4.1982,-4.2025,-4.1948,-4.1999,-4.1965,-4.1948,-4.1762,-4.1221,-4.1068,-4.0849,-4.0214,-4.0646,-4.0815,-4.035,-4.0747,-4.1356,-4.1847,-4.1982,-4.2042,-4.8657,-4.8288,-4.8141,-4.7333,-4.614,-4.614,-4.5781,-4.5155,-4.4504,-4.4131,-4.3971,-4.3646,-4.3479,-4.3462,-4.3032,-4.3087,-4.3462,-4.3032,-4.3087,-4.3479,-4.3479,-4.3479,-4.3479,-4.3479,-4.3479,-4.3479,-4.3479,-4.2818,-4.1554,-4.0852,-3.9842,-3.8536,-3.8252,-3.8414,-3.8987,0.0,0.0,0.0,-3.9405,-3.9598,-3.9469,-4.0072,-3.9786,-3.8596,-3.849,0.0,-3.6191,-3.6543,-3.6391,-3.5461,-3.5704,0.0,0.0,0.0,0.0,0.0,0.0,0.0,0.0,0.0,0.0,0.0,-3.4435,-3.377,-3.3508,-3.5757,-3.7449,-3.7905,-3.8853,-3.9402,-3.9225,-3.9757,-3.9859,-3.9276,-3.9191,-3.9216,-3.9191,-3.9233,-3.9411,-4.0028,-4.0113,-4.0146,-4.0299,-4.0316,-4.0358,-4.0519,-4.0417,-4.0383,-4.0485,-4.1026,-4.139,-4.139,-4.0967,-4.057,-4.0519,-4.057,-4.0671,-4.0519,-4.0519,-4.057,-4.0603,-4.0587,-4.0553,-4.035,-4.0316,-4.0299,-4.013,-4.0231,-4.0316,-4.013,-4.0231,-4.0324,-4.0502,-4.0536,-4.0519,-4.7647,0.0,-4.6691,-4.6067,0.0,-4.4874,-4.4573,-4.4313,-4.3925,-4.374,-4.3724,-4.3563,-4.3479,-4.3497,-4.3214,-4.3087,-4.3087,-4.2808,-4.2845,-4.3087,-4.3124,-4.3232,-4.3479,-4.3479,-4.3294,-4.291,-4.2892,-4.2286,-4.1097,-4.0144,-3.9283,-3.8488,-3.7882,-3.7757,-3.8151,-3.8266,-3.8449,-3.8707,-3.9093,-3.9447,-3.9751,-3.9754,-3.9538,-3.9053,0.0,0.0,0.0,0.0,0.0,0.0,0.0,0.0,0.0,0.0,0.0,-3.3733,-3.3773,-3.381,-3.3931,-3.4153,-3.4686,-3.552,-3.5977,-3.5876,-3.5154,-3.6823,-3.8034,-3.843,-3.9123,-3.9394,-3.9039,-3.9351,-3.9242,-3.8548,-3.8447,-3.8582,-3.892,-3.8988,-3.93,-3.996,-4.0113,-4.0113,-4.0113,-4.0113,-3.9927,-3.961,-3.9859,-3.9825,-3.9216,-3.9929,-4.0646,-4.0629,-4.04,-4.0113,-4.0113,-4.0113,-4.0113,-4.0113,-4.0113,-4.0113,-4.0113,-4.0113,-4.0113,-4.0113,-4.0113,-4.0113,-4.0113,-4.0113,-4.0113,-4.0113,-4.0113,-4.0113,-4.0113,-4.0113,-4.0113,-4.6617,-4.5847,-4.5186,-4.4819,-4.4672,-4.3993,-4.3626,-4.3479,0.0,0.0,0.0,-4.3479,-4.3479,-4.3479,-4.3392,-4.3124,-4.2711,-4.2578,-4.2596,-4.2693,-4.2693,-4.2904,-4.3277,-4.3441,-4.2983,-4.2121,-4.2231,-4.1827,-4.0875,-3.9775,-3.9064,-3.8708,-3.7791,-3.7284,-3.7229,-3.7578,-3.7998,-3.8417,-3.8658,-3.9069,-3.9596,-3.9038,-3.8949,-3.9381,-3.8467,-3.7312,-3.6021,-3.5805,-3.4942,-3.3364,-3.3366,-3.3159,-3.2645,-3.3565,-3.4143,-3.424,-3.5576,-3.6221,-3.591,-3.6205,-3.6233,-3.5831,-3.711,-3.7584,-3.6863,-3.7702,-3.8481,-3.8954,-3.8988,-3.8988,-3.8988,-3.8853,-3.8514,-3.7787,-3.7719,-3.7956,-3.8522,-3.8599,-3.8894,-3.9723,-3.9876,-3.9977,-4.0096,-4.0113,-3.9808,-3.9166,-3.9463,-3.9411,-3.8346,-3.9028,-3.9969,-4.0138,-4.013,-4.0113,-4.0113,-4.0113,-4.0113,-4.0113,-4.0113,-4.0113,-4.0113,-4.0113,-4.0113,-4.0113,-4.0113,-4.0113,-4.0113,-4.0113,-4.0113,-4.0113,-4.0113,-4.0113,-4.0113,-4.0113,-4.0113,-4.6617,-4.5883,-4.5773,-4.5333,-4.4673,-4.458,-4.414,-4.3497,-4.3479,-4.3479,-4.3479,-4.3479,-4.3479,-4.3462,-4.3014,-4.2751,-4.2692,-4.218,-4.2221,0.0,-4.2693,-4.2613,-4.2506,-4.3185,-4.2727,-4.1407,-4.1974,-4.1515,-4.0194,-3.9889,-3.902,-3.7683,-3.7685,-3.7578,-3.7247,-3.7267,-3.734,-3.745,-3.8491,-3.8893,-3.8615,-3.8774,-3.8399,-3.7423,-3.6626,-3.61,-3.5831,-3.4566,-3.425,-3.5198,-3.4685,-3.4438,-3.4725,-3.4879,-3.5092,-3.5262,-3.5722,-3.615,-3.6519,-3.6463,-3.6474,-3.6678,-3.7415,-3.7584,-3.6948,-3.864,-3.9588,-3.9073,-3.8979,-3.8988,-3.8954,-3.8413,-3.7753,-3.706,-3.6941,-3.7015,-3.7185,-3.7218,-3.7726,-3.8971,-3.9157,-3.9419,-3.9859,-3.9994,-3.9673,-3.909,-3.876,-3.8668,-3.8076,-3.8497,-3.9315,-3.9927,-4.0113,-4.0113,-3.9927,-4.0087,-3.9969,-4.0113,-4.002,-3.9927,-3.9995,-3.9978,-4.002,-4.0113,-4.0113,-4.0113,-4.0113,-4.0113,-4.0113,-4.0113,-4.0113,-4.0113,-4.0096,-4.0079,-4.0062,-4.5422,-4.4635,-4.4599,-4.4397,-4.4048,-4.4048,-4.3846,-4.3497,-4.3479,-4.3479,-4.3479,-4.3479,-4.3479,-4.3444,-4.2939,-4.2693,-4.2673,-4.2062,-4.2121,-4.2656,-4.2224,-4.2105,-4.2271,-4.2231,-4.1589,-4.0524,-4.0818,-4.0377,-3.9331,-3.9239,-3.853,-3.7265,-3.6847,-3.6669,-3.6764,-3.6764,-3.6921,-3.7227,-3.779,-3.7954,-3.7774,-3.7899,-3.7702,-3.713,-3.6978,-3.6714,-3.63,-3.559,-3.5012,-3.4623,-3.4404,-3.4073,-3.3659,-3.4283,-3.4706,-3.48,-3.5155,-3.5349,-3.5348,-3.5359,-3.5416,-3.556,-3.666,-3.6818,-3.5689,-3.7636,-3.8751,-3.8447,-3.8413,-3.8244,-3.7855,-3.7483,-3.6975,-3.6231,-3.6146,-3.6332,-3.6728,-3.6812,-3.7229,-3.8193,-3.8413,-3.8531,-3.887,-3.8903,-3.8606,-3.785,-3.7383,-3.6972,-3.6738,-3.6933,-3.754,-3.8581,-3.8859,-3.8859,-3.8854,-3.8859,-3.8859,-3.8859,-3.8859,-3.9022,-3.9332,-3.9447,-3.962,-4.002,-4.007,-4.0113,-4.0054,-4.0113,-4.0113,-4.0113,-4.0113,-4.0113,-4.0079,-3.9808,-3.9495,-4.4539,-4.3754,-4.3448,-4.325,-4.316,-4.3391,-4.3427,-4.3339,-4.3444,-4.3479,-4.3479,-4.3479,-4.3479,-4.3444,-4.2939,-4.2616,-4.244,-4.1874,-4.1898,-4.237,-4.1618,-4.1506,-4.1924,-4.137,-4.0598,-3.9735,-3.979,-3.9496,-3.8765,-3.8596,-3.8016,-3.7038,-3.6075,-3.5725,-3.5966,-3.6138,-3.635,-3.6597,-3.6775,-3.6943,-3.7192,-3.7095,-3.697,-3.6945,-3.7238,-3.7125,-3.6506,-3.6172,-3.5411,-3.4193,-3.3945,-3.3517,-3.2821,-3.3539,-3.4066,-3.4204,-3.4529,-3.4584,-3.4258,-3.4357,-3.4453,-3.4527,-3.5594,-3.5816,-3.4908,-3.6133,-3.7187,-3.7183,-3.7265,-3.7167,-3.6703,-3.6534,-3.6265,-3.5684,-3.5616,-3.5876,-3.64,-3.6524,-3.6806,-3.7483,-3.7669,-3.7702,-3.7855,-3.7898,-3.7584,-3.6672,-3.5783,-3.5346,-3.5285,-3.5212,-3.5682,-3.647,-3.7112,-3.7347,-3.7354,-3.7363,-3.7411,-3.7486,-3.7459,-3.779,-3.8308,-3.8548,-3.8607,-3.9059,-3.9248,-3.9149,-3.9286,-3.948,-3.9598,-3.9716,-3.9926,-4.0062,-3.9783,-3.9202,-3.8756,-4.4848,-4.4436,-4.334,-4.2462,-4.218,-4.3051,-4.3196,-4.2846,-4.3286,-4.3479,-4.3462,-4.3479,-4.3479,-4.3427,-4.2902,-4.2402,-4.1916,-4.1268,-4.1335,-4.1785,-4.1055,-4.0861,-4.1227,-4.1113,-4.0288,-3.9093,-3.9533,-3.9407,-3.8645,-3.8183,-3.7452,-3.6519,-3.5876,-3.5306,-3.4864,-3.5372,-3.5394,-3.478,-3.5421,-3.6228,-3.7097,-3.6724,-3.6372,-3.6129,-3.6094,-3.5971,-3.5712,-3.4526,-3.4351,-3.5117,-3.3899,-3.3363,-3.38,-3.3649,-3.3666,-3.4129,-3.4225,-3.4243,-3.4168,-3.4216,-3.4246,-3.449,-3.4624,-3.4734,-3.4565,-3.4739,-3.4939,-3.5068,-3.5553,-3.5844,-3.5811,-3.5743,-3.569,-3.565,-3.5616,-3.565,-3.5695,-3.5701,-3.6028,-3.6812,-3.6827,-3.7151,-3.7577,-3.7719,-3.7211,-3.5861,-3.5161,-3.4426,-3.3862,-3.3819,-3.3758,-3.4181,-3.5003,-3.5835,-3.5938,-3.5968,-3.6206,-3.6617,-3.6362,-3.6586,-3.7222,-3.7323,-3.7065,-3.7454,-3.7383,-3.7438,-3.7442,-3.7639,-3.8376,-3.8715,-3.9211,-3.9767,-3.9201,-3.8421,-3.7927,-4.5175,-4.5315,-4.4309,-4.3571,-4.3088,-4.2681,-4.2384,-4.2223,-4.2771,-4.3032,-4.3069,-4.3357,-4.3479,-4.3426,-4.258,-4.2203,-4.2244,-4.1335,-4.1407,-4.2192,-4.1461,-4.1088,-4.1046,-4.0616,-3.9772,-3.8781,-3.9038,-3.8857,-3.817,-3.7397,-3.6823,-3.6374,-3.5854,-3.543,-3.5182,-3.5447,-3.543,-3.5143,-3.503,-3.5168,-3.5514,-3.5406,-3.5248,-3.5134,-3.4961,-3.4973,-3.5044,-3.4431,-3.4311,-3.4776,-3.415,-3.3671,-3.3453,-3.3257,-3.312,-3.3063,-3.2667,-3.2427,-3.2427,-3.2821,-3.3114,-3.319,-3.402,-3.4191,-3.3437,-3.3396,-3.3246,-3.2998,-3.3805,-3.4454,-3.4486,-3.4788,-3.5144,-3.5492,-3.56,-3.543,-3.5052,-3.5012,-3.5178,-3.5445,-3.5518,-3.5777,-3.6375,-3.6546,-3.5937,-3.4865,-3.4401,-3.3998,-3.2673,-3.2662,-3.2721,-3.2481,-3.2913,-3.3567,-3.4253,-3.4812,-3.4949,-3.4903,-3.4966,-3.5396,-3.5736,-3.6156,-3.6111,-3.615,-3.637,-3.6405,-3.634,-3.6393,-3.6829,-3.7258,-3.7265,-3.7535,-3.7656,-3.7068,-3.6662,-4.5508,-4.5975,-4.5004,-4.408,-4.3331,-4.2274,-4.1725,-4.1664,-4.2362,-4.2693,-4.2751,-4.325,-4.3479,-4.3339,-4.2306,-4.2059,-4.2264,-4.1362,-4.1451,-4.2257,-4.1498,-4.1089,-4.0989,-4.0047,-3.9258,-3.8781,-3.8707,-3.835,-3.7685,-3.6845,-3.6312,-3.6139,-3.5783,-3.5481,-3.5374,-3.5603,-3.562,-3.5323,-3.5064,-3.4865,-3.4588,-3.4303,-3.4201,-3.4193,-3.4055,-3.4064,-3.4287,-3.4206,-3.4157,-3.4083,-3.4001,-3.365,-3.293,-3.2765,-3.2466,-3.2015,-3.1515,-3.119,-3.1207,-3.1701,-3.2107,-3.2361,-3.3491,-3.3728,-3.2829,-3.2734,-3.2343,-3.1475,-3.2183,-3.2821,-3.3364,-3.4095,-3.479,-3.5253,-3.5339,-3.5098,-3.4671,-3.4479,-3.4333,-3.4333,-3.4415,-3.4496,-3.4958,-3.5182,-3.4892,-3.3732,-3.3704,-3.3544,-3.2019,-3.1929,-3.2049,-3.1585,-3.1554,-3.1943,-3.2811,-3.3472,-3.3589,-3.3529,-3.3682,-3.4016,-3.4221,-3.4694,-3.4738,-3.4514,-3.5279,-3.545,-3.4843,-3.4865,-3.5463,-3.5657,-3.5694,-3.5699,-3.6136,-3.5596,-3.5224,-4.5914,-4.6651,-4.481,-4.3393,-4.2277,-4.193,-4.1468,-4.1036,-4.2142,-4.2655,-4.2713,-4.3232,-4.3479,-4.341,-4.2306,-4.1832,-4.1771,-4.1178,-4.1188,-4.17,-4.0803,-4.0581,-4.095,-3.9533,-3.8762,-3.8707,-3.8707,-3.8219,-3.7267,-3.6664,-3.6139,-3.565,-3.5622,-3.5284,-3.491,-3.5779,-3.5736,-3.4878,-3.5505,-3.562,-3.4524,-3.3783,-3.3423,-3.3508,-3.3427,-3.3311,-3.316,-3.3459,-3.3516,-3.3274,-3.3307,-3.3057,-3.2555,-3.2126,-3.1687,-3.13,-3.1205,-3.1171,-3.1151,-3.1219,-3.1526,-3.2242,-3.2966,-3.319,-3.2537,-3.2837,-3.2432,-3.0781,-3.0779,-3.1268,-3.2438,-3.3551,-3.4357,-3.4534,-3.4624,-3.46,-3.4528,-3.3921,-3.3684,-3.3633,-3.371,-3.3811,-3.3811,-3.426,-3.3987,-3.3119,-3.2742,-3.2428,-3.1828,-3.157,-3.157,-3.154,-3.1496,-3.154,-3.1675,-3.2482,-3.2751,-3.2662,-3.2766,-3.2871,-3.3036,-3.3141,-3.2946,-3.2825,-3.3227,-3.332,-3.303,-3.3396,-3.427,-3.4596,-3.4573,-3.4664,-3.4703,-3.4088,-3.3853,-4.6107,-4.6406,-4.5196,-4.4199,-4.3356,-4.1878,-4.0897,-4.0473,-4.1201,-4.1771,-4.2183,-4.2733,-4.3178,-4.3444,-4.2306,-4.181,-4.1707,-4.0821,-4.0625,-4.0962,-4.0626,-4.0418,-4.0256,-3.9698,-3.9166,-3.8762,-3.8692,-3.8185,-3.7209,-3.6333,-3.5788,-3.5644,-3.5616,-3.5447,-3.5323,-3.563,-3.5566,-3.4991,-3.4723,-3.4168,-3.3534,-3.2539,-3.2408,-3.3322,-3.2933,-3.2548,-3.2256,-3.2838,-3.3194,-3.3205,-3.3199,-3.2983,-3.2501,-3.1823,-3.1179,-3.0683,-3.0621,-3.0638,-3.0621,-3.0617,-3.0918,-3.1559,-3.2293,-3.2507,-3.1902,-3.1694,-3.1435,-3.1079,-3.0328,-3.0403,-3.1171,-3.2143,-3.2834,-3.3282,-3.3687,-3.3802,-3.3417,-3.3119,-3.2975,-3.3013,-3.3287,-3.3582,-3.3556,-3.3811,-3.3582,-3.2815,-3.2586,-3.2244,-3.171,-3.1496,-3.1496,-3.1496,-3.1496,-3.1496,-3.1496,-3.2079,-3.2467,-3.2168,-3.2138,-3.2228,-3.2362,-3.2602,-3.2556,-3.2241,-3.2168,-3.2257,-3.2366,-3.2287,-3.3108,-3.3345,-3.3311,-3.3362,-3.3225,-3.3034,-3.2946,-4.5685,-4.5699,-4.4812,-4.4192,-4.3603,-4.1742,-4.0583,-4.0179,-4.0679,-4.1246,-4.1832,-4.2422,-4.2995,-4.325,-4.2306,-4.181,-4.1703,-4.0797,-4.0591,-4.0909,-4.0477,-4.0173,-3.9955,-3.9506,-3.8994,-3.8471,-3.8285,-3.77,-3.6799,-3.5981,-3.5622,-3.5616,-3.5616,-3.5616,-3.5622,-3.5761,-3.5591,-3.4957,-3.4322,-3.3662,-3.2838,-3.2236,-3.2222,-3.2882,-3.278,-3.257,-3.2322,-3.2788,-3.3053,-3.3109,-3.3049,-3.2761,-3.2265,-3.1618,-3.0918,-3.0393,-3.0314,-3.0302,-3.037,-3.0532,-3.0924,-3.1574,-3.2454,-3.2673,-3.1879,-3.1598,-3.1559,-3.1288,-3.0372,-2.9789,-3.0111,-3.0502,-3.1073,-3.2082,-3.2875,-3.3103,-3.2668,-3.2367,-3.2272,-3.2312,-3.2826,-3.3103,-3.2997,-3.313,-3.2906,-3.2355,-3.2244,-3.2007,-3.164,-3.1496,-3.1496,-3.1496,-3.1496,-3.1496,-3.1496,-3.1839,-3.2049,-3.1839,-3.2034,-3.1974,-3.1839,-3.2064,-3.2093,-3.1765,-3.1675,-3.178,-3.1735,-3.1555,-3.1735,-3.2093,-3.2166,-3.2249,-3.2216,-3.227,-3.2283,-4.4612,-4.4921,-4.3643,-4.3141,-4.2856,-4.1555,-4.0607,-4.0237,-4.0648,-4.1133,-4.1707,-4.2362,-4.2884,-4.316,-4.2266,-4.181,-4.1682,-4.1059,-4.0977,-4.1347,-4.0117,-3.9747,-3.9987,-3.8651,-3.8054,-3.7946,-3.747,-3.6821,-3.6141,-3.5813,-3.5616,-3.5616,-3.5616,-3.5616,-3.5616,-3.5972,-3.5702,-3.4844,-3.4778,-3.4129,-3.2666,-3.2822,-3.2882,-3.2598,-3.3,-3.3322,-3.3363,-3.3162,-3.3036,-3.2976,-3.2721,-3.2299,-3.1914,-3.1498,-3.0986,-3.045,-3.0333,-3.0364,-3.0394,-3.0894,-3.145,-3.2067,-3.3483,-3.3505,-3.2482,-3.2741,-3.2646,-3.1568,-3.0402,-2.9624,-2.9549,-2.93,-2.9622,-3.1226,-3.1947,-3.2296,-3.2302,-3.1908,-3.1524,-3.1653,-3.2188,-3.2244,-3.1894,-3.216,-3.2284,-3.1809,-3.164,-3.164,-3.1524,-3.1496,-3.1496,-3.1496,-3.1496,-3.1496,-3.1496,-3.1511,-3.1525,-3.157,-3.1959,-3.2108,-3.1735,-3.175,-3.178,-3.1555,-3.1555,-3.1645,-3.1645,-3.1496,-3.1496,-3.1705,-3.1525,-3.1525,-3.1671,-3.1816,-3.17,-4.4157,-4.3885,-4.3708,-4.3152,-4.2421,-4.1758,-4.1007,-4.0146,-4.0286,-4.0672,-4.1223,-4.1814,-4.2384,-4.2694,-4.2142,-4.181,-4.1725,-4.0827,-4.035,-4.0212,-3.9321,-3.8907,-3.8743,-3.7896,-3.7578,-3.7772,-3.7415,-3.7068,-3.6682,-3.6002,-3.5616,-3.5616,-3.5616,-3.5616,-3.5622,-3.5732,-3.5296,-3.4363,-3.4083,-3.3311,-3.2113,-3.2403,-3.2747,-3.3068,-3.3288,-3.3626,-3.4066,-3.359,-3.3205,-3.3017,-3.2907,-3.2543,-3.196,-3.1888,-3.1454,-3.0583,-3.0868,-3.0638,-2.9956,-3.0399,-3.0845,-3.1209,-3.2277,-3.2538,-3.1895,-3.2006,-3.1987,-3.1407,-3.0372,-2.9621,-2.9549,-2.9442,-2.9414,-2.9524,-3.0125,-3.0861,-3.1273,-3.1383,-3.1495,-3.1524,-3.171,-3.171,-3.1582,-3.1809,-3.1796,-3.1582,-3.1496,-3.1496,-3.1496,-3.1496,-3.1496,-3.1496,-3.1496,-3.1496,-3.1496,-3.1496,-3.1496,-3.1496,-3.1765,-3.1989,-3.166,-3.1496,-3.1496,-3.1496,-3.1496,-3.1496,-3.1496,-3.1496,-3.1496,-3.1496,-3.1511,-3.1511,-3.1496,-3.1496,-3.1496,-4.2827,-4.2884,-4.3063,-4.2579,-4.1754,-4.1749,-4.1145,-4.0196,-4.0113,-4.0392,-4.092,-4.1273,-4.1937,-4.2382,-4.1853,-4.1599,-4.166,-4.0618,-3.9863,-3.9373,-3.8666,-3.8364,-3.8284,-3.7574,-3.7237,-3.7449,-3.7453,-3.7182,-3.6692,-3.6177,-3.5805,-3.5627,-3.5616,-3.5616,-3.5616,-3.5588,-3.5137,-3.4312,-3.3709,-3.2924,-3.2239,-3.2199,-3.253,-3.2916,-3.2983,-3.322,-3.3609,-3.3241,-3.3043,-3.3071,-3.2924,-3.2357,-3.1684,-3.1543,-3.1113,-3.0396,-3.0379,-3.0253,-2.9408,-3.0021,-3.0516,-3.0642,-3.1671,-3.1999,-3.1406,-3.1277,-3.1422,-3.1011,-2.9968,-2.9337,-2.9505,-2.9325,-2.9041,-2.8682,-2.9502,-3.0163,-3.0733,-3.0987,-3.1256,-3.1376,-3.1524,-3.1496,-3.1496,-3.1496,-3.1496,-3.1496,-3.1496,-3.1496,-3.1496,-3.1496,-3.1496,-3.1496,-3.1496,-3.1496,-3.1496,-3.1496,-3.1496,-3.1496,-3.154,-3.1645,-3.1525,-3.1496,-3.1496,-3.1496,-3.1496,-3.1496,-3.1496,-3.1496,-3.1496,-3.1496,-3.1496,-3.1496,-3.1496,-3.1496,-3.1496,-4.0905,-4.1901,-4.1824,-4.1455,-4.1013,-4.1446,-4.1099,-4.0221,-4.0113,-4.0385,-4.0756,-4.0926,-4.1495,-4.2124,-4.1402,-4.1246,-4.1446,-4.0618,-3.9706,-3.9028,-3.834,-3.8065,-3.7988,-3.7451,-3.7129,-3.7002,-3.7519,-3.7202,-3.632,-3.6304,-3.6118,-3.565,-3.5616,-3.5616,-3.5616,-3.5616,-3.5255,-3.4486,-3.3833,-3.3156,-3.2473,-3.2395,-3.2446,-3.2496,-3.2429,-3.2479,-3.2666,-3.2547,-3.2682,-3.3139,-3.2727,-3.2221,-3.1385,-3.0738,-3.0424,-2.9957,-2.9688,-2.9392,-2.9137,-2.978,-3.0365,-3.0344,-3.1427,-3.1904,-3.0838,-3.1184,-3.1363,-3.0656,-2.9624,-2.9086,-2.9427,-2.9202,-2.8846,-2.8906,-2.9789,-3.0614,-3.1227,-3.0941,-3.1061,-3.1376,-3.1496,-3.1496,-3.1496,-3.1496,-3.1496,-3.1496,-3.1496,-3.1496,-3.1496,-3.1496,-3.1496,-3.1496,-3.1496,-3.1496,-3.1496,-3.1496,-3.1496,-3.1496,-3.1496,-3.1496,-3.1496,-3.1496,-3.1496,-3.1496,-3.1496,-3.1496,-3.1496,-3.1511,-3.1496,-3.1496,-3.1496,-3.1496,-3.1496,-3.1496,-3.1496,-4.0782,-4.0675,-4.0984,-4.0803,-4.0417,-4.0897,-4.075,-4.0146,-4.0113,-4.0179,-4.0368,-4.075,-4.1064,-4.1313,-4.1087,-4.0995,-4.0949,-4.0407,-3.9723,-3.8971,-3.8244,-3.7282,-3.6781,-3.7011,-3.7141,-3.7129,-3.7559,-3.7524,-3.6871,-3.6539,-3.6118,-3.5622,-3.5633,-3.5616,-3.5616,-3.5633,-3.5194,-3.459,-3.4375,-3.3829,-3.322,-3.3051,-3.3119,-3.3051,-3.2564,-3.2581,-3.2949,-3.2581,-3.2361,-3.2581,-3.2966,-3.2763,-3.1975,-3.1748,-3.1479,-3.1214,-3.0629,-2.9992,-2.952,-2.9659,-2.9626,-2.927,-3.08,-3.115,-2.9993,-3.1318,-3.1498,-3.0776,-3.0118,-2.9819,-2.9651,-2.943,-2.9505,-2.9953,-3.0357,-3.0614,-3.0808,-3.1062,-3.1316,-3.1466,-3.1496,-3.1496,-3.1496,-3.1496,-3.1496,-3.1496,-3.1496,-3.1496,-3.1496,-3.1496,-3.1496,-3.1496,-3.1496,-3.1496,-3.1496,-3.1496,-3.1496,-3.1496,-3.1496,-3.1496,-3.1496,-3.1496,-3.1496,-3.1496,-3.1496,-3.1496,-3.1511,-3.1525,-3.1511,-3.1496,-3.1496,-3.1496,-3.1496,-3.1496,-3.1496,-4.0764,-4.018,-4.1058,-4.091,-4.0221,-4.0679,-4.0583,-4.0154,-4.0113,-4.0113,-4.0171,-4.0417,-4.0703,-4.0874,-4.0655,-4.0744,-4.0827,-4.0036,-3.9233,-3.8447,-3.7374,-3.6451,-3.598,-3.6501,-3.6862,-3.6921,-3.7378,-3.7268,-3.6867,-3.6539,-3.629,-3.6084,-3.5769,-3.5752,-3.6113,-3.5701,-3.5414,-3.4979,-3.4692,-3.4252,-3.3897,-3.322,-3.2933,-3.278,-3.2242,-3.2087,-3.2357,-3.2036,-3.1955,-3.2242,-3.2408,-3.2174,-3.1537,-3.1259,-3.1094,-3.0844,-3.0345,-2.9883,-2.9384,-2.9427,-2.9407,-2.9261,-3.0373,-3.0559,-3.036,-3.1318,-3.1593,-3.1117,-3.0262,-2.9876,-2.9983,-2.9968,-3.0283,-3.0776,-3.0913,-3.0913,-3.0926,-3.1002,-3.1212,-3.1376,-3.1496,-3.1496,-3.1496,-3.1496,-3.1496,-3.1496,-3.1496,-3.1496,-3.1496,-3.1496,-3.1496,-3.1496,-3.1496,-3.1496,-3.1496,-3.1496,-3.1585,-3.1585,-3.163,-3.1615,-3.169,-3.169,-3.172,-3.172,-3.16,-3.157,-3.1705,-3.1705,-3.1511,-3.1496,-3.1496,-3.1496,-3.1511,-3.178,-3.1735,-4.0696,-4.0214,-4.1373,-4.1214,-4.0255,-4.0601,-4.0521,-4.0154,-4.0113,-4.0113,-4.0096,-4.0096,-4.0392,-4.078,-4.0368,-4.0385,-4.0814,-3.9817,-3.8807,-3.7787,-3.6614,-3.5684,-3.574,-3.6186,-3.6478,-3.6615,-3.6995,-3.7058,-3.6879,-3.6693,-3.6771,-3.6724,-3.618,-3.6146,-3.6383,-3.5977,-3.5633,-3.5453,-3.5149,-3.4802,-3.4376,-3.3495,-3.2917,-3.276,-3.1992,-3.1616,-3.1546,-3.1376,-3.1546,-3.2276,-3.159,-3.1269,-3.0672,-3.016,-2.9697,-2.9468,-2.9733,-2.942,-2.8966,-2.9367,-2.9532,-2.9512,-3.002,-3.0537,-3.0657,-3.1187,-3.1549,-3.148,-2.9917,-2.9888,-3.0372,-3.0552,-3.0733,-3.1212,-3.1436,-3.1481,-3.1391,-3.0957,-3.0823,-3.1391,-3.1496,-3.1496,-3.1496,-3.1496,-3.1496,-3.1496,-3.1496,-3.1496,-3.1496,-3.1496,-3.1496,-3.1496,-3.1496,-3.1496,-3.1496,-3.1496,-3.163,-3.172,-3.1809,-3.1869,-3.2079,-3.2108,-3.2108,-3.2093,-3.2183,-3.2198,-3.2198,-3.2049,-3.1765,-3.16,-3.1675,-3.16,-3.157,-3.2079,-3.2258,-4.0265,-4.0113,-4.0399,-4.0357,-4.0121,-4.0212,-4.0204,-4.0096,-4.0113,-4.0113,-4.0113,-4.0113,-4.0179,-4.0269,-4.0179,-4.0196,-4.0311,-3.9849,-3.9174,-3.777,-3.6309,-3.5667,-3.5711,-3.6135,-3.6371,-3.6634,-3.7552,-3.772,-3.7432,-3.7633,-3.7938,-3.7519,-3.684,-3.6626,-3.662,-3.6028,-3.5616,-3.5655,-3.5762,-3.5542,-3.5009,-3.4206,-3.3623,-3.3478,-3.2528,-3.2056,-3.1921,-3.1515,-3.1582,-3.1938,-3.1729,-3.155,-3.1984,-3.1055,-3.0598,-3.0798,-3.0088,-2.9562,-2.9442,-2.9487,-2.9385,-2.9222,-2.9976,-3.0507,-3.0622,-3.114,-3.1488,-3.1508,-3.1146,-3.0819,-3.1017,-3.0761,-3.0913,-3.1331,-3.1496,-3.1496,-3.1466,-3.1361,-3.1331,-3.1436,-3.1496,-3.1496,-3.1496,-3.1496,-3.1496,-3.1496,-3.1496,-3.1496,-3.1496,-3.1496,-3.1496,-3.1496,-3.1496,-3.1511,-3.1555,-3.1675,-3.1974,-3.2153,-3.2243,-3.2303,-3.2497,-3.2721,-3.2781,-3.2856,-3.2916,-3.2886,-3.2736,-3.2557,-3.2287,-3.2079,-3.1914,-3.1989,-3.2153,-3.2557,-3.2721,-4.0409,-4.0146,-4.0443,-4.0434,-4.013,-4.0113,-4.0113,-4.0113,-4.0113,-4.0113,-4.0113,-4.0113,-4.0113,-4.0113,-4.0113,-4.0113,-4.0011,-3.9706,-3.8971,-3.7838,-3.6705,-3.6214,-3.6068,-3.6093,-3.6169,-3.6607,-3.7185,-3.7521,-3.7791,-3.8031,-3.8069,-3.7862,-3.7168,-3.6795,-3.6694,-3.5994,-3.565,-3.5543,-3.5518,-3.5521,-3.5607,-3.4718,-3.3942,-3.3481,-3.2474,-3.1785,-3.1701,-3.143,-3.1816,-3.2206,-3.1665,-3.1421,-3.2181,-3.1318,-3.0938,-3.0826,-3.0676,-3.0026,-2.9998,-2.9774,-2.9729,-2.9909,-3.0398,-3.0897,-3.1326,-3.1816,-3.1955,-3.1882,-3.149,-3.1002,-3.1032,-3.1152,-3.1182,-3.1361,-3.1496,-3.1496,-3.1496,-3.1496,-3.1496,-3.1496,-3.1496,-3.1496,-3.1496,-3.1496,-3.1496,-3.1496,-3.1496,-3.1496,-3.1496,-3.1496,-3.1496,-3.1496,-3.1496,-3.1525,-3.16,-3.1869,-3.2392,-3.2691,-3.2961,-3.3006,-3.3125,-3.3335,-3.3514,-3.3559,-3.3559,-3.329,-3.3125,-3.2946,-3.2796,-3.2467,-3.2378,-3.2527,-3.2781,-3.311,-3.3155,-4.0646,-4.0163,-4.0781,-4.0663,-4.0146,-4.0113,-4.0113,-4.0113,-4.0113,-4.0113,-4.0113,-4.0113,-4.0113,-4.0113,-4.0113,-4.0113,-3.9935,-3.954,-3.8898,-3.8353,-3.7354,-3.6945,-3.6718,-3.6203,-3.6164,-3.6863,-3.7148,-3.7475,-3.796,-3.8075,-3.8265,-3.7956,-3.7178,-3.6863,-3.662,-3.6045,-3.5481,-3.5306,-3.5061,-3.5143,-3.5702,-3.4861,-3.4096,-3.3363,-3.2508,-3.1752,-3.1684,-3.1582,-3.2002,-3.3153,-3.1573,-3.1197,-3.1396,-3.091,-3.0311,-2.9901,-3.0385,-3.0537,-3.0402,-3.0208,-3.0402,-3.1345,-3.1061,-3.135,-3.2191,-3.2311,-3.2314,-3.2097,-3.1642,-3.0866,-3.0731,-3.1077,-3.1406,-3.1496,-3.1496,-3.1438,-3.1336,-3.1307,-3.1278,-3.1496,-3.1496,-3.1496,-3.1496,-3.1496,-3.1496,-3.1496,-3.1496,-3.1496,-3.1496,-3.1525,-3.1525,-3.1496,-3.1496,-3.178,-3.1899,-3.2392,-3.2901,-3.3335,-3.3649,-3.3769,-3.3858,-3.4173,-3.4367,-3.4218,-3.4113,-3.3888,-3.3724,-3.3634,-3.3395,-3.2976,-3.3021,-3.332,-3.3514,-3.3664,-3.3619,-4.0214,-4.0113,-4.0231,-4.0214,-4.0113,-4.0113,-4.0113,-4.0113,-4.0113,-4.0113,-4.0113,-4.0113,-4.0113,-4.0113,-4.0113,-4.0113,-4.0009,-3.9782,-3.96,-3.921,-3.8232,-3.7577,-3.7283,-3.6366,-3.6434,-3.7374,-3.7635,-3.7922,-3.8582,-3.8802,-3.8497,-3.8413,-3.7438,-3.6829,-3.6502,-3.6028,-3.5329,-3.5062,-3.4951,-3.5166,-3.5225,-3.4971,-3.4544,-3.396,-3.3188,-3.2618,-3.2209,-3.2158,-3.251,-3.3144,-3.2001,-3.2087,-3.2371,-3.1427,-3.0561,-3.0533,-3.0911,-3.1032,-3.0702,-3.0926,-3.0866,-3.0896,-3.0975,-3.1607,-3.2167,-3.2104,-3.2092,-3.2185,-3.1845,-3.1286,-3.1331,-3.1421,-3.1466,-3.1496,-3.1467,-3.1278,-3.0792,-3.0644,-3.0866,-3.1219,-3.138,-3.1409,-3.1278,-3.1278,-3.1351,-3.1409,-3.1496,-3.1496,-3.1496,-3.1555,-3.1615,-3.1555,-3.1496,-3.1884,-3.2258,-3.2946,-3.3544,-3.4053,-3.4382,-3.4592,-3.4756,-3.5115,-3.522,-3.4861,-3.4771,-3.4726,-3.4562,-3.4322,-3.3978,-3.3559,-3.3814,-3.4143,-3.4218,-3.4277,-3.4262,-4.0113,-4.0113,-4.0113,-4.0113,-4.0113,-4.0113,-4.0113,-4.0113,-4.0113,-4.0113,-4.0113,-4.0113,-4.0113,-4.0113,-4.0113,-4.0113,-4.0101,-4.0345,-4.036,-4.0111,-3.9279,-3.8469,-3.8044,-3.6824,-3.674,-3.7144,-3.7347,-3.7939,-3.8836,-3.8531,-3.8294,-3.7736,-3.7066,-3.6626,-3.6197,-3.5808,-3.5397,-3.5101,-3.4981,-3.5169,-3.5484,-3.5317,-3.4953,-3.4612,-3.3874,-3.3241,-3.2983,-3.2865,-3.322,-3.3496,-3.2357,-3.2248,-3.226,-3.1709,-3.0687,-3.0972,-3.1301,-3.1391,-3.0972,-3.1107,-3.0926,-3.1047,-3.1106,-3.1323,-3.1747,-3.1768,-3.1726,-3.1824,-3.1838,-3.1496,-3.1466,-3.1467,-3.1496,-3.1496,-3.1482,-3.1307,-3.0925,-3.0554,-3.0598,-3.0747,-3.0342,-3.0328,-3.0807,-3.0881,-3.1102,-3.1278,-3.1453,-3.1511,-3.1541,-3.172,-3.1869,-3.2108,-3.2198,-3.2721,-3.3125,-3.3604,-3.4128,-3.4622,-3.4921,-3.513,-3.5265,-3.5429,-3.5415,-3.5205,-3.5235,-3.525,-3.4981,-3.4592,-3.4367,-3.4201,-3.4483,-3.469,-3.4784,-3.4846,-3.4612,-4.0113,-4.0113,-4.0113,-4.0113,-4.0113,-4.0113,-4.0113,-4.0113,-4.0113,-4.0113,-4.0113,-4.0113,-4.0113,-4.0113,-4.0079,-4.0045,-4.0001,-4.05,-4.0793,-4.0593,-3.9953,-3.9321,-3.8647,-3.7538,-3.6831,-3.7161,-3.6637,-3.7347,-3.8311,-3.8007,-3.7364,-3.7009,-3.6745,-3.6282,-3.5718,-3.5633,-3.5566,-3.5194,-3.4878,-3.5147,-3.5718,-3.5639,-3.5188,-3.501,-3.3973,-3.3271,-3.2747,-3.3136,-3.3525,-3.3544,-3.2807,-3.2078,-3.2447,-3.1482,-3.0999,-3.1391,-3.1496,-3.1496,-3.1361,-3.1092,-3.1062,-3.1331,-3.0972,-3.112,-3.133,-3.1553,-3.1524,-3.1496,-3.1496,-3.1336,-3.1175,-3.1204,-3.1219,-3.1234,-3.1294,-3.1353,-3.1073,-3.0656,-3.0062,-2.9862,-2.924,-2.9477,-3.0182,-3.0656,-3.0893,-3.1141,-3.1336,-3.1723,-3.1812,-3.2153,-3.2392,-3.2811,-3.3155,-3.3694,-3.4083,-3.4352,-3.4756,-3.51,-3.525,-3.5355,-3.5415,-3.5489,-3.5415,-3.537,-3.54,-3.5355,-3.5115,-3.4916,-3.4684,-3.4631,-3.4976,-3.4952,-3.464,-3.438,-3.4118,-4.0113,-4.0113,-4.0096,-4.0113,-4.0096,-4.0054,-4.0054,-4.0062,-4.0045,-4.0113,-4.0011,-4.0113,-4.0113,-4.0079,-4.0045,-3.9706,-3.9693,-4.0236,-4.0732,-4.0555,-4.0081,-3.9626,-3.9059,-3.7328,-3.7062,-3.7102,-3.6282,-3.6721,-3.7449,-3.7195,-3.6914,-3.6603,-3.6129,-3.5701,-3.565,-3.5616,-3.525,-3.4759,-3.4573,-3.4853,-3.5359,-3.5391,-3.501,-3.4404,-3.3789,-3.3,-3.2357,-3.2895,-3.3571,-3.3379,-3.2833,-3.2759,-3.3121,-3.2161,-3.1563,-3.1481,-3.1496,-3.1496,-3.1481,-3.1346,-3.1271,-3.1466,-3.1331,-3.1421,-3.1466,-3.1496,-3.1496,-3.1496,-3.1496,-3.119,-3.0748,-3.0524,-3.0464,-3.0727,-3.1051,-3.1021,-3.0874,-3.1283,-3.0637,-2.9827,-2.9482,-2.9531,-2.989,-3.0344,-3.0703,-3.0967,-3.1228,-3.1596,-3.1944,-3.2151,-3.2931,-3.338,-3.3873,-3.4412,-3.4637,-3.4966,-3.5145,-3.5489,-3.5457,-3.5489,-3.5489,-3.5489,-3.5489,-3.5459,-3.5489,-3.5472,-3.5307,-3.5133,-3.493,-3.4633,-3.4384,-3.425,-3.4114,-3.3856,-3.3567,-4.0113,-4.0087,-3.9594,-3.9705,-3.9969,-3.9218,-3.9059,-3.9412,-3.9486,-3.9486,-3.9588,-3.996,-4.0113,-4.0011,-3.9723,-3.9571,-3.9661,-4.0098,-4.0415,-4.0669,-4.0459,-4.004,-3.8947,-3.8028,-3.7708,-3.6537,-3.6056,-3.587,-3.6377,-3.64,-3.6129,-3.6096,-3.5802,-3.5633,-3.5616,-3.5616,-3.543,-3.5211,-3.5148,-3.5263,-3.5403,-3.5399,-3.5095,-3.4394,-3.4075,-3.3326,-3.2899,-3.3372,-3.3535,-3.3128,-3.261,-3.2478,-3.2285,-3.1567,-3.1032,-3.1496,-3.1496,-3.1496,-3.1496,-3.1496,-3.1496,-3.1496,-3.1496,-3.1481,-3.1496,-3.1496,-3.1496,-3.1496,-3.1496,-3.1087,-3.0494,-3.0343,-3.0529,-3.076,-3.0939,-3.1635,-3.1694,-3.1601,-3.1425,-3.0563,-2.9849,-2.9991,-3.0038,-3.0105,-3.0487,-3.0718,-3.0802,-3.0977,-3.136,-3.1702,-3.2746,-3.4008,-3.4517,-3.507,-3.5145,-3.531,-3.5295,-3.5489,-3.5439,-3.5439,-3.5489,-3.5489,-3.5213,-3.5279,-3.5439,-3.5439,-3.5407,-3.4986,-3.448,-3.4013,-3.3553,-3.338,-3.3206,-3.3171,-3.2961,-3.9581,-3.9547,-3.91,-3.9163,-3.9412,-3.8268,-3.8284,-3.8963,-3.9022,-3.9148,-3.9385,-3.9842,-4.0011,-3.9825,-3.9462,-3.9436,-3.9477,-3.975,-3.9763,-4.0135,-4.0324,-3.9725,-3.8582,-3.7947,-3.7227,-3.5876,-3.5769,-3.5718,-3.5667,-3.565,-3.5684,-3.5616,-3.565,-3.5616,-3.5616,-3.5616,-3.5532,-3.5532,-3.5515,-3.5458,-3.5294,-3.5277,-3.4718,-3.4189,-3.388,-3.3694,-3.3339,-3.3761,-3.3487,-3.3112,-3.291,-3.2714,-3.2115,-3.1475,-3.1149,-3.1436,-3.1496,-3.1496,-3.1496,-3.1496,-3.1496,-3.1496,-3.1496,-3.1496,-3.1496,-3.1496,-3.1496,-3.1496,-3.1496,-3.097,-3.0312,-3.0048,-3.0313,-3.0611,-3.0927,-3.2101,-3.2982,-3.2744,-3.235,-3.1574,-3.0968,-3.0686,-3.0586,-3.0171,-3.0197,-3.045,-3.048,-3.0453,-3.1004,-3.1593,-3.2858,-3.429,-3.4827,-3.526,-3.532,-3.5394,-3.5457,-3.5279,-3.5213,-3.51,-3.4953,-3.4658,-3.4274,-3.4558,-3.4935,-3.4887,-3.4591,-3.4259,-3.3891,-3.338,-3.2841,-3.2451,-3.2236,-3.2236,-3.2069,-3.8143,-3.8193,-3.8655,-3.8523,-3.7989,-3.786,-3.8208,-3.8886,-3.8937,-3.9317,-3.9774,-4.0011,-3.9673,-3.936,-3.9486,-3.9131,-3.8244,-3.9485,-3.902,-3.8481,-3.8365,-3.8417,-3.7717,-3.7143,-3.6762,-3.6424,-3.5921,-3.5633,-3.5667,-3.5825,-3.5701,-3.5616,-3.5701,-3.565,-3.5633,-3.5684,-3.5616,-3.5583,-3.5515,-3.5143,-3.481,-3.4489,-3.3931,-3.2886,-3.2513,-3.2429,-3.2429,-3.3107,-3.3426,-3.3152,-3.3192,-3.2923,-3.2179,-3.1607,-3.139,-3.1451,-3.1496,-3.1496,-3.1496,-3.1496,-3.1496,-3.1496,-3.1496,-3.1496,-3.1496,-3.1496,-3.1496,-3.1496,-3.1496,-3.0851,-3.0026,-2.954,-3.0263,-3.0944,-3.1589,-3.2466,-3.3362,-3.3704,-3.3252,-3.2597,-3.2137,-3.1841,-3.12,-3.0774,-3.0129,-3.0273,-3.009,-3.0038,-3.1364,-3.2157,-3.3321,-3.4449,-3.499,-3.5282,-3.5264,-3.5213,-3.4953,-3.4591,-3.4341,-3.4225,-3.4061,-3.3739,-3.3478,-3.3394,-3.365,-3.3719,-3.3739,-3.338,-3.3031,-3.2593,-3.2164,-3.1742,-3.1402,-3.1304,-3.0921,-3.8493,-3.7335,-3.7964,-3.7811,-3.7185,-3.7151,-3.7597,-3.8248,-3.8345,-3.8717,-3.9428,-3.9436,-3.9537,-3.9478,-3.8836,-3.8768,-3.8464,-3.8031,-3.782,-3.7939,-3.8114,-3.7854,-3.7247,-3.6882,-3.6836,-3.6226,-3.5769,-3.596,-3.6315,-3.6248,-3.6688,-3.6688,-3.6073,-3.6062,-3.6062,-3.5842,-3.5633,-3.5447,-3.5177,-3.4726,-3.4523,-3.3964,-3.3339,-3.2446,-3.2293,-3.2293,-3.235,-3.2598,-3.279,-3.2924,-3.3003,-3.2615,-3.216,-3.1671,-3.1523,-3.1496,-3.1496,-3.1496,-3.1496,-3.1496,-3.1496,-3.1496,-3.1496,-3.1496,-3.1496,-3.1496,-3.1496,-3.1496,-3.154,-3.1013,-3.0707,-3.0608,-3.1016,-3.1681,-3.2381,-3.3079,-3.3721,-3.4211,-3.4379,-3.3777,-3.3374,-3.3035,-3.2223,-3.1399,-3.0686,-3.011,-2.9852,-2.9915,-3.1177,-3.2069,-3.2972,-3.3767,-3.4273,-3.4279,-3.4206,-3.4274,-3.4327,-3.3973,-3.3498,-3.3276,-3.3122,-3.3101,-3.2855,-3.2629,-3.2451,-3.2749,-3.2784,-3.2522,-3.2307,-3.2177,-3.1719,-3.1106,-3.0771,-3.0495,-3.0177,-3.8437,-3.6897,-3.7042,-3.6783,-3.6186,-3.6308,-3.6845,-3.7499,-3.7567,-3.8159,-3.8971,-3.9022,-3.9259,-3.9377,-3.914,-3.8244,-3.8227,-3.7835,-3.7331,-3.7312,-3.7416,-3.7236,-3.675,-3.6496,-3.6493,-3.5955,-3.6028,-3.6366,-3.7077,-3.6891,-3.733,-3.7381,-3.6597,-3.6248,-3.64,-3.6045,-3.5616,-3.543,-3.4928,-3.432,-3.4134,-3.3423,-3.2713,-3.2124,-3.2124,-3.2293,-3.2437,-3.2662,-3.2722,-3.2668,-3.2542,-3.2245,-3.1852,-3.152,-3.1493,-3.1496,-3.1496,-3.1496,-3.1496,-3.1496,-3.1496,-3.1496,-3.1496,-3.1496,-3.1496,-3.1496,-3.1496,-3.1525,-3.1616,-3.1649,-3.142,-3.1455,-3.1929,-3.26,-3.27,-3.3307,-3.4307,-3.4921,-3.51,-3.4996,-3.4603,-3.4071,-3.2891,-3.1942,-3.0755,-3.0164,-2.9859,-2.9969,-3.0831,-3.1474,-3.1724,-3.2513,-3.3169,-3.3031,-3.2855,-3.3185,-3.3463,-3.3171,-3.2735,-3.2343,-3.2164,-3.2141,-3.1865,-3.1378,-3.1365,-3.1829,-3.1924,-3.1815,-3.1888,-3.1997,-3.1291,-3.0482,-3.0343,-3.0113,-2.9998,-3.7612,-3.6732,-3.613,-3.5417,-3.5003,-3.5393,-3.6173,-3.7003,-3.6981,-3.7675,-3.8768,-3.8853,-3.8937,-3.9106,-3.9216,-3.842,-3.7557,-3.7939,-3.7587,-3.6418,-3.6605,-3.6288,-3.6,-3.5864,-3.6254,-3.6683,-3.6711,-3.6941,-3.7753,-3.7246,-3.7736,-3.7838,-3.6874,-3.6045,-3.666,-3.6011,-3.5633,-3.5498,-3.4861,-3.4235,-3.3677,-3.2949,-3.2175,-3.2073,-3.2073,-3.2293,-3.2622,-3.3018,-3.3057,-3.2802,-3.2615,-3.2302,-3.1804,-3.1578,-3.1511,-3.1496,-3.1496,-3.1496,-3.1496,-3.1511,-3.1555,-3.1511,-3.1496,-3.1496,-3.1496,-3.1496,-3.16,-3.1705,-3.2034,-3.2019,-3.2045,-3.2295,-3.2956,-3.3441,-3.3543,-3.3806,-3.4842,-3.5265,-3.537,-3.5444,-3.5362,-3.4986,-3.3685,-3.2393,-3.097,-3.019,-2.9921,-3.0114,-3.0652,-3.0823,-3.0956,-3.1372,-3.2068,-3.2051,-3.1974,-3.2357,-3.2522,-3.2272,-3.1924,-3.1439,-3.1044,-3.0884,-3.0533,-3.0139,-3.0394,-3.0884,-3.1095,-3.118,-3.1193,-3.1132,-3.057,-2.9972,-2.9818,-2.9779,-2.9779,-3.7936,-3.6777,-3.6522,-3.6001,-3.5469,-3.6055,-3.6787,-3.7344,-3.7134,-3.7371,-3.8007,-3.7787,-3.8159,-3.8565,-3.8193,-3.7591,-3.7049,-3.6315,-3.5887,-3.5819,-3.5977,-3.5859,-3.5667,-3.5769,-3.6113,-3.6626,-3.688,-3.728,-3.7872,-3.7533,-3.7669,-3.7753,-3.7009,-3.6349,-3.6045,-3.5667,-3.5616,-3.5464,-3.4912,-3.4336,-3.3998,-3.3017,-3.2391,-3.2506,-3.2439,-3.2601,-3.2972,-3.3383,-3.3299,-3.3003,-3.2812,-3.2367,-3.2007,-3.1824,-3.1496,-3.1496,-3.1496,-3.1496,-3.163,-3.178,-3.1914,-3.1705,-3.1555,-3.157,-3.1511,-3.1496,-3.1705,-3.2049,-3.2392,-3.2659,-3.3458,-3.3676,-3.4182,-3.47,-3.4896,-3.491,-3.5397,-3.5385,-3.5415,-3.5459,-3.5424,-3.4476,-3.3325,-3.2464,-3.123,-3.0241,-2.9856,-2.9779,-3.0177,-3.0177,-3.019,-3.0518,-3.0919,-3.097,-3.1119,-3.1439,-3.1402,-3.1044,-3.0771,-3.0394,-3.0037,-2.996,-2.996,-2.996,-2.9934,-2.9946,-3.0279,-3.052,-3.0317,-3.0075,-2.9895,-2.9792,-2.9792,-2.9779,-2.9779,-3.7924,-3.6869,-3.708,-3.6932,-3.6463,-3.6397,-3.6757,-3.729,-3.6772,-3.6941,-3.7601,-3.7161,-3.7269,-3.7794,-3.7567,-3.6654,-3.6434,-3.6248,-3.5718,-3.5684,-3.5616,-3.5842,-3.5977,-3.6096,-3.6806,-3.7235,-3.7591,-3.7905,-3.8311,-3.8041,-3.7584,-3.7094,-3.6914,-3.6332,-3.5893,-3.5633,-3.56,-3.5397,-3.4928,-3.4324,-3.3871,-3.3299,-3.2791,-3.2925,-3.3043,-3.3241,-3.3389,-3.347,-3.3421,-3.3166,-3.2728,-3.2284,-3.2064,-3.1853,-3.1496,-3.1496,-3.1496,-3.1615,-3.1929,-3.1809,-3.1914,-3.1944,-3.1839,-3.1839,-3.1765,-3.166,-3.1914,-3.2258,-3.2677,-3.3425,-3.4218,-3.4518,-3.4966,-3.5442,-3.5457,-3.5457,-3.5457,-3.5444,-3.5429,-3.5489,-3.5344,-3.4225,-3.3031,-3.2285,-3.1402,-3.0558,-2.9779,-2.9779,-2.9779,-2.9779,-2.9779,-3.0024,-3.0241,-3.0355,-3.0419,-3.0495,-3.0317,-2.9856,-2.9792,-2.9804,-2.983,-2.9856,-2.9818,-2.9779,-2.983,-2.983,-2.9818,-2.9856,-2.9934,-2.9934,-2.9818,-2.9779,-2.9779,-2.9779,-2.9779,-3.7449,-3.6965,-3.7584,-3.7797,-3.7628,-3.6544,-3.6377,-3.6789,-3.6062,-3.6563,-3.7821,-3.7043,-3.6863,-3.6998,-3.7432,-3.6821,-3.5857,-3.6201,-3.5925,-3.5689,-3.557,-3.6032,-3.6512,-3.6829,-3.7523,-3.8396,-3.8785,-3.8531,-3.8853,-3.8007,-3.7009,-3.6309,-3.6468,-3.6113,-3.5791,-3.547,-3.5447,-3.5183,-3.4858,-3.4251,-3.371,-3.3445,-3.3173,-3.3301,-3.3634,-3.3809,-3.3845,-3.3693,-3.3288,-3.2735,-3.2044,-3.1719,-3.1553,-3.1496,-3.1496,-3.1496,-3.1496,-3.1809,-3.2079,-3.1854,-3.2079,-3.2303,-3.2512,-3.2527,-3.2228,-3.1884,-3.2183,-3.2691,-3.3185,-3.3814,-3.4474,-3.4906,-3.537,-3.5489,-3.5489,-3.5489,-3.5489,-3.5489,-3.5489,-3.5489,-3.5489,-3.4624,-3.3101,-3.2213,-3.1646,-3.0495,-2.9779,-2.9779,-2.9779,-2.9779,-2.9779,-2.9779,-2.9921,-2.9856,-2.9895,-3.0037,-3.0188,-3.003,-2.9842,-2.9804,-2.9792,-2.9829,-2.9779,-2.9779,-2.9779,-2.9779,-2.9779,-2.9779,-2.9818,-2.9792,-2.988,-2.9854,-2.988,-2.9804,-2.9779,-3.6975,-3.6829,-3.7009,-3.7415,-3.7889,-3.7973,-3.7872,-3.7499,-3.6806,-3.7026,-3.7814,-3.6535,-3.6282,-3.6778,-3.6411,-3.5742,-3.5325,-3.506,-3.506,-3.5117,-3.5431,-3.6125,-3.6717,-3.7297,-3.8108,-3.865,-3.8954,-3.8903,-3.8623,-3.7828,-3.7066,-3.6626,-3.6146,-3.5842,-3.5548,-3.5138,-3.5005,-3.4828,-3.4579,-3.4094,-3.3673,-3.3461,-3.3475,-3.3892,-3.4125,-3.4292,-3.4336,-3.4166,-3.3636,-3.2723,-3.2435,-3.212,-3.1496,-3.1496,-3.1496,-3.1496,-3.1511,-3.1615,-3.1869,-3.2497,-3.2841,-3.2751,-3.2946,-3.2542,-3.2213,-3.2138,-3.2452,-3.3036,-3.3664,-3.4309,-3.4786,-3.525,-3.5392,-3.5246,-3.5311,-3.5392,-3.5424,-3.5424,-3.5424,-3.5489,-3.5489,-3.4624,-3.3136,-3.2522,-3.1888,-3.052,-2.9779,-2.9779,-2.9779,-2.9779,-2.9779,-2.9779,-2.9779,-2.9779,-2.9779,-2.9895,-3.0146,-3.0244,-3.0005,-2.9917,-3.0143,-3.0131,-2.9892,-2.9892,-3.008,-2.998,-2.9779,-2.988,-3.0131,-3.0043,-3.008,-3.0018,-2.9967,-3.003,-2.9955,-3.6524,-3.6829,-3.7134,-3.7643,-3.8263,-3.8514,-3.817,-3.7469,-3.6982,-3.71,-3.728,-3.6157,-3.5853,-3.6163,-3.583,-3.5287,-3.4697,-3.4697,-3.456,-3.4472,-3.521,-3.5801,-3.6532,-3.7381,-3.8017,-3.8514,-3.8717,-3.8616,-3.8132,-3.7127,-3.6265,-3.6197,-3.5735,-3.5667,-3.5447,-3.5005,-3.4479,-3.4309,-3.4079,-3.3802,-3.3533,-3.3392,-3.3843,-3.4145,-3.433,-3.4655,-3.4818,-3.4648,-3.3735,-3.2906,-3.2707,-3.2175,-3.1794,-3.1899,-3.166,-3.163,-3.1496,-3.1899,-3.2378,-3.2706,-3.3066,-3.326,-3.335,-3.3051,-3.2706,-3.2542,-3.2901,-3.335,-3.4038,-3.4698,-3.5115,-3.5457,-3.518,-3.492,-3.51,-3.5279,-3.5326,-3.5326,-3.5392,-3.5457,-3.5019,-3.4308,-3.3547,-3.2975,-3.2033,-3.0558,-2.9779,-2.9779,-2.9779,-2.9779,-2.9779,-2.9779,-2.9779,-2.9779,-2.9792,-2.9829,-3.0055,-3.0168,-2.9955,-2.9993,-3.0369,-3.052,-3.0369,-3.0407,-3.052,-3.0419,-3.0369,-3.047,-3.062,-3.0532,-3.0545,-3.0658,-3.0683,-3.0683,-3.0532,-3.6045,-3.6745,-3.7499,-3.7953,-3.8502,-3.8038,-3.7365,-3.6623,-3.6464,-3.6656,-3.6538,-3.5938,-3.5633,-3.5752,-3.5616,-3.5098,-3.4568,-3.4333,-3.4012,-3.363,-3.4868,-3.5588,-3.6198,-3.7114,-3.7867,-3.8193,-3.8294,-3.8278,-3.7127,-3.6451,-3.6096,-3.5684,-3.5616,-3.5616,-3.5509,-3.4918,-3.4358,-3.3836,-3.3556,-3.3209,-3.2906,-3.3061,-3.3572,-3.3761,-3.426,-3.4807,-3.5028,-3.456,-3.3582,-3.313,-3.2539,-3.194,-3.2063,-3.2348,-3.2049,-3.172,-3.1511,-3.1914,-3.2378,-3.2677,-3.3051,-3.3395,-3.3784,-3.335,-3.2931,-3.308,-3.3484,-3.3799,-3.4474,-3.4906,-3.534,-3.507,-3.4758,-3.4476,-3.4409,-3.4327,-3.4143,-3.4375,-3.4773,-3.4979,-3.5204,-3.4437,-3.3494,-3.2866,-3.2253,-3.0637,-2.9792,-2.9792,-2.9817,-2.9817,-2.9854,-2.9867,-2.9993,-2.9993,-2.9854,-2.9917,-3.0043,-3.0043,-3.0005,-3.0394,-3.1009,-3.1022,-3.0871,-3.0884,-3.0922,-3.111,-3.116,-3.111,-3.1072,-3.1135,-3.1198,-3.1373,-3.1424,-3.1411,-3.1148,-3.5701,-3.5938,-3.6721,-3.6862,-3.6551,-3.6898,-3.599,-3.4406,-3.4946,-3.5447,-3.5833,-3.5685,-3.5554,-3.5447,-3.5492,-3.4958,-3.4028,-3.3912,-3.3427,-3.3456,-3.4292,-3.5036,-3.5778,-3.6745,-3.7569,-3.7956,-3.8007,-3.7872,-3.7347,-3.6789,-3.64,-3.6332,-3.5977,-3.56,-3.5476,-3.4858,-3.4284,-3.3735,-3.3119,-3.2637,-3.2201,-3.2559,-3.3013,-3.3547,-3.4202,-3.4752,-3.484,-3.4301,-3.3761,-3.3365,-3.2201,-3.173,-3.172,-3.2228,-3.2123,-3.166,-3.154,-3.1824,-3.2153,-3.2482,-3.2826,-3.2841,-3.2991,-3.3006,-3.3155,-3.3679,-3.4083,-3.4382,-3.4726,-3.516,-3.5285,-3.4843,-3.4312,-3.3993,-3.3739,-3.3415,-3.3087,-3.3602,-3.4158,-3.4641,-3.5093,-3.445,-3.3467,-3.2781,-3.2142,-3.1239,-3.0214,-2.9829,-2.9905,-2.9942,-3.003,-3.0093,-3.0331,-3.0331,-3.0156,-3.0193,-3.0432,-3.0557,-3.0595,-3.1072,-3.1625,-3.1612,-3.1512,-3.1336,-3.1336,-3.1599,-3.1675,-3.1411,-3.1411,-3.165,-3.1813,-3.1989,-3.2152,-3.2177,-3.1825,-3.5785,-3.6214,-3.6958,-3.6663,-3.5841,-3.5837,-3.477,-3.338,-3.3572,-3.398,-3.4365,-3.4571,-3.4728,-3.4823,-3.4981,-3.4447,-3.3443,-3.3521,-3.2917,-3.28,-3.3427,-3.3985,-3.4978,-3.5884,-3.6091,-3.646,-3.6824,-3.6891,-3.7144,-3.662,-3.6079,-3.591,-3.5504,-3.5442,-3.5211,-3.4708,-3.4439,-3.4021,-3.313,-3.2477,-3.1923,-3.2216,-3.2516,-3.3103,-3.3614,-3.4178,-3.4153,-3.3758,-3.3519,-3.3548,-3.3086,-3.2751,-3.2736,-3.2856,-3.2617,-3.2079,-3.1765,-3.163,-3.1974,-3.2348,-3.2766,-3.2931,-3.3604,-3.4188,-3.4307,-3.4741,-3.4517,-3.4786,-3.504,-3.5444,-3.5427,-3.51,-3.4143,-3.3533,-3.3705,-3.3705,-3.3553,-3.3774,-3.4272,-3.4764,-3.4651,-3.3665,-3.2867,-3.2471,-3.1857,-3.1177,-3.0245,-3.0319,-3.0319,-3.0256,-3.0294,-3.0407,-3.0708,-3.0859,-3.0809,-3.0859,-3.0997,-3.1097,-3.116,-3.1499,-3.1888,-3.2102,-3.2164,-3.2093,-3.2093,-3.224,-3.2215,-3.1989,-3.2102,-3.2432,-3.2503,-3.2604,-3.2729,-3.2792,-3.2491,-3.5994,-3.6705,-3.7297,-3.6796,-3.5556,-3.4861,-3.3811,-3.2681,-3.2492,-3.248,-3.2648,-3.3135,-3.3365,-3.3811,-3.4087,-3.3427,-3.3066,-3.3172,-3.2544,-3.2242,-3.2977,-3.3283,-3.3549,-3.4048,-3.4567,-3.4903,-3.5171,-3.5767,-3.6304,-3.574,-3.5233,-3.4776,-3.4945,-3.5245,-3.4757,-3.467,-3.4671,-3.4309,-3.3659,-3.3002,-3.2504,-3.2035,-3.2272,-3.2492,-3.2749,-3.3024,-3.3235,-3.3228,-3.3134,-3.3449,-3.3893,-3.3682,-3.3529,-3.3425,-3.2991,-3.2557,-3.2004,-3.1974,-3.2213,-3.2721,-3.332,-3.3978,-3.4936,-3.5325,-3.5295,-3.525,-3.5026,-3.51,-3.537,-3.5474,-3.5457,-3.5067,-3.4041,-3.3115,-3.338,-3.3656,-3.3656,-3.3742,-3.4184,-3.4696,-3.4217,-3.3264,-3.26,-3.2181,-3.1669,-3.0976,-3.0746,-3.0947,-3.1035,-3.0922,-3.0871,-3.1022,-3.126,-3.1373,-3.1323,-3.1474,-3.1562,-3.1562,-3.1637,-3.1888,-3.2152,-3.2441,-3.2692,-3.2898,-3.2935,-3.2792,-3.2872,-3.2759,-3.2948,-3.2973,-3.2948,-3.2867,-3.2905,-3.3011,-3.3061,-3.5684,-3.5836,-3.5988,-3.5549,-3.4767,-3.4127,-3.3335,-3.2552,-3.1957,-3.1682,-3.1824,-3.1894,-3.2434,-3.3582,-3.3684,-3.3287,-3.2815,-3.2933,-3.2394,-3.1814,-3.2557,-3.2655,-3.2861,-3.3398,-3.3678,-3.3834,-3.3968,-3.4341,-3.5245,-3.498,-3.4692,-3.4573,-3.525,-3.5245,-3.4737,-3.4813,-3.5098,-3.4688,-3.4358,-3.3836,-3.3261,-3.2853,-3.252,-3.2776,-3.3145,-3.3391,-3.3503,-3.3412,-3.3401,-3.3677,-3.4091,-3.4117,-3.4038,-3.3933,-3.3529,-3.2871,-3.2318,-3.2004,-3.2228,-3.2677,-3.3215,-3.3365,-3.4143,-3.4921,-3.504,-3.5325,-3.522,-3.531,-3.5489,-3.5489,-3.5392,-3.4806,-3.3925,-3.2763,-3.2478,-3.2678,-3.282,-3.311,-3.3517,-3.4273,-3.4715,-3.3634,-3.2606,-3.228,-3.2006,-3.1371,-3.0871,-3.106,-3.1286,-3.1348,-3.1436,-3.1637,-3.1838,-3.1625,-3.1486,-3.1938,-3.2077,-3.2064,-3.2102,-3.2328,-3.2579,-3.2855,-3.3068,-3.3124,-3.3124,-3.3036,-3.3111,-3.3124,-3.3111,-3.3061,-3.3086,-3.3086,-3.3124,-3.3124,-3.3124]},{"header":{"parameterUnit":"m.s-1","parameterCategory":1,"la1":31.0,"la2":29.5877,"lo1":-88.7671,"lo2":-86.6584,"dy":0.0162,"dx":0.0185,"nx":115,"ny":88,"refTime":"2024-04-22T18:00:00:Z","depth":0,"parameterNumber":3,"parameterNumberName":"V-component_of_WINDS"},"data":[0.0,0.0,0.0,0.0,0.0,0.0,0.0,0.0,0.0,0.0,0.0,0.0,0.0,0.0,0.0,0.0,0.0,0.0,0.0,0.0,0.0,0.0,0.0,0.0,0.0,0.0,0.0,0.0,0.0,0.0,0.0,0.0,0.0,0.0,0.0,0.0,0.0,0.0,0.0,0.0,0.0,0.0,0.0,0.0,0.0,0.0,0.0,0.0,0.0,0.0,0.0,0.0,0.0,0.0,0.0,0.0,0.0,0.0,0.0,0.0,0.0,0.0,0.0,0.0,0.0,0.0,0.0,0.0,0.0,0.0,0.0,0.0,0.0,0.0,0.0,0.0,0.0,0.0,0.0,0.0,0.0,0.0,0.0,0.0,0.0,0.0,0.0,0.0,0.0,0.0,0.0,0.0,0.0,0.0,0.0,0.0,0.0,0.0,0.0,0.0,0.0,0.0,0.0,0.0,0.0,0.0,0.0,0.0,0.0,0.0,0.0,0.0,0.0,0.0,0.0,0.0,0.0,0.0,0.0,0.0,0.0,0.0,0.0,0.0,0.0,0.0,0.0,0.0,0.0,0.0,0.0,0.0,0.0,0.0,0.0,0.0,0.0,0.0,0.0,0.0,0.0,0.0,0.0,0.0,0.0,0.0,0.0,0.0,0.0,0.0,0.0,0.0,0.0,0.0,0.0,0.0,0.0,0.0,0.0,0.0,0.0,0.0,0.0,0.0,0.0,0.0,0.0,0.0,0.0,0.0,0.0,0.0,0.0,0.0,0.0,0.0,0.0,0.0,0.0,0.0,0.0,0.0,0.0,0.0,0.0,0.0,0.0,0.0,0.0,0.0,0.0,0.0,0.0,0.0,0.0,0.0,0.0,0.0,0.0,0.0,0.0,0.0,0.0,0.0,0.0,0.0,0.0,0.0,0.0,0.0,0.0,0.0,0.0,0.0,0.0,0.0,0.0,0.0,0.0,0.0,0.0,0.0,0.0,0.0,0.0,0.0,0.0,0.0,0.0,0.0,0.0,0.0,0.0,0.0,0.0,0.0,0.0,0.0,0.0,0.0,0.0,0.0,0.0,0.0,0.0,0.0,0.0,0.0,0.0,0.0,0.0,0.0,0.0,0.0,0.0,0.0,0.0,0.0,0.0,0.0,0.0,0.0,0.0,0.0,0.0,0.0,0.0,0.0,0.0,0.0,0.0,0.0,0.0,0.0,0.0,0.0,0.0,0.0,0.0,0.0,0.0,0.0,0.0,0.0,0.0,0.0,0.0,0.0,0.0,0.0,0.0,0.0,0.0,0.0,0.0,0.0,0.0,0.0,0.0,0.0,0.0,0.0,0.0,0.0,0.0,0.0,0.0,0.0,0.0,0.0,0.0,0.0,0.0,0.0,0.0,0.0,0.0,0.0,0.0,0.0,0.0,0.0,0.0,0.0,0.0,0.0,0.0,0.0,0.0,0.0,0.0,0.0,0.0,0.0,0.0,0.0,0.0,0.0,0.0,0.0,0.0,0.0,0.0,0.0,0.0,0.0,0.0,0.0,0.0,0.0,0.0,0.0,0.0,0.0,0.0,0.0,0.0,0.0,0.0,0.0,0.0,0.0,0.0,0.0,0.0,0.0,0.0,0.0,0.0,0.0,0.0,0.0,0.0,0.0,0.0,0.0,0.0,0.0,0.0,0.0,0.0,0.0,0.0,0.0,0.0,0.0,0.0,0.0,0.0,0.0,0.0,0.0,0.0,0.0,0.0,0.0,0.0,0.0,0.0,0.0,0.0,0.0,0.0,0.0,0.0,0.0,0.0,0.0,0.0,0.0,0.0,0.0,0.0,0.0,0.0,0.0,0.0,0.0,0.0,0.0,0.0,0.0,0.0,0.0,0.0,0.0,0.0,0.0,0.0,0.0,0.0,0.0,0.0,0.0,0.0,0.0,0.0,0.0,0.0,0.0,0.0,0.0,0.0,0.0,0.0,0.0,0.0,0.0,0.0,0.0,0.0,0.0,0.0,0.0,0.0,0.0,0.0,0.0,0.0,0.0,0.0,0.0,0.0,0.0,0.0,0.0,0.0,0.0,0.0,0.0,0.0,0.0,0.0,0.0,0.0,0.0,0.0,0.0,0.0,0.0,0.0,0.0,0.0,0.0,0.0,0.0,0.0,0.0,0.0,0.0,0.0,0.0,0.0,0.0,0.0,0.0,0.0,0.0,0.0,0.0,0.0,0.0,0.0,0.0,0.0,0.0,0.0,0.0,0.0,0.0,0.0,0.0,0.0,0.0,0.0,0.0,0.0,0.0,0.0,0.0,0.0,0.0,0.0,0.0,0.0,0.0,0.0,0.0,0.0,0.0,0.0,0.0,0.0,0.0,0.0,0.0,0.0,0.0,0.0,0.0,0.0,0.0,0.0,0.0,0.0,0.0,0.0,0.0,0.0,0.0,0.0,0.0,0.0,0.0,0.0,0.0,0.0,0.0,0.0,0.0,0.0,0.0,0.0,0.0,0.0,0.0,0.0,0.0,0.0,0.0,0.0,0.0,0.0,0.0,0.0,0.0,0.0,0.0,0.0,0.0,0.0,0.0,0.0,0.0,0.0,0.0,0.0,0.0,0.0,0.0,0.0,0.0,0.0,0.0,0.0,0.0,0.0,0.0,0.0,0.0,0.0,0.0,0.0,0.0,0.0,0.0,0.0,0.0,0.0,0.0,0.0,0.0,0.0,0.0,0.0,0.0,0.0,0.0,0.0,0.0,0.0,0.0,0.0,0.0,0.0,0.0,0.0,0.0,0.0,0.0,0.0,0.0,0.0,0.0,0.0,0.0,0.0,0.0,0.0,0.0,0.0,0.0,0.0,0.0,0.0,0.0,0.0,0.0,0.0,0.0,0.0,0.0,0.0,0.0,0.0,0.0,0.0,0.0,0.0,0.0,0.0,0.0,0.0,0.0,0.0,0.0,0.0,0.0,0.0,0.0,0.0,0.0,0.0,0.0,0.0,0.0,0.0,0.0,0.0,0.0,0.0,0.0,0.0,0.0,0.0,0.0,0.0,0.0,0.0,0.0,0.0,0.0,0.0,0.0,0.0,0.0,0.0,0.0,0.0,0.0,0.0,0.0,0.0,0.0,0.0,0.0,0.0,0.0,0.0,0.0,0.0,0.0,0.0,0.0,0.0,0.0,0.0,0.0,0.0,0.0,0.0,0.0,0.0,0.0,0.0,0.0,0.0,0.0,0.0,0.0,0.0,0.0,0.0,0.0,0.0,0.0,0.0,0.0,0.0,0.0,0.0,0.0,0.0,0.0,0.0,0.0,0.0,0.0,0.0,0.0,0.0,0.0,0.0,0.0,0.0,0.0,0.0,0.0,0.0,0.0,0.0,0.0,0.0,0.0,0.0,0.0,0.0,0.0,0.0,0.0,0.0,0.0,0.0,0.0,0.0,0.0,0.0,0.0,0.0,0.0,0.0,0.0,0.0,0.0,0.0,0.0,0.0,0.0,0.0,0.0,0.0,0.0,0.0,0.0,0.0,0.0,0.0,0.0,0.0,0.0,0.0,0.0,0.0,0.0,0.0,0.0,0.0,0.0,0.0,0.0,0.0,0.0,0.0,0.0,0.0,0.0,0.0,0.0,0.0,0.0,0.0,0.0,0.0,0.0,0.0,0.0,0.0,0.0,0.0,0.0,0.0,0.0,0.0,0.0,0.0,0.0,0.0,0.0,0.0,0.0,0.0,0.0,0.0,0.0,0.0,0.0,0.0,0.0,0.0,0.0,0.0,0.0,0.0,0.0,0.0,0.0,0.0,0.0,0.0,0.0,0.0,0.0,0.0,0.0,0.0,0.0,0.0,0.0,0.0,0.0,0.0,0.0,0.0,0.0,0.0,0.0,0.0,0.0,0.0,0.0,0.0,0.0,0.0,0.0,0.0,0.0,0.0,0.0,0.0,0.0,0.0,0.0,0.0,0.0,0.0,0.0,0.0,0.0,0.0,0.0,0.0,0.0,0.0,0.0,0.0,0.0,0.0,0.0,0.0,0.0,0.0,0.0,0.0,0.0,0.0,0.0,0.0,0.0,0.0,0.0,0.0,0.0,0.0,0.0,0.0,0.0,0.0,0.0,0.0,0.0,0.0,0.0,0.0,0.0,0.0,0.0,0.0,0.0,0.0,0.0,0.0,0.0,0.0,0.0,0.0,0.0,0.0,0.0,0.0,0.0,0.0,0.0,0.0,0.0,0.0,0.0,0.0,0.0,0.0,0.0,0.0,0.0,0.0,0.0,0.0,0.0,-0.8399,0.0,0.0,0.0,0.0,0.0,0.0,0.0,0.0,0.0,0.0,0.0,0.0,0.0,0.0,0.0,0.0,0.0,0.0,0.0,0.0,0.0,0.0,0.0,0.0,0.0,0.0,0.0,0.0,0.0,0.0,0.0,0.0,0.0,0.0,0.0,0.0,0.0,0.0,0.0,0.0,0.0,0.0,0.0,0.0,0.0,0.0,0.0,0.0,0.0,0.0,0.0,0.0,0.0,0.0,0.0,0.0,0.0,0.0,0.0,0.0,0.0,0.0,0.0,0.0,0.0,0.0,0.0,0.0,0.0,0.0,0.0,0.0,0.0,0.0,0.0,0.0,0.0,0.0,0.0,0.0,0.0,0.0,0.0,0.0,0.0,0.0,0.0,0.0,0.0,0.0,0.0,0.0,0.0,0.0,0.0,0.0,0.0,0.0,0.0,0.0,0.0,0.0,0.0,0.0,0.0,0.0,0.0,0.0,0.0,0.0,-0.1347,-0.4408,-0.5551,-0.6859,-0.843,0.0,0.0,0.0,0.0,0.0,0.0,0.0,0.0,0.0,0.0,0.0,0.0,0.0,0.0,0.0,0.0,0.0,0.0,0.0,0.0,0.0,0.0,0.0,0.0,0.0,0.0,0.0,0.0,0.0,0.0,0.0,0.0,0.0,0.0,0.0,0.0,0.0,0.0,0.0,0.0,0.0,0.0,0.0,0.0,0.0,0.0,0.0,0.0,0.0,0.0,0.0,0.0,0.0,0.0,0.0,0.0,0.0,0.0,0.0,0.0,0.0,0.0,0.0,0.0,0.0,0.0,0.0,0.0,0.0,0.0,0.0,0.0,0.0,0.0,0.0,0.0,0.0,0.0,0.0,0.0,0.0,0.0,0.0,0.0,0.0,0.0,0.0,0.0,0.0,0.0,0.0,0.0,0.0,0.0,0.0,0.0,0.0,0.0,0.0,0.0,0.0,0.0,0.0,0.0,0.0,0.0,0.0,0.0,0.0,0.0,0.0,0.0,-0.5607,-0.6956,-0.8428,0.0,0.0,0.0,0.0,0.0,0.0,0.0,0.0,0.0,0.0,0.0,0.0,0.0,0.0,0.0,0.0,0.0,0.0,0.0,0.0,0.0,0.0,0.0,0.0,0.0,0.0,0.0,0.0,0.0,0.0,0.0,0.0,0.0,0.0,0.0,0.0,0.0,0.0,0.0,0.0,0.0,0.0,0.0,0.0,0.0,0.0,0.0,0.0,0.0,0.0,0.0,0.0,0.0,0.0,0.0,0.0,0.0,0.0,0.0,0.0,0.0,0.0,0.0,0.0,0.0,0.0,0.0,0.0,0.0,0.0,0.0,0.0,0.0,0.0,0.0,0.0,0.0,0.0,0.0,0.0,0.0,0.0,0.0,0.0,0.0,0.0,0.0,0.0,0.0,0.0,0.0,0.0,0.0,0.0,0.0,0.0,0.0,0.0,0.0,0.0,0.0,0.0,0.0,0.0,0.0,0.0,0.0,0.0,0.0,0.0,-0.0976,-0.4397,-0.5711,0.0,-0.8525,0.0,0.0,0.0,0.0,0.0,0.0,0.0,0.0,0.0,0.0,0.0,0.0,0.0,0.0,0.0,0.0,0.0,0.0,0.0,0.0,0.0,0.0,0.0,0.0,0.0,0.0,0.0,0.0,0.0,0.0,0.0,0.0,0.0,0.0,0.0,0.0,0.0,0.0,0.0,0.0,0.0,0.0,0.0,0.0,0.0,0.0,0.0,0.0,0.0,0.0,0.0,0.0,0.0,0.0,0.0,0.0,0.0,0.0,0.0,0.0,0.0,0.0,0.0,0.0,0.0,0.0,0.0,0.0,0.0,0.0,0.0,0.0,0.0,0.0,0.0,0.0,0.0,0.0,0.0,0.0,0.0,0.0,0.0,0.0,0.0,0.0,0.0,0.0,0.0,0.0,0.0,0.0,0.0,0.0,0.0,0.0,0.0,0.0,0.0,0.0,0.0,0.0,0.0,0.0,0.0,0.0,0.0,0.0,0.0,0.0,-0.0656,-0.4609,-0.6786,-0.8108,0.0,0.0,0.0,0.0,0.0,0.0,0.0,0.0,0.0,0.0,0.0,0.0,0.0,0.0,0.0,0.0,0.0,0.0,0.0,0.0,0.0,0.0,0.0,0.0,0.0,0.0,0.0,0.0,0.0,0.0,0.0,0.0,0.0,0.0,0.0,0.0,0.0,0.0,0.0,0.0,0.0,0.0,0.0,0.0,0.0,0.0,0.0,0.0,0.0,0.0,0.0,0.0,0.0,0.0,0.0,0.0,0.0,0.0,0.0,0.0,0.0,0.0,0.0,0.0,0.0,0.0,0.0,0.0,0.0,0.0,0.0,0.0,0.0,0.0,0.0,0.0,0.0,0.0,0.0,0.0,0.0,0.0,0.0,0.0,0.0,0.0,0.0,0.0,0.0,0.0,0.0,0.0,0.0,0.0,0.0,0.0,0.0,0.0,0.0,0.0,0.0,0.0,0.0,0.0,0.0,0.0,0.0,0.0,0.0,0.0,0.1839,-0.0495,-0.4809,-0.7536,-0.8794,-0.8492,0.0,0.0,0.0,0.0,0.0,0.0,0.0,0.0,0.0,0.0,0.0,0.0,0.0,0.0,0.0,0.0,0.0,0.0,0.0,0.0,0.0,0.0,0.0,0.0,0.0,0.0,0.0,0.0,0.0,0.0,0.0,0.0,0.0,0.0,0.0,0.0,0.0,0.0,0.0,0.0,0.0,0.0,0.0,0.0,0.0,0.0,0.0,0.0,0.0,0.0,0.0,0.0,0.0,0.0,0.0,0.0,0.0,0.0,0.0,0.0,0.0,0.0,0.0,0.0,0.0,0.0,0.0,0.0,0.0,0.0,0.0,0.0,0.0,0.0,0.0,0.0,0.0,0.0,0.0,0.0,0.0,0.0,0.0,0.0,0.0,0.0,0.0,0.0,0.0,0.0,0.0,0.0,0.0,0.0,0.0,0.0,0.0,0.0,0.0,0.0,0.0,0.0,0.0,0.0,0.0,0.0,0.0,0.0,0.2139,0.169,-0.0609,-0.5096,-0.7609,-0.874,0.0,0.0,0.0,0.0,0.0,0.0,0.0,0.0,0.0,0.0,0.0,0.0,0.0,0.0,0.0,0.0,0.0,0.0,0.0,0.0,0.0,0.0,0.0,0.0,0.0,0.0,0.0,0.0,0.0,0.0,0.0,0.0,0.0,0.0,0.0,0.0,0.0,0.0,0.0,0.0,0.0,0.0,0.0,0.0,0.0,0.0,0.0,0.0,0.0,0.0,0.0,0.0,0.0,0.0,0.0,0.0,0.0,0.0,0.0,0.0,0.0,0.0,0.0,0.0,0.0,0.0,0.0,0.0,0.0,0.0,0.0,0.0,0.0,0.0,0.0,0.0,0.0,0.0,0.0,0.0,0.0,0.0,0.0,0.0,0.0,0.0,0.0,0.0,0.0,0.0,0.0,0.0,0.0,0.0,0.0,0.0,0.0,0.0,0.0,0.0,0.0,0.0,0.0,0.0,0.0,0.0,0.0,0.0,0.0,0.2058,-0.0962,-0.3273,-0.4933,-0.7474,-0.8787,0.0,0.0,0.0,0.0,0.0,0.0,0.0,0.0,0.0,0.0,0.0,0.0,0.0,0.0,0.0,0.0,0.0,0.0,0.0,0.0,0.0,0.0,0.0,0.0,0.0,0.0,0.0,0.0,0.0,0.0,0.0,0.0,0.0,0.0,0.0,0.0,0.0,0.0,0.0,0.0,0.0,0.0,0.0,0.0,0.0,0.0,0.0,0.0,0.0,0.0,0.0,0.0,0.0,0.0,0.0,0.0,0.0,0.0,0.0,0.0,0.0,0.0,0.0,0.0,0.0,0.0,0.0,0.0,0.0,0.0,0.0,0.0,0.0,0.0,0.0,0.0,0.0,0.0,0.0,0.0,0.0,0.0,0.0,0.0,0.0,0.0,0.0,0.0,0.0,0.0,0.0,0.0,0.0,0.0,0.0,0.0,0.0,0.0,0.0,0.0,0.0,0.0,0.0,0.0,0.0,0.0,0.0,0.0,0.0,0.1965,0.0,-0.448,-0.4625,-0.7118,-0.8473,0.0,0.0,0.0,0.0,0.0,0.0,0.0,0.0,0.0,0.0,0.0,0.0,0.0,0.0,0.0,0.0,0.0,0.0,0.0,0.0,0.0,0.0,0.0,0.0,0.0,0.0,0.0,0.0,0.0,0.0,0.0,0.0,0.0,0.0,0.0,0.0,0.0,0.0,0.0,0.0,0.0,0.0,0.0,0.0,0.0,0.0,0.0,0.0,0.0,0.0,0.0,0.0,0.0,0.0,0.0,0.0,0.0,0.0,0.0,0.0,0.0,0.0,0.0,0.0,0.0,0.0,0.0,0.0,0.0,0.0,0.0,0.0,0.0,0.0,0.0,0.0,0.0,0.0,0.0,0.0,0.0,0.0,0.0,0.0,0.0,0.0,0.0,0.0,0.0,0.0,0.0,0.0,0.0,0.0,0.0,0.0,0.0,0.0,0.0,0.0,0.0,0.0,0.0,0.0,0.0,0.0,0.0,0.0,0.4866,0.1999,-0.171,-0.3866,-0.4277,-0.6594,-0.766,0.0,0.0,0.0,0.0,0.0,0.0,0.0,0.0,0.0,0.0,0.0,0.0,0.0,0.0,0.0,0.0,0.0,0.0,0.0,0.0,0.0,0.0,0.0,0.0,0.0,0.0,0.0,0.0,0.0,0.0,0.0,0.0,0.0,0.0,0.0,0.0,0.0,0.0,0.0,0.0,0.0,0.0,0.0,0.0,0.0,0.0,0.0,0.0,0.0,0.0,0.0,0.0,0.0,0.0,0.0,0.0,0.0,0.0,0.0,0.0,0.0,0.0,0.0,0.0,0.0,0.0,0.0,0.0,0.0,0.0,0.0,0.0,0.0,0.0,0.0,0.0,0.0,0.0,0.0,0.0,0.0,0.0,0.0,0.0,0.0,0.0,0.0,0.0,0.0,0.0,0.0,0.0,0.0,0.0,0.0,0.0,0.0,0.0,0.0,0.0,0.0,0.0,0.0,0.0,0.0,0.0,0.0,0.0,0.0,0.1691,-0.1764,-0.3988,-0.4812,-0.6677,-0.7736,0.0,0.0,0.0,0.0,0.0,0.0,0.0,0.0,0.0,0.0,0.0,0.0,0.0,0.0,0.0,0.0,0.0,0.0,0.0,0.0,0.0,0.0,0.0,0.0,0.0,0.0,0.0,0.0,0.0,0.0,0.0,0.0,0.0,0.0,0.0,0.0,0.0,0.0,0.0,0.0,0.0,0.0,0.0,0.0,0.0,0.0,0.0,0.0,0.0,0.0,0.0,0.0,0.0,0.0,0.0,0.0,0.0,0.0,0.0,0.0,0.0,0.0,0.0,0.0,0.0,0.0,0.0,0.0,0.0,0.0,0.0,0.0,0.0,0.0,0.0,0.0,0.0,0.0,0.0,0.0,0.0,0.0,0.0,0.0,0.0,0.0,0.0,0.0,0.0,0.0,0.0,0.0,0.0,0.0,0.0,0.0,0.0,0.0,0.0,0.0,0.0,0.0,0.0,0.0,0.0,0.0,0.0,0.0,0.0,0.1718,-0.1901,-0.403,-0.4563,-0.6503,-0.7473,-0.7322,0.0,0.0,0.0,0.0,0.0,0.0,0.0,0.0,0.0,0.0,0.0,0.0,0.0,0.0,0.0,0.0,0.0,0.0,0.0,0.0,0.0,0.0,0.0,0.0,0.0,0.0,0.0,0.0,0.0,0.0,0.0,0.0,0.0,0.0,0.0,0.0,0.0,0.0,0.0,0.0,0.0,0.0,0.0,0.0,0.0,0.0,0.0,0.0,0.0,0.0,0.0,0.0,0.0,0.0,0.0,0.0,0.0,0.0,0.0,0.0,0.0,0.0,0.0,0.0,0.0,0.0,0.0,0.0,0.0,0.0,0.0,0.0,0.0,0.0,0.0,0.0,0.0,0.0,0.0,0.0,0.0,0.0,0.0,0.0,0.0,0.0,0.0,0.0,0.0,0.0,0.0,0.0,0.0,0.0,0.0,0.0,0.0,0.0,0.0,0.0,0.0,0.0,0.0,0.0,0.0,0.0,0.0,0.0,0.2238,-0.1821,-0.3864,-0.381,-0.6071,-0.6901,0.0,0.0,0.0,0.0,0.0,0.0,0.0,0.0,0.0,0.0,0.0,0.0,0.0,0.0,0.0,0.0,0.0,0.0,0.0,0.0,0.0,0.0,0.0,0.0,0.0,0.0,0.0,0.0,0.0,0.0,0.0,0.0,0.0,0.0,0.0,0.0,0.0,0.0,0.0,0.0,0.0,0.0,0.0,0.0,0.0,0.0,0.0,0.0,0.0,0.0,0.0,0.0,0.0,0.0,0.0,0.0,0.0,0.0,0.0,0.0,0.0,0.0,0.0,0.0,0.0,0.0,0.0,0.0,0.0,0.0,0.0,0.0,0.0,0.0,0.0,0.0,0.0,0.0,0.0,0.0,0.0,0.0,0.0,0.0,0.0,0.0,0.0,0.0,0.0,0.0,0.0,0.0,0.0,0.0,0.0,0.0,0.0,0.0,0.0,0.0,0.0,0.0,0.0,0.0,0.0,0.0,0.0,0.0,0.0,0.2395,0.0,-0.2443,-0.4806,-0.5195,-0.591,0.0,0.0,0.0,0.0,0.0,0.0,0.0,0.0,0.0,0.0,0.0,0.0,0.0,0.0,0.0,0.0,0.0,0.0,0.0,0.0,0.0,0.0,0.0,0.0,0.0,0.0,0.0,0.0,0.0,0.0,0.0,0.0,0.0,0.0,0.0,0.0,0.0,0.0,0.0,0.0,0.0,0.0,0.0,0.0,0.0,0.0,0.0,0.0,0.0,0.0,0.0,0.0,0.0,0.0,0.0,0.0,0.0,0.0,0.0,0.0,0.0,0.0,0.0,0.0,0.0,0.0,0.0,0.0,0.0,0.0,0.0,0.0,0.0,0.0,0.0,0.0,0.0,0.0,0.0,0.0,0.0,0.0,0.0,0.0,0.0,0.0,0.0,0.0,0.0,0.0,0.0,0.0,0.0,0.0,0.0,0.0,0.0,0.0,0.0,0.0,0.0,0.0,0.0,0.0,0.0,0.0,0.0,0.0,0.5526,0.2944,0.1687,-0.0667,-0.4211,-0.4355,-0.4697,0.0,0.0,0.0,0.0,0.0,0.0,0.0,0.0,0.0,0.0,0.0,0.0,0.0,0.0,0.0,0.0,0.0,0.0,0.0,0.0,0.0,0.0,0.0,0.0,0.0,0.0,0.0,0.0,0.0,0.0,0.0,0.0,0.0,0.0,0.0,0.0,0.0,0.0,0.0,0.0,0.0,0.0,0.0,0.0,0.0,0.0,0.0,0.0,0.0,0.0,0.0,0.0,0.0,0.0,0.0,0.0,0.0,0.0,0.0,0.0,0.0,0.0,0.0,0.0,0.0,0.0,0.0,0.0,0.0,0.0,0.0,0.0,0.0,0.0,0.0,0.0,0.0,0.0,0.0,0.0,0.0,0.0,0.0,0.0,0.0,0.0,0.0,0.0,0.0,0.0,0.0,0.0,0.0,0.0,0.0,0.0,0.0,0.0,0.0,0.0,0.0,0.0,0.0,0.0,0.0,0.0,0.0,0.0,0.6021,0.3648,0.3191,0.1299,-0.2258,-0.3305,-0.3464,0.0,0.0,0.0,0.0,0.0,0.0,0.0,0.0,0.0,0.0,0.0,0.0,0.0,0.0,0.0,0.0,0.0,0.0,0.0,0.0,0.0,0.0,0.0,0.0,0.0,0.0,0.0,0.0,0.0,0.0,0.0,0.0,0.0,0.0,0.0,0.0,0.0,0.0,0.0,0.0,0.0,0.0,0.0,0.0,0.0,0.0,0.0,0.0,0.0,0.0,0.0,0.0,0.0,0.0,0.0,0.0,0.0,0.0,0.0,0.0,0.0,0.0,0.0,0.0,0.0,0.0,0.0,0.0,0.0,0.0,0.0,0.0,0.0,0.0,0.0,0.0,0.0,0.0,0.0,0.0,0.0,0.0,0.0,0.0,0.0,0.0,0.0,0.0,0.0,0.0,0.0,0.0,0.0,0.0,0.0,0.0,0.0,0.0,0.0,0.0,0.0,0.0,0.0,0.0,0.0,0.0,0.0,0.0,0.716,0.3773,0.441,0.3116,-0.048,-0.135,-0.2367,0.0,0.0,0.0,0.0,0.0,0.0,0.0,0.0,0.0,0.0,0.0,0.0,0.0,0.0,0.0,0.0,0.0,0.0,0.0,0.0,0.0,0.0,0.0,0.0,0.0,0.0,0.0,0.0,0.0,0.0,0.0,0.0,0.0,0.0,0.0,0.0,0.0,0.0,0.0,0.0,0.0,0.0,0.0,0.0,0.0,0.0,0.0,0.0,0.3458,0.0,0.0,0.0,0.0,0.0,0.0,0.0,0.0,0.0,0.0,0.0,0.0,0.0,0.0,0.0,0.0,0.0,0.0,0.0,0.0,0.0,0.0,0.0,0.0,0.0,0.0,0.0,0.0,0.0,0.0,0.0,0.0,0.0,0.0,0.0,0.0,0.0,0.0,0.0,0.0,0.0,0.0,0.0,0.0,0.0,0.0,0.0,0.0,0.0,0.0,0.0,0.0,0.0,0.0,0.0,0.0,0.0,0.0,0.0,0.8067,0.5406,0.529,0.3959,0.1263,0.0,-0.1094,0.0,0.0,0.0,0.0,0.0,0.0,0.0,0.0,0.0,0.0,0.0,0.0,0.0,0.0,0.0,0.0,0.0,0.0,0.0,0.0,0.0,0.0,0.0,0.0,0.0,0.0,0.0,0.0,0.0,0.0,0.0,0.0,0.0,0.0,0.0,0.0,0.0,0.0,0.0,0.0,0.0,0.0,0.0,0.0,0.0,0.0,0.0,0.0,0.0,0.0,0.0,0.0,0.0,0.0,0.0,0.0,0.0,0.0,0.0,0.0,0.0,0.0,0.0,0.0,0.0,0.0,0.0,0.0,0.0,0.0,0.0,0.0,0.0,0.0,0.0,0.0,0.0,0.0,0.0,0.0,0.0,0.0,0.0,0.0,0.0,0.0,0.0,0.0,0.0,0.0,0.0,0.0,0.0,0.0,0.0,0.0,0.0,0.0,0.0,0.0,0.0,0.0,0.0,0.0,0.0,0.0,0.0,0.9745,0.8611,0.7118,0.6055,0.4608,0.2882,0.1185,0.0424,0.0645,0.0,0.0,0.0,0.0,0.0,0.0,0.0,0.0,0.0,0.0,0.0,0.0,0.0,0.0,0.0,0.0,0.0,0.0,0.0,0.0,0.0,0.0,0.0,0.0,0.0,0.0,0.0,0.0,0.0,0.0,0.0,0.0,0.0,0.0,0.0,0.0,0.0,0.0,1.4052,1.2616,0.0,0.0,0.0,0.0,0.0,0.0,0.0,0.0,0.4656,0.0,0.0,0.0,0.0,0.0,0.0,0.0,0.0,0.0,0.0,0.0,0.0,0.0,0.0,0.0,0.0,0.0,0.0,0.0,0.0,0.0,0.0,0.0,0.0,0.0,0.0,0.0,0.0,0.0,0.0,0.0,0.0,0.0,0.0,0.0,0.0,0.0,0.0,0.0,0.0,0.0,0.0,0.0,0.0,0.0,0.0,0.0,0.0,0.0,0.0,0.0,0.0,0.0,0.0,0.0,0.0,1.1121,0.9857,0.8512,0.7116,0.7055,0.6175,0.4349,0.2699,0.2438,0.3564,0.0,0.0,0.0,0.0,0.0,0.0,0.0,0.0,0.0,0.0,0.0,0.0,0.0,0.0,0.0,0.0,0.0,0.0,0.0,0.0,0.0,0.0,0.0,0.0,0.0,0.0,0.0,0.0,0.0,0.0,0.0,0.0,0.0,0.0,0.0,0.0,0.0,0.0,0.0,1.5429,1.4181,0.0,0.0,0.0,0.0,0.0,0.0,0.0,0.0,0.4929,0.0,0.0,0.0,0.0,0.0,0.0,0.0,0.0,0.0,0.0,0.0,0.0,0.0,0.0,0.0,0.0,0.0,0.0,0.0,0.0,0.0,0.0,0.0,0.0,0.0,0.0,0.0,0.0,0.0,0.0,0.0,0.0,0.0,0.0,0.0,0.0,0.0,0.0,0.0,0.0,0.0,0.0,0.0,0.0,0.0,0.0,0.0,0.0,0.0,0.0,0.0,0.0,0.0,0.0,0.0,1.0512,0.9592,0.878,0.8166,0.7513,0.67,0.5747,0.4043,0.3477,0.0,0.0,0.0,0.0,0.0,0.0,0.0,0.0,0.0,0.0,0.0,0.0,0.0,0.0,0.0,0.0,0.0,0.0,0.0,0.0,0.0,0.0,0.0,0.0,0.0,0.0,0.0,0.0,0.0,0.0,0.0,0.0,0.0,0.0,0.0,0.0,0.0,0.0,0.0,0.0,1.7119,1.5762,1.6123,0.0,0.0,0.0,0.0,0.0,0.0,0.7447,0.6549,0.0,0.0,0.0,0.0,0.0,0.0,0.0,0.0,0.0,0.0,0.0,0.0,0.0,0.0,0.0,0.0,0.0,0.0,0.0,0.0,0.0,0.0,0.0,0.0,0.0,0.0,0.0,0.0,0.0,0.0,0.0,0.0,0.0,0.0,0.0,0.0,0.0,0.0,0.0,0.0,0.0,0.0,0.0,0.0,0.0,0.0,0.0,0.0,0.0,0.0,0.0,0.0,0.0,0.0,0.0,0.9886,0.9218,0.892,0.9059,0.7914,0.7228,0.7075,0.5404,0.4575,0.0,0.0,0.0,0.0,0.0,0.0,0.0,0.0,0.0,0.0,0.0,0.0,0.0,0.0,0.0,0.0,0.0,0.0,0.0,0.0,0.0,0.0,0.0,0.0,0.0,0.0,0.0,0.0,0.0,0.0,0.0,0.0,0.0,0.0,0.0,0.0,0.0,0.0,0.0,0.0,0.0,1.7262,1.8083,1.615,0.0,0.0,0.0,0.0,1.0632,0.9114,0.0,0.0,0.0,0.0,0.0,0.0,0.0,0.0,0.0,0.0,0.0,0.0,0.0,0.0,0.0,0.0,0.0,0.0,0.0,0.0,0.0,0.0,0.0,0.0,0.0,0.0,0.0,0.0,0.0,0.0,0.0,0.0,0.0,0.0,0.0,0.0,0.0,0.0,0.0,0.0,0.0,0.0,0.0,0.0,0.0,0.0,0.0,0.0,0.0,0.0,0.0,0.0,0.0,0.0,0.0,0.0,0.9789,0.8991,0.8611,0.8754,0.8614,0.8502,0.8429,0.6888,0.6603,0.0,0.0,0.0,0.0,0.0,0.0,0.0,0.0,0.0,0.0,0.0,0.0,0.0,0.0,0.0,0.0,0.0,0.0,0.0,0.0,0.0,0.0,0.0,0.0,0.0,0.0,0.0,0.0,0.0,0.0,0.0,0.0,0.0,0.0,0.0,0.0,0.0,0.0,0.0,0.0,0.0,1.9051,1.7589,1.6873,1.5761,0.0,0.0,1.3653,1.1805,1.1606,0.0,0.0,0.0,0.0,0.0,0.0,0.0,0.0,0.0,0.0,0.0,0.0,0.0,0.0,0.0,0.0,0.0,0.0,0.0,0.0,0.0,0.0,0.0,0.0,0.0,0.0,0.0,0.0,0.0,0.0,0.0,0.0,0.0,0.0,0.0,0.0,0.0,0.0,0.0,0.0,0.0,0.0,0.0,0.0,0.0,0.0,0.0,0.0,0.0,0.0,0.0,0.0,0.0,0.0,0.0,0.9024,0.9411,0.8769,0.8443,0.8462,0.854,0.8543,0.8462,0.8018,0.7975,0.0,0.0,0.0,0.0,0.0,0.0,0.0,0.0,0.0,0.0,0.0,0.0,0.0,0.0,0.0,0.0,0.0,0.0,0.0,0.0,0.0,0.0,0.0,0.0,0.0,0.0,0.0,0.0,0.0,0.0,0.0,0.0,0.0,0.0,0.0,0.0,0.0,0.0,0.0,0.0,0.0,0.0,1.8792,1.848,0.0,0.0,0.0,1.5172,1.4261,0.0,0.0,0.0,0.0,0.0,0.0,0.0,0.0,0.0,0.0,0.0,0.0,0.0,0.0,0.0,0.0,0.0,0.0,0.0,0.0,0.0,0.0,0.0,0.0,0.0,0.0,0.0,0.0,0.0,0.0,0.0,0.0,0.0,0.0,0.0,0.0,0.0,0.0,0.0,0.0,0.0,0.0,0.0,0.0,0.0,0.0,0.0,0.0,0.0,0.0,0.0,0.0,0.0,0.0,0.0,0.0,0.0,0.9065,0.8483,0.8174,0.8211,0.8316,0.8474,0.8715,0.8931,0.0,0.0,0.0,0.0,0.0,0.0,0.0,0.0,0.0,0.0,0.0,0.0,0.0,0.0,0.0,0.0,0.0,0.0,0.0,0.0,0.0,0.0,0.0,0.0,0.0,0.0,0.0,1.3045,0.0,0.0,0.0,0.0,0.0,0.0,0.0,0.0,0.0,0.0,0.0,0.0,0.0,0.0,2.0107,2.0192,1.9993,1.9719,0.0,0.0,1.6926,1.6343,1.6287,1.5385,0.0,0.0,0.0,0.0,0.0,0.0,0.0,0.0,0.0,0.0,0.0,0.0,0.0,0.0,0.0,0.0,0.0,0.0,0.0,0.0,0.0,0.0,0.0,0.0,0.0,0.0,0.0,0.0,0.0,0.0,0.0,0.0,0.0,0.0,0.0,0.0,0.0,0.0,0.0,0.0,0.0,0.0,0.0,0.0,0.0,0.0,0.0,0.0,0.0,0.0,0.0,0.0,0.0,0.0,0.0,0.8741,0.8157,0.7916,0.8002,0.8012,0.8603,0.9817,0.9631,0.9597,0.0,0.0,0.0,0.0,0.0,0.0,0.0,0.0,0.0,0.0,0.0,0.0,0.0,0.0,0.0,0.0,0.0,0.0,0.0,0.0,0.0,0.0,0.0,0.0,0.0,0.0,0.0,0.0,0.0,0.0,0.0,0.0,0.0,0.0,0.0,0.0,0.0,0.0,0.0,0.0,0.0,2.0192,2.1145,2.0943,2.1001,0.0,0.0,1.9369,1.7389,1.8248,1.7891,1.433,0.0,0.0,0.0,0.0,0.0,0.0,0.0,0.0,0.0,0.0,0.0,0.0,0.0,0.0,0.0,0.0,0.0,0.0,0.0,0.0,0.0,0.0,0.0,0.0,0.0,0.0,0.0,0.0,0.0,0.0,0.0,0.0,0.0,0.0,0.0,0.0,0.0,0.0,0.0,0.0,0.0,0.0,0.0,0.0,0.0,0.0,0.0,0.0,0.0,0.0,0.0,0.0,0.0,1.0316,1.0402,0.938,0.8945,0.9209,0.9217,0.9509,1.0002,1.0962,1.1154,0.0,0.0,0.0,0.0,0.0,0.0,0.0,0.0,0.0,0.0,0.0,0.0,0.0,0.0,0.0,0.0,0.0,0.0,0.0,0.0,0.0,0.0,0.0,0.0,0.0,0.0,0.0,0.0,1.4046,1.4182,1.4583,0.0,0.0,0.0,0.0,0.0,0.0,0.0,0.0,0.0,0.0,2.1248,2.1805,2.2951,0.0,0.0,2.2923,2.1603,2.0903,1.998,1.8519,1.5932,1.5285,0.0,0.0,0.0,0.0,0.0,0.0,0.0,0.0,0.0,0.0,0.0,0.0,0.0,0.0,0.0,0.0,0.0,0.0,0.0,0.0,0.0,0.0,0.0,0.0,0.0,0.0,0.0,0.0,0.0,0.0,0.0,0.0,0.0,0.0,0.0,0.0,0.0,0.0,0.0,0.0,0.0,0.0,0.0,0.0,0.0,0.0,0.0,0.0,0.0,0.0,0.0,0.0,1.1281,1.1549,1.0127,0.9573,0.9909,0.9962,1.0108,1.0537,1.2052,1.241,0.0,0.0,0.0,0.0,0.0,0.0,0.0,0.0,0.0,0.0,0.0,0.0,0.0,0.0,0.0,0.0,0.0,0.0,0.0,0.0,0.0,0.0,0.0,0.0,0.0,0.0,0.0,0.0,1.4431,1.4672,1.5101,0.0,0.0,0.0,0.0,0.0,0.0,0.0,0.0,0.0,0.0,2.1907,2.2883,2.4285,2.5144,2.5094,2.3665,2.2503,2.2282,2.0957,1.9296,1.7247,0.0,0.0,0.0,0.0,0.0,0.0,0.0,0.0,0.0,0.0,0.0,0.0,0.0,0.0,0.0,0.0,0.0,0.0,0.0,0.0,0.0,0.0,0.0,0.0,0.0,0.0,0.0,0.0,0.0,0.0,1.0016,0.0,0.0,0.0,0.0,0.0,0.0,0.0,0.0,0.0,0.0,0.0,0.0,0.0,0.0,0.0,0.0,0.0,0.0,0.0,0.0,0.0,0.0,1.186,1.17,1.0064,0.9397,0.9801,0.9819,1.043,1.1611,1.2509,1.3132,1.348,0.0,0.0,0.0,0.0,0.0,0.0,0.0,0.0,0.0,0.0,0.0,0.0,0.0,0.0,0.0,0.0,0.0,0.0,0.0,0.0,0.0,0.0,0.0,0.0,0.0,0.0,1.4144,1.4358,1.476,0.0,0.0,0.0,0.0,0.0,0.0,0.0,0.0,0.0,0.0,2.0377,2.2033,2.4313,2.4429,2.4281,2.4058,2.3015,2.1807,2.0616,2.0861,2.0494,0.0,0.0,0.0,0.0,0.0,0.0,0.0,0.0,0.0,0.0,0.0,0.0,0.0,0.0,0.0,0.0,0.0,0.0,0.0,0.0,0.0,0.0,0.0,0.0,0.0,0.0,0.0,1.1567,1.1609,0.0,0.0,0.0,0.0,0.0,0.0,0.0,0.0,0.0,0.0,0.0,1.4046,1.381,0.0,0.0,0.0,0.0,0.0,0.0,0.0,0.0,0.0,0.0,0.0,0.0,1.3108,1.3255,1.2064,1.1221,1.0822,1.1523,1.176,1.1487,1.3298,1.4007,1.3264,0.0,0.0,0.0,0.0,0.0,0.0,0.0,0.0,0.0,0.0,0.0,0.0,0.0,0.0,0.0,0.0,0.0,0.0,0.0,0.0,0.0,0.0,0.0,0.0,0.0,1.5276,0.0,0.0,0.0,0.0,0.0,0.0,0.0,0.0,0.0,0.0,0.0,1.9299,1.9917,2.1502,2.2819,2.3328,2.4807,2.599,0.0,0.0,0.0,0.0,0.0,0.0,0.0,0.0,0.0,0.0,0.0,0.0,0.0,0.0,2.0204,1.7837,1.694,1.65,1.6199,0.0,0.0,0.0,0.0,0.0,0.0,0.0,0.0,0.0,0.0,0.0,0.0,0.0,0.0,0.0,0.0,1.2376,0.0,0.0,0.0,0.0,0.0,0.0,0.0,0.0,1.5411,1.5451,1.5271,1.508,1.4601,0.0,1.3556,1.2115,0.0,0.0,0.0,0.0,0.0,0.0,0.0,0.0,1.3895,1.4039,1.3034,1.2269,1.1876,1.2564,1.2564,1.1887,1.3759,1.4356,1.3285,1.168,1.051,0.0,0.0,0.0,0.0,0.0,0.0,0.0,0.0,0.0,0.0,0.0,0.0,0.0,0.0,0.0,0.0,0.0,0.0,0.0,0.0,0.0,0.0,0.0,1.6031,0.0,0.0,0.0,0.0,0.0,0.0,0.0,0.0,0.0,1.9737,2.0193,2.0744,2.137,2.2704,2.3451,2.3014,0.0,0.0,0.0,0.0,0.0,0.0,0.0,2.0814,2.0607,2.0644,2.0863,2.1338,2.2335,2.3129,2.3182,0.0,0.0,2.0801,1.9849,1.937,1.9109,1.8989,1.8825,1.8518,1.9308,1.9897,0.0,0.0,0.0,0.0,0.0,0.0,0.0,0.0,1.4135,1.3598,0.0,1.2823,0.0,0.0,0.0,0.0,0.0,0.0,0.0,0.0,1.5691,1.5825,1.5818,1.5784,1.5308,1.4496,1.4646,1.4046,1.2765,1.3083,0.0,0.0,0.0,0.0,0.0,0.0,1.4088,1.4082,1.2978,1.2482,1.2736,1.2824,1.2824,1.2879,1.3886,1.4219,1.3612,1.2678,1.1818,1.1071,1.0443,0.0,0.0,0.0,0.0,0.0,0.0,0.0,0.0,0.0,0.0,0.0,0.0,0.0,0.0,0.0,0.0,0.0,0.0,0.0,0.0,1.6198,0.0,0.0,0.0,0.0,0.0,0.0,0.0,0.0,0.0,0.0,2.0594,2.0778,2.1697,2.344,0.0,0.0,0.0,0.0,2.407,2.2109,2.194,2.1886,2.1291,2.2418,2.3,2.1799,0.0,0.0,2.3216,2.334,2.3692,2.3836,2.4845,2.5269,2.4082,2.3241,2.2674,2.2049,2.1646,2.1183,2.0531,2.0877,2.0902,1.4039,0.0,0.0,0.0,0.0,1.4374,1.431,1.5068,1.4297,1.3975,1.4011,1.4555,0.0,0.0,0.0,0.0,0.0,0.0,1.5511,1.5705,1.5792,1.5825,1.5784,1.6046,1.589,1.5435,1.5717,1.5523,1.4894,1.4832,1.4115,1.2843,0.0,0.0,0.0,0.0,1.4088,1.4075,1.3528,1.2956,1.2428,1.3043,1.3477,1.372,1.4229,1.4342,1.3975,1.3703,1.3109,1.2249,1.206,0.0,0.0,0.0,0.0,0.0,0.0,0.0,0.0,0.0,0.0,0.0,0.0,0.0,0.0,0.0,0.0,0.0,0.0,0.0,1.8311,1.8455,1.8629,0.0,0.0,0.0,0.0,0.0,0.0,0.0,0.0,0.0,2.2928,2.3127,2.3535,0.0,0.0,2.3823,2.319,2.4066,2.4606,2.4082,0.0,0.0,0.0,2.4267,2.3931,2.3843,2.4666,2.5288,2.528,2.5689,2.6034,2.6024,2.6349,2.6493,2.613,2.5097,2.4316,2.435,2.4316,2.4281,2.4393,2.5029,2.5441,1.4901,1.5731,1.5454,1.5774,1.6308,1.5122,1.4648,1.4706,1.4345,1.4109,1.4053,1.4731,1.5091,1.5137,1.5182,0.0,0.0,0.0,1.5618,1.5825,1.5825,1.5825,1.5838,1.6012,1.6005,1.5791,1.6012,1.6005,1.5825,1.5651,1.4995,1.3952,0.0,0.0,1.3921,1.4028,1.4021,1.3908,1.3693,1.3402,1.3021,1.3519,1.3901,1.4082,1.4369,1.4389,1.4095,1.4195,1.3893,1.3108,1.3087,1.2751,0.0,0.0,0.0,0.0,0.0,0.0,0.0,0.0,0.0,0.0,0.0,1.4841,1.462,0.0,0.0,0.0,1.7423,1.8525,1.9984,2.0019,0.0,0.0,0.0,0.0,0.0,0.0,0.0,2.1658,2.2729,2.3633,2.4098,2.444,2.4679,2.4859,2.462,2.4149,2.3349,0.0,2.4762,2.448,2.4483,2.4734,2.5279,2.5004,2.498,2.5584,2.5904,2.6244,2.6474,2.6681,2.6768,2.6738,2.6484,2.624,2.624,2.5505,2.5186,2.5875,2.6033,2.6117,2.6421,2.6984,2.7285,1.507,1.7213,1.6887,1.6754,1.674,1.6613,1.5638,1.4214,1.4124,1.3978,1.3763,1.3836,1.4473,1.5431,1.5431,0.0,1.5438,1.5658,1.5825,1.5825,1.5825,1.5825,1.5825,1.5825,1.5825,1.5825,1.5825,1.5818,1.5785,1.5832,1.5591,1.4981,1.4737,1.4321,1.3686,1.3948,1.3955,1.3646,1.362,1.3788,1.4075,1.4108,1.4122,1.4122,1.4402,1.4416,1.4115,1.4362,1.4206,1.3646,1.358,1.334,1.2817,0.0,0.0,0.0,0.0,0.0,0.0,0.0,0.0,0.0,0.0,0.0,0.0,0.0,0.0,0.0,1.8499,0.0,2.1121,2.0966,0.0,0.0,0.0,2.1421,2.1421,2.2399,2.3101,2.3101,0.0,0.0,2.4326,0.0,2.5159,2.546,2.5161,2.4654,2.3862,2.4452,2.4683,2.3949,2.4024,2.4214,2.444,2.4951,2.5691,2.6497,2.6865,2.6658,2.6688,2.6455,2.624,2.6182,2.5566,2.5049,2.5067,2.5031,2.5391,2.6433,2.6734,2.6853,2.6803,2.6795,2.667,1.5927,1.7475,1.7408,1.7248,1.697,1.5606,1.4361,1.3303,1.2864,1.2631,1.2673,1.3519,1.4572,1.5725,1.5725,1.5725,1.5684,1.5798,1.5825,1.5825,1.5825,1.5825,1.5825,1.5825,1.5825,1.5825,1.5825,1.5664,1.5551,1.6342,1.5986,1.473,1.5346,1.512,1.4037,1.4055,1.4055,1.3981,1.372,1.3746,1.4082,1.4302,1.4416,1.4416,1.4703,1.4616,1.4115,1.4362,1.4213,1.3633,1.3393,1.314,1.2797,1.229,0.0,0.0,0.0,0.0,0.0,0.0,0.0,0.0,0.0,1.7137,1.5832,0.0,1.8939,0.0,1.9686,2.0693,2.1641,2.1646,0.0,0.0,2.2611,2.2669,2.2669,2.293,2.3101,2.3101,2.3516,2.3828,2.3935,2.4307,2.4602,2.4675,2.4888,2.5063,2.5189,2.5363,2.5324,2.4852,2.5025,2.5208,2.49,2.5054,2.5392,2.5918,2.5498,2.5146,2.5478,2.5176,2.4893,2.4883,2.4736,2.458,2.456,2.457,2.4648,2.501,2.5557,2.5996,2.5986,2.5781,2.5508,1.628,1.7569,1.7442,1.7347,1.7134,1.6132,1.4867,1.358,1.3268,1.3051,1.3041,1.4232,1.5146,1.5778,1.5825,1.5825,1.5825,1.5825,1.5825,1.5825,1.5825,1.5825,1.5825,1.5825,1.5825,1.5825,1.5825,1.5745,1.5631,1.6567,1.6199,1.476,1.5627,1.5447,1.4137,1.4088,1.4148,1.4275,1.3988,1.3921,1.4088,1.4249,1.4346,1.4522,1.4889,1.4786,1.4199,1.4585,1.4587,1.4004,1.3803,1.3613,1.3286,1.2884,1.2536,0.0,0.0,0.0,0.0,0.0,0.0,0.0,0.0,0.0,0.0,0.0,1.9878,0.0,2.0703,0.0,2.2344,2.2441,2.2637,2.3052,2.3101,2.3101,2.3101,2.3101,2.3101,2.3101,2.335,2.3574,2.3769,2.3994,2.4209,2.4385,2.4463,2.4658,2.5001,2.5109,2.5059,2.4834,2.498,2.5078,2.4805,2.4785,2.4853,2.5001,2.4699,2.4502,2.4727,2.459,2.4355,2.4189,2.4141,2.4072,2.3906,2.4023,2.4092,2.3939,2.4339,2.4883,2.505,2.4951,2.4775,1.6221,1.7555,1.736,1.7213,1.7146,1.7146,1.6049,1.4303,1.4268,1.4133,1.3974,1.5248,1.5825,1.5825,1.5967,1.5967,1.5825,1.5967,1.5967,1.5825,1.5825,1.5825,1.5825,1.5825,1.5825,1.5825,1.5825,1.5792,1.5712,1.6528,1.6303,1.5154,1.572,1.551,1.4396,1.4186,1.4215,1.4456,1.4255,1.4184,1.4269,1.426,1.441,1.4629,1.5017,1.4888,1.4298,1.4969,1.5113,1.4572,1.4636,1.4517,1.404,1.3763,1.3432,0.0,1.4143,0.0,0.0,0.0,0.0,0.0,0.0,0.0,0.0,1.9824,2.0644,2.1797,2.1641,2.1873,2.2916,2.3062,2.3071,2.3013,2.3013,2.3013,2.3013,2.3013,2.3042,2.3091,2.3101,2.3247,2.3633,2.3701,2.3857,2.4111,2.3935,2.3877,2.418,2.4316,2.4365,2.4336,2.4287,2.4238,2.4228,2.4228,2.4238,2.4202,2.4219,2.4248,2.4228,2.4219,2.4111,2.3799,2.3711,2.3584,2.3159,2.3467,2.3564,2.3237,2.3525,2.3877,2.416,2.4238,2.4212,1.628,1.7575,1.7522,1.7228,1.6794,1.6794,1.582,1.4292,1.4085,1.3968,1.4022,1.5242,1.5825,1.5872,1.6897,1.681,1.5872,1.6897,1.681,1.5825,1.5825,1.5825,1.5825,1.5825,1.5825,1.5825,1.5825,1.5585,1.5176,1.6195,1.63,1.557,1.5698,1.5765,1.5653,0.0,0.0,0.0,1.4342,1.4609,1.4954,1.5182,1.5273,1.5155,1.521,0.0,1.4439,1.523,1.5541,1.5281,1.599,0.0,0.0,0.0,0.0,0.0,0.0,0.0,0.0,0.0,0.0,0.0,1.9731,1.9399,1.9346,2.0644,2.1621,2.1885,2.2432,2.2691,2.2646,2.2896,2.2955,2.2676,2.2627,2.2584,2.2627,2.2594,2.2754,2.3052,2.3101,2.312,2.3208,2.3218,2.3301,2.3452,2.3276,2.3257,2.3433,2.3746,2.3896,2.3896,2.3652,2.3364,2.3335,2.3364,2.3422,2.3335,2.3335,2.3364,2.3383,2.3374,2.3354,2.3237,2.3218,2.3208,2.311,2.3169,2.3218,2.311,2.3169,2.3281,2.3325,2.3344,2.3335,1.6639,0.0,1.6994,1.6767,0.0,1.6333,1.5784,1.5042,1.491,1.4848,1.4895,1.5534,1.5825,1.5832,1.648,1.6756,1.6756,1.7404,1.7365,1.6756,1.6716,1.6433,1.5825,1.5825,1.5704,1.5618,1.5611,1.5391,1.506,1.5914,1.6221,1.5893,1.6275,1.6564,1.6638,1.5509,1.4615,1.4088,1.4229,1.4455,1.4813,1.4863,1.4881,1.4893,0.0,0.0,0.0,0.0,0.0,0.0,0.0,0.0,0.0,0.0,0.0,1.4102,1.4949,1.5856,1.6687,1.8016,1.9326,2.0508,2.0771,2.0713,2.0245,2.126,2.2014,2.2187,2.2588,2.2744,2.2539,2.2662,2.2656,2.2256,2.2197,2.2275,2.2471,2.251,2.2633,2.3013,2.3101,2.3101,2.3101,2.3101,2.3343,2.38,2.342,2.3517,2.4445,2.3991,2.3467,2.3457,2.3266,2.3101,2.3101,2.3101,2.3101,2.3101,2.3101,2.3101,2.3101,2.3101,2.3101,2.3101,2.3101,2.3101,2.3101,2.3101,2.3101,2.3101,2.3101,2.3101,2.3101,2.3101,2.3101,1.7025,1.6687,1.6446,1.6368,1.6259,1.6012,1.5879,1.5825,0.0,0.0,0.0,1.5825,1.5825,1.5825,1.6062,1.6716,1.7692,1.7909,1.7917,1.7684,1.7684,1.7008,1.5752,1.5758,1.5645,1.5331,1.5371,1.5224,1.4928,1.5518,1.5982,1.6331,1.6776,1.7139,1.7212,1.6437,1.5545,1.4699,1.4502,1.4462,1.4559,1.4547,1.4562,1.4577,1.4622,1.4416,1.3963,1.5568,1.6109,1.5425,1.6727,1.7261,1.6723,1.6145,1.565,1.5245,1.57,1.6316,1.708,1.8298,1.9469,2.0635,2.1426,2.1699,2.1229,2.1768,2.2217,2.249,2.251,2.251,2.251,2.2432,2.2236,2.1816,2.1777,2.1914,2.2185,2.2285,2.2399,2.2877,2.2964,2.3023,2.3091,2.3101,2.3507,2.4414,2.4006,2.4092,2.5683,2.4744,2.3426,2.3174,2.311,2.3101,2.3101,2.3101,2.3101,2.3101,2.3101,2.3101,2.3101,2.3101,2.3101,2.3101,2.3101,2.3101,2.3101,2.3101,2.3101,2.3101,2.3101,2.3101,2.3101,2.3101,2.3101,1.7025,1.67,1.666,1.65,1.6315,1.6226,1.6066,1.5832,1.5825,1.5825,1.5825,1.5825,1.5825,1.5872,1.6943,1.7544,1.7738,1.878,1.8688,0.0,1.7684,1.6893,1.5471,1.5718,1.5551,1.5122,1.5277,1.511,1.4629,1.4666,1.5518,1.6827,1.6337,1.6437,1.722,1.7131,1.7017,1.6821,1.6141,1.5467,1.4726,1.5814,1.5905,1.4883,1.4612,1.4402,1.434,1.5662,1.6658,1.712,1.8637,1.9089,1.827,1.806,1.7115,1.515,1.6045,1.6427,1.5737,1.7735,1.9598,2.0963,2.1602,2.1699,2.1278,2.2253,2.2799,2.2559,2.2448,2.251,2.249,2.2178,2.1797,2.1396,2.1328,2.1317,2.1414,2.1434,2.1726,2.25,2.2607,2.2701,2.2955,2.3033,2.3428,2.4426,2.4693,2.5052,2.5804,2.542,2.4211,2.3343,2.3101,2.3101,2.3343,2.3144,2.3309,2.3101,2.3222,2.3343,2.3266,2.3256,2.3222,2.3101,2.3101,2.3101,2.3101,2.3101,2.3101,2.3101,2.3101,2.3101,2.3091,2.3081,2.3071,1.7322,1.6246,1.6233,1.6159,1.6032,1.6032,1.5959,1.5832,1.5825,1.5825,1.5825,1.5825,1.5825,1.592,1.7131,1.7684,1.7785,1.8948,1.8864,1.7723,1.749,1.6692,1.549,1.5371,1.5137,1.475,1.4856,1.4696,1.4315,1.4282,1.5323,1.7229,1.7971,1.8332,1.823,1.823,1.7908,1.731,1.6924,1.6552,1.6131,1.6725,1.6786,1.6193,1.5506,1.502,1.4897,1.5475,1.6002,1.6468,1.7957,1.8741,1.8561,1.8229,1.7541,1.6459,1.6393,1.6484,1.6624,1.8407,1.9783,2.0479,2.1112,2.1579,2.1604,2.2114,2.2373,2.2197,2.2178,2.208,2.1855,2.1641,2.1348,2.0918,2.0869,2.0977,2.1151,2.12,2.1494,2.2051,2.2178,2.2246,2.2441,2.2461,2.2854,2.3939,2.5156,2.6129,2.5784,2.5981,2.5861,2.5115,2.4935,2.4935,2.4872,2.4935,2.4935,2.4935,2.4935,2.4681,2.4221,2.3996,2.3747,2.3222,2.3135,2.3101,2.3125,2.3101,2.3101,2.3101,2.3101,2.3101,2.3081,2.2925,2.2803,1.7601,1.5925,1.6137,1.6386,1.6567,1.6008,1.5967,1.6204,1.592,1.5825,1.5825,1.5825,1.5825,1.592,1.7131,1.787,1.8234,1.936,1.926,1.8149,1.7773,1.6822,1.5415,1.5109,1.4776,1.4462,1.4482,1.4376,1.4157,1.4334,1.5553,1.7666,1.9638,2.011,1.9224,1.9316,1.8872,1.7949,1.7986,1.7819,1.7293,1.7545,1.7535,1.713,1.6385,1.5711,1.5168,1.5307,1.5397,1.5493,1.6924,1.7962,1.8381,1.821,1.7971,1.7664,1.6888,1.6774,1.7644,1.8751,1.9542,1.9884,2.0498,2.1202,2.1866,2.1926,2.2069,2.2342,2.2281,2.1948,2.162,2.1252,2.0937,2.0654,2.0615,2.0713,2.1016,2.1034,2.125,2.1641,2.1748,2.1768,2.1855,2.1936,2.2471,2.3929,2.5879,2.6635,2.5931,2.6715,2.7194,2.6925,2.6472,2.5969,2.6095,2.598,2.6013,2.6248,2.6047,2.567,2.5175,2.5093,2.4714,2.3994,2.3758,2.3582,2.3315,2.3256,2.3209,2.3046,2.2994,2.3071,2.2969,2.3034,2.2715,1.7723,1.6504,1.7127,1.8133,1.878,1.6796,1.6527,1.7311,1.6346,1.5825,1.5872,1.5825,1.5825,1.5967,1.7171,1.8272,1.9268,2.0576,2.044,1.9319,1.9036,1.7555,1.5158,1.5015,1.4713,1.4229,1.4389,1.4392,1.4257,1.5137,1.6675,1.8758,2.004,2.0333,1.9926,2.0217,2.0178,1.9678,2.0091,1.9313,1.7496,1.831,1.8184,1.6799,1.6783,1.611,1.4838,1.5372,1.5474,1.5042,1.6397,1.7461,1.7972,1.87,1.8709,1.7766,1.758,1.7589,1.7692,1.7812,1.8546,1.9713,1.999,2.0614,2.1862,2.2025,2.2582,2.3487,2.3143,2.2616,2.2486,2.1477,2.0761,2.0635,2.0615,2.0635,2.0713,2.0664,2.0801,2.12,2.1369,2.1395,2.175,2.1777,2.2636,2.4303,2.5605,2.6776,2.7238,2.757,2.7828,2.7495,2.6376,2.5267,2.5223,2.501,2.5588,2.5819,2.5402,2.5558,2.5943,2.5832,2.5415,2.4908,2.5156,2.4721,2.3853,2.3577,2.3575,2.3205,2.3097,2.3075,2.2804,2.32,2.3299,1.7852,1.6549,1.6787,1.7549,1.8457,1.8117,1.8265,1.8634,1.7444,1.6897,1.6803,1.6157,1.5825,1.5913,1.7855,1.868,1.8588,2.044,2.0251,1.851,1.8135,1.6914,1.5143,1.4783,1.4476,1.4115,1.4208,1.4528,1.5276,1.6797,1.8109,1.9036,2.0079,2.0507,2.0312,2.0517,2.0507,2.0341,2.0225,1.9745,1.9033,1.9274,1.9238,1.8583,1.7814,1.6822,1.5648,1.515,1.4741,1.4494,1.516,1.615,1.7415,1.787,1.8123,1.8186,1.8014,1.7882,1.7882,1.8099,1.8497,1.9114,1.9592,2.0646,2.2342,2.2473,2.3279,2.4979,2.4113,2.2859,2.2023,2.158,2.1221,2.075,2.0605,2.0818,2.1375,2.1403,2.1504,2.1667,2.1659,2.1497,2.1214,2.1153,2.2022,2.3683,2.4822,2.5794,2.6934,2.7406,2.7457,2.7135,2.6298,2.6226,2.6521,2.7076,2.7122,2.7086,2.7196,2.7406,2.6504,2.6693,2.6357,2.5431,2.5526,2.5373,2.4396,2.4317,2.4261,2.385,2.3912,2.4143,2.4279,2.3786,2.3076,1.8386,1.6961,1.677,1.7698,1.9123,1.9377,1.9679,1.9761,1.8365,1.7684,1.7544,1.6386,1.5825,1.615,1.8395,1.9001,1.8542,2.0342,2.0161,1.8264,1.7455,1.6341,1.5071,1.4576,1.4289,1.4115,1.4088,1.4817,1.6191,1.802,1.9155,1.952,2.0245,2.0537,2.0372,2.0246,2.0256,2.0342,1.9889,1.9726,1.9819,1.9805,1.9746,1.9642,1.8732,1.7638,1.6492,1.5274,1.4455,1.4074,1.4171,1.4938,1.6508,1.6875,1.7444,1.8298,1.8149,1.8008,1.8018,1.8256,1.849,1.8637,1.9336,2.0618,2.2405,2.2921,2.3932,2.5716,2.4919,2.3574,2.2557,2.2089,2.1687,2.1078,2.0972,2.1298,2.1876,2.2178,2.2403,2.2403,2.2456,2.2188,2.1527,2.1349,2.1856,2.3674,2.432,2.4935,2.6161,2.6851,2.6952,2.6562,2.6477,2.6744,2.7532,2.7838,2.8185,2.8134,2.8013,2.7792,2.7038,2.7289,2.7202,2.6245,2.6105,2.5638,2.4911,2.4812,2.4947,2.4909,2.4993,2.5054,2.4836,2.4067,2.3536,1.9548,1.7442,1.7764,1.932,2.1483,2.0112,2.0169,2.1078,1.8818,1.7777,1.7638,1.6433,1.5825,1.6015,1.8395,1.9451,1.9534,2.0755,2.0648,1.9224,1.7689,1.619,1.5006,1.4389,1.4108,1.4088,1.4088,1.5151,1.7131,1.843,1.952,2.0479,2.0566,2.0371,2.0003,1.9528,1.9403,1.9783,1.9378,1.929,1.9732,1.9455,1.9297,1.9346,1.9251,1.8464,1.7216,1.6229,1.5142,1.3783,1.3754,1.4245,1.5267,1.6193,1.716,1.7935,1.8061,1.8042,1.8076,1.8115,1.8247,1.8568,1.9033,2.0339,2.2519,2.3046,2.3943,2.5544,2.5485,2.5039,2.4555,2.3113,2.2152,2.1947,2.1952,2.1989,2.2103,2.2988,2.3368,2.3441,2.3331,2.3184,2.3184,2.2515,2.2925,2.4228,2.4897,2.5336,2.6179,2.6549,2.6549,2.6524,2.6487,2.6524,2.6637,2.7256,2.7482,2.7406,2.7494,2.7521,2.7659,2.7686,2.734,2.7119,2.6967,2.6445,2.5517,2.5166,2.5301,2.5483,2.5875,2.5884,2.5503,2.5513,2.4879,1.9393,1.8456,1.8375,1.9333,2.0796,2.0709,2.1346,2.2262,2.0711,1.9534,1.8726,1.7537,1.6574,1.592,1.8395,1.9497,1.967,2.1534,2.1318,1.9374,1.8568,1.7,1.4801,1.4449,1.4255,1.4108,1.413,1.5186,1.7302,1.9116,2.0196,2.0527,2.0615,2.0517,2.0342,2.0159,1.9714,1.9097,1.9099,1.8891,1.8302,1.8363,1.8711,1.9238,1.9014,1.8228,1.6881,1.6732,1.5788,1.3796,1.3709,1.4171,1.5199,1.6655,1.791,1.871,1.8811,1.8821,1.8811,1.8854,1.8623,1.8267,1.8598,1.992,2.1823,2.2295,2.3155,2.5336,2.5448,2.5174,2.5129,2.4167,2.3151,2.2608,2.2776,2.3231,2.3781,2.4228,2.4456,2.4373,2.3963,2.3514,2.3551,2.3184,2.3514,2.4671,2.5004,2.5476,2.6198,2.6487,2.6487,2.6487,2.6487,2.6487,2.6487,2.6977,2.7243,2.7052,2.6967,2.7042,2.7155,2.7356,2.7137,2.6874,2.6992,2.6947,2.5918,2.5798,2.5925,2.6287,2.6675,2.636,2.6251,2.5925,2.5338,1.9687,1.9752,1.9195,1.9445,2.0274,2.0982,2.1978,2.2906,2.18,2.0621,1.9451,1.8226,1.699,1.6386,1.8395,1.9497,1.9724,2.1578,2.1299,1.9348,1.8982,1.7572,1.5487,1.4967,1.4774,1.472,1.4985,1.5906,1.7257,1.9485,2.0566,2.0615,2.0615,2.0615,2.0566,2.0284,1.9627,1.9079,1.8976,1.8515,1.7783,1.8145,1.8603,1.8984,1.8926,1.8427,1.7504,1.7296,1.6524,1.5045,1.4413,1.4629,1.5693,1.7123,1.8395,1.9177,1.9266,1.9538,1.9864,1.9686,1.9323,1.8972,1.9021,2.0022,2.2064,2.2125,2.3513,2.545,2.5485,2.4996,2.5098,2.459,2.3897,2.3363,2.3667,2.4217,2.4898,2.5288,2.5441,2.5358,2.4624,2.4217,2.4361,2.4181,2.4516,2.5335,2.5476,2.5804,2.6314,2.6487,2.6487,2.6487,2.6487,2.6487,2.6487,2.6776,2.6952,2.6776,2.6939,2.6889,2.6776,2.6964,2.6989,2.6713,2.6637,2.6725,2.6688,2.6537,2.6688,2.6989,2.6812,2.6466,2.6321,2.6131,2.5679,2.0744,2.1007,2.0235,1.9831,2.0212,2.0832,2.1933,2.2765,2.1898,2.0845,1.967,1.8365,1.7217,1.6567,1.8488,1.9497,1.977,2.1033,2.0935,1.9611,1.8921,1.7905,1.6563,1.601,1.5665,1.5621,1.6683,1.7072,1.7142,1.9344,2.0615,2.0615,2.0615,2.0615,2.0615,1.9786,1.9385,1.9364,1.8834,1.8434,1.8576,1.8854,1.8984,1.8773,1.9053,1.9238,1.9165,1.8005,1.7243,1.6893,1.5871,1.5666,1.6481,1.7505,1.8434,1.9306,1.9417,2.005,2.1085,2.0594,2.0424,2.0184,2.0119,2.0683,2.2324,2.2979,2.4047,2.5849,2.5511,2.4858,2.4795,2.4423,2.4094,2.4178,2.4458,2.4837,2.518,2.5896,2.6452,2.6267,2.5546,2.5476,2.5943,2.5581,2.5394,2.6047,2.6314,2.6314,2.6452,2.6487,2.6487,2.6487,2.6487,2.6487,2.6487,2.6499,2.6512,2.6549,2.6876,2.7002,2.6688,2.67,2.6725,2.6537,2.6537,2.6612,2.6612,2.6487,2.6487,2.6663,2.6512,2.6512,2.6399,2.6285,2.6364,2.2136,2.1761,1.9574,1.9665,2.0977,2.0423,2.1177,2.3003,2.2677,2.1854,2.0666,1.9443,1.8265,1.763,1.8818,1.9497,1.9679,2.148,2.1794,2.0544,1.9927,1.8871,1.7707,1.7021,1.6437,1.5985,1.6805,1.7236,1.7595,1.9446,2.0615,2.0615,2.0615,2.0615,2.0566,2.0216,1.9716,1.8658,1.8844,1.8464,1.7481,1.8286,1.8906,1.9092,1.9219,1.9414,1.9668,1.9004,1.817,1.7279,1.6812,1.6581,1.6815,1.7767,1.9134,2.0532,2.1017,2.1453,2.2166,2.229,2.1498,2.0364,2.0218,2.108,2.2178,2.2463,2.3723,2.589,2.5485,2.48,2.4795,2.465,2.4409,2.4122,2.4559,2.5047,2.5438,2.6043,2.6427,2.6452,2.6198,2.6198,2.6383,2.6047,2.6094,2.6383,2.6487,2.6487,2.6487,2.6487,2.6487,2.6487,2.6487,2.6487,2.6487,2.6487,2.6487,2.6487,2.6713,2.6901,2.6625,2.6487,2.6487,2.6487,2.6487,2.6487,2.6487,2.6487,2.6487,2.6487,2.6499,2.6499,2.6487,2.6487,2.6487,2.2712,2.1968,1.9625,1.9742,2.139,2.0081,2.0908,2.2916,2.3101,2.2448,2.1302,2.0522,1.9222,1.8319,1.9405,1.9898,1.9815,2.1996,2.2553,2.1545,2.1048,2.0078,1.8724,1.7721,1.6676,1.5848,1.6333,1.6847,1.7256,1.9034,2.0206,2.0518,2.0615,2.0615,2.0615,2.0547,1.988,1.8873,1.9072,1.8675,1.7779,1.8171,1.8734,1.9004,1.9043,1.918,1.9404,1.9143,1.8742,1.8049,1.783,1.7523,1.7248,1.8257,1.9536,2.0842,2.1819,2.2488,2.3079,2.3245,2.2788,2.1208,2.0764,2.1331,2.2195,2.2309,2.3304,2.545,2.5146,2.4562,2.4757,2.4607,2.4368,2.4067,2.47,2.531,2.5845,2.6059,2.6285,2.6386,2.6452,2.6487,2.6487,2.6487,2.6487,2.6487,2.6487,2.6487,2.6487,2.6487,2.6487,2.6487,2.6487,2.6487,2.6487,2.6487,2.6487,2.6487,2.6524,2.6612,2.6512,2.6487,2.6487,2.6487,2.6487,2.6487,2.6487,2.6487,2.6487,2.6487,2.6487,2.6487,2.6487,2.6487,2.6487,2.2732,2.1871,2.0286,2.0331,2.1293,2.0215,2.0998,2.2872,2.3101,2.2501,2.1614,2.1248,2.007,1.881,2.0305,2.0621,2.0215,2.1996,2.2867,2.2363,2.1913,2.1046,1.9828,1.8114,1.6726,1.585,1.5781,1.6224,1.7081,1.8448,1.9559,2.0479,2.0615,2.0615,2.0615,2.0615,2.0303,1.976,1.9485,1.9095,1.856,1.8656,1.8685,1.8715,1.8676,1.8705,1.8812,1.8744,1.8822,1.9085,1.8705,1.8369,1.8257,1.8882,1.9852,2.0927,2.2069,2.3067,2.37,2.3741,2.3247,2.2659,2.1549,2.1368,2.2715,2.2605,2.3155,2.5327,2.4858,2.4406,2.4637,2.4449,2.4205,2.4255,2.4996,2.5745,2.626,2.5963,2.6063,2.6386,2.6487,2.6487,2.6487,2.6487,2.6487,2.6487,2.6487,2.6487,2.6487,2.6487,2.6487,2.6487,2.6487,2.6487,2.6487,2.6487,2.6487,2.6487,2.6487,2.6487,2.6487,2.6487,2.6487,2.6487,2.6487,2.6487,2.6487,2.6499,2.6487,2.6487,2.6487,2.6487,2.6487,2.6487,2.6487,2.3309,2.2663,2.1392,2.1525,2.2403,2.1346,2.1667,2.3003,2.3101,2.2906,2.2492,2.1667,2.098,2.0486,2.0935,2.1114,2.1203,2.234,2.2877,2.25,2.208,2.1362,2.0179,1.8302,1.7171,1.6726,1.6137,1.6219,1.7242,1.8417,1.9559,2.0566,2.0625,2.0615,2.0615,2.0625,2.037,1.9971,1.9796,1.9531,1.918,1.9082,1.9121,1.9082,1.8754,1.8763,1.9023,1.8763,1.8637,1.8763,1.9033,1.8916,1.8601,1.9551,2.0737,2.1958,2.2768,2.3538,2.428,2.4449,2.3778,2.246,2.1868,2.2015,2.2704,2.2754,2.3628,2.5089,2.5272,2.5021,2.4825,2.4695,2.4757,2.5134,2.5473,2.5745,2.5908,2.6122,2.6336,2.6461,2.6487,2.6487,2.6487,2.6487,2.6487,2.6487,2.6487,2.6487,2.6487,2.6487,2.6487,2.6487,2.6487,2.6487,2.6487,2.6487,2.6487,2.6487,2.6487,2.6487,2.6487,2.6487,2.6487,2.6487,2.6487,2.6487,2.6499,2.6512,2.6499,2.6487,2.6487,2.6487,2.6487,2.6487,2.6487,2.3535,2.3023,2.2003,2.2154,2.2872,2.18,2.1978,2.295,2.3101,2.3101,2.296,2.2403,2.1756,2.1391,2.1845,2.1721,2.148,2.2364,2.2594,2.2197,2.1633,2.1045,2.0253,1.8749,1.8029,1.7908,1.6887,1.7082,1.7931,1.8718,1.9652,2.0624,2.0703,2.0693,2.085,2.0664,2.0498,2.0195,2.0029,1.9775,1.957,1.918,1.9014,1.8926,1.8568,1.8525,1.8682,1.8496,1.8403,1.8568,1.8711,1.8764,1.8996,1.9962,2.1171,2.2409,2.3337,2.4145,2.4384,2.4637,2.4295,2.3171,2.2424,2.2203,2.2671,2.2754,2.3271,2.4696,2.4946,2.5013,2.5159,2.5146,2.541,2.5824,2.5996,2.5996,2.595,2.6072,2.6248,2.6386,2.6487,2.6487,2.6487,2.6487,2.6487,2.6487,2.6487,2.6487,2.6487,2.6487,2.6487,2.6487,2.6487,2.6487,2.6487,2.6487,2.6562,2.6562,2.66,2.6587,2.665,2.665,2.6675,2.6675,2.6575,2.6549,2.6663,2.6663,2.6499,2.6487,2.6487,2.6487,2.6499,2.6725,2.6688,2.3496,2.3042,2.2406,2.2494,2.2891,2.1987,2.2173,2.295,2.3101,2.3101,2.3091,2.3091,2.2448,2.1569,2.2492,2.2501,2.1587,2.2356,2.2236,2.1816,2.1192,2.0654,2.0479,1.9392,1.8838,1.8656,1.7844,1.8074,1.874,1.9101,1.9913,2.0883,2.0889,2.0869,2.1006,2.0771,2.0625,2.0469,1.9937,1.964,1.94,1.8854,1.8529,1.8488,1.8377,1.8208,1.8213,1.8115,1.8213,1.8588,1.8331,1.8835,1.954,2.0391,2.1428,2.2459,2.3863,2.4523,2.4305,2.4587,2.4725,2.4166,2.2571,2.1933,2.2893,2.2867,2.3133,2.4265,2.4226,2.4968,2.5485,2.5636,2.5845,2.6248,2.6436,2.6474,2.6399,2.6034,2.5921,2.6399,2.6487,2.6487,2.6487,2.6487,2.6487,2.6487,2.6487,2.6487,2.6487,2.6487,2.6487,2.6487,2.6487,2.6487,2.6487,2.6487,2.66,2.6675,2.6751,2.6801,2.6977,2.7002,2.7002,2.6989,2.7065,2.7077,2.7077,2.6952,2.6713,2.6575,2.6637,2.6575,2.6549,2.6977,2.7128,2.3188,2.3101,2.2915,2.2949,2.3047,2.2809,2.2862,2.3091,2.3101,2.3101,2.3101,2.3101,2.2906,2.2668,2.2906,2.2916,2.2633,2.2776,2.2617,2.1807,2.1016,2.0644,2.0411,1.9569,1.9085,1.8918,1.8264,1.8499,1.9331,1.9957,2.0545,2.1498,2.1269,2.1093,2.1143,2.0801,2.0615,2.043,1.9722,1.9147,1.886,1.8332,1.7972,1.8036,1.8263,1.8461,1.8383,1.8149,1.8188,1.8626,1.9207,1.9906,2.082,2.1947,2.3005,2.39,2.4419,2.475,2.465,2.4687,2.4657,2.4304,2.3525,2.3093,2.3233,2.368,2.3836,2.4451,2.5222,2.5803,2.6084,2.5812,2.5996,2.6348,2.6487,2.6487,2.6461,2.6373,2.6348,2.6436,2.6487,2.6487,2.6487,2.6487,2.6487,2.6487,2.6487,2.6487,2.6487,2.6487,2.6487,2.6487,2.6487,2.6499,2.6537,2.6637,2.6889,2.704,2.7115,2.7165,2.7329,2.7457,2.7507,2.757,2.762,2.7595,2.7469,2.7318,2.7092,2.6977,2.6839,2.6901,2.704,2.7379,2.7457,2.333,2.312,2.335,2.3286,2.311,2.3101,2.3101,2.3101,2.3101,2.3101,2.3101,2.3101,2.3101,2.3101,2.3101,2.3101,2.3042,2.2867,2.25,2.1846,2.1191,2.0908,2.0771,2.0213,1.9792,1.9928,1.9719,2.0003,2.0572,2.0865,2.132,2.1804,2.1405,2.119,2.1132,2.0781,2.0635,2.0469,1.984,1.9186,1.8734,1.8073,1.7575,1.7615,1.8,1.8305,1.8256,1.81,1.8369,1.9018,1.9979,2.0896,2.1655,2.2754,2.3847,2.4685,2.5119,2.5139,2.5172,2.4983,2.4946,2.5096,2.4126,2.3869,2.3983,2.4468,2.4576,2.4797,2.5387,2.6072,2.6097,2.6197,2.6223,2.6373,2.6487,2.6487,2.6487,2.6487,2.6487,2.6487,2.6487,2.6487,2.6487,2.6487,2.6487,2.6487,2.6487,2.6487,2.6487,2.6487,2.6487,2.6487,2.6487,2.6512,2.6575,2.6801,2.7241,2.7431,2.7657,2.7695,2.7795,2.7971,2.8122,2.816,2.816,2.7934,2.7795,2.7645,2.7519,2.7304,2.7228,2.7354,2.7507,2.7783,2.7821,2.3467,2.313,2.3545,2.3477,2.312,2.3101,2.3101,2.3101,2.3101,2.3101,2.3101,2.3101,2.3101,2.3101,2.3101,2.3101,2.294,2.2371,2.1839,2.1534,2.0919,2.069,2.0616,2.0535,2.0722,2.1229,2.1124,2.1419,2.1751,2.1982,2.1926,2.1914,2.1465,2.1229,2.1143,2.081,2.0537,2.0333,1.9736,1.8982,1.8339,1.7667,1.7232,1.7461,1.8019,1.8286,1.8247,1.8188,1.8477,1.9334,2.07,2.1642,2.2343,2.324,2.411,2.4923,2.544,2.5624,2.5511,2.5347,2.5511,2.6302,2.4985,2.4273,2.4813,2.5074,2.5133,2.5189,2.5509,2.59,2.5787,2.6135,2.6411,2.6487,2.6487,2.6555,2.6645,2.6679,2.6714,2.6487,2.6487,2.6487,2.6487,2.6487,2.6487,2.6487,2.6487,2.6487,2.6487,2.6512,2.6512,2.6487,2.6487,2.6725,2.6826,2.7241,2.7607,2.7971,2.8235,2.8335,2.8411,2.8674,2.8837,2.8712,2.8624,2.8436,2.8298,2.8222,2.8021,2.767,2.7708,2.7959,2.8122,2.8247,2.821,2.3159,2.3101,2.3169,2.3159,2.3101,2.3101,2.3101,2.3101,2.3101,2.3101,2.3101,2.3101,2.3101,2.3101,2.3101,2.3101,2.2809,2.1938,2.1167,2.0903,2.0328,1.998,2.0033,2.0523,2.1035,2.1633,2.1728,2.1894,2.2275,2.2402,2.2227,2.2178,2.1561,2.121,2.1074,2.0801,2.0449,2.009,1.9373,1.8355,1.7419,1.6962,1.7035,1.7584,1.8444,1.8737,1.8549,1.852,1.8769,1.9426,2.1081,2.2312,2.3197,2.4333,2.5136,2.5507,2.5937,2.6097,2.5762,2.595,2.59,2.5925,2.5647,2.5367,2.5415,2.5652,2.5699,2.5487,2.5787,2.6311,2.6348,2.6424,2.6461,2.6487,2.6521,2.6714,2.7183,2.7351,2.7129,2.6782,2.6624,2.6589,2.6714,2.6714,2.6658,2.6589,2.6487,2.6487,2.6487,2.6537,2.6587,2.6537,2.6487,2.6813,2.7128,2.7645,2.8147,2.8574,2.885,2.9026,2.9164,2.9465,2.9553,2.9252,2.9176,2.9139,2.9001,2.88,2.8511,2.816,2.8373,2.8649,2.8712,2.8762,2.875,2.3101,2.3101,2.3101,2.3101,2.3101,2.3101,2.3101,2.3101,2.3101,2.3101,2.3101,2.3101,2.3101,2.3101,2.3101,2.3101,2.2688,2.1678,2.1066,2.0825,2.0393,1.9919,1.9805,2.0465,2.1052,2.1445,2.1562,2.1904,2.2422,2.2246,2.2109,2.1787,2.1346,2.1093,2.0898,2.0674,2.0488,2.0062,1.944,1.8601,1.7644,1.7321,1.757,1.8066,1.8777,1.9143,1.9043,1.8975,1.918,1.9829,2.1214,2.2319,2.3384,2.4607,2.5749,2.6047,2.6323,2.6399,2.6047,2.616,2.595,2.6109,2.6101,2.5993,2.5938,2.6129,2.6211,2.606,2.6013,2.6487,2.6461,2.6521,2.6487,2.6487,2.6533,2.6739,2.7061,2.7451,2.743,2.7323,2.7743,2.7729,2.7196,2.7142,2.6918,2.6714,2.6568,2.6559,2.6584,2.6675,2.6801,2.7002,2.7077,2.7457,2.7795,2.8197,2.8637,2.9051,2.9302,2.9478,2.9591,2.9729,2.9716,2.9541,2.9566,2.9578,2.9352,2.9026,2.8837,2.8762,2.9063,2.9303,2.9252,2.9239,2.9366,2.3101,2.3101,2.3101,2.3101,2.3101,2.3101,2.3101,2.3101,2.3101,2.3101,2.3101,2.3101,2.3101,2.3101,2.3081,2.3062,2.2863,2.1762,2.1123,2.0572,2.0192,1.9927,1.9958,2.0382,2.0891,2.1455,2.1152,2.1562,2.2119,2.1943,2.1572,2.1367,2.1161,2.0947,2.0674,2.0625,2.0586,2.037,2.0137,1.9583,1.8942,1.8503,1.8269,1.8274,1.888,1.9209,1.8906,1.9131,1.9355,2.0056,2.1203,2.2461,2.3091,2.4707,2.5954,2.6399,2.6487,2.6487,2.6373,2.6147,2.6122,2.6348,2.6047,2.6113,2.6289,2.6418,2.6452,2.6487,2.6487,2.6645,2.6803,2.6769,2.6782,2.6854,2.6905,2.6956,2.713,2.7542,2.8218,2.84,2.8986,2.8967,2.8517,2.8525,2.8557,2.7673,2.7481,2.7034,2.705,2.704,2.718,2.7532,2.7821,2.8273,2.8599,2.8825,2.9164,2.9453,2.9578,2.9666,2.9716,2.9779,2.9716,2.9679,2.9704,2.9666,2.9465,2.9428,2.9492,2.9643,2.9872,3.005,3.0112,3.035,3.0585,2.3101,2.3101,2.3091,2.3101,2.3091,2.3125,2.3125,2.3071,2.3062,2.3101,2.3042,2.3101,2.3101,2.3081,2.3062,2.2867,2.2457,2.1676,2.0642,1.9725,1.9225,1.8954,1.8735,1.902,2.0438,2.1205,2.0947,2.1201,2.1621,2.1475,2.1259,2.1133,2.0859,2.0664,2.0635,2.0615,2.0352,2.0068,1.9961,1.9469,1.8702,1.8472,1.8274,1.8293,1.873,1.9053,1.8682,1.904,1.9431,1.976,2.1629,2.2885,2.3625,2.5297,2.6193,2.6474,2.6487,2.6487,2.6474,2.6361,2.6298,2.6461,2.6348,2.6424,2.6461,2.6487,2.6487,2.6487,2.6487,2.6816,2.7263,2.7484,2.755,2.7667,2.7775,2.7749,2.7738,2.7983,2.8632,2.9503,3.0067,3.0183,3.0021,3.0146,3.0172,2.9194,2.8365,2.7954,2.7646,2.7765,2.7693,2.8009,2.8423,2.8875,2.9063,2.934,2.949,2.9779,2.9818,2.9779,2.9779,2.9779,2.9779,2.9754,2.9779,2.983,2.9692,2.9808,3.0164,3.0506,3.0756,3.0906,3.1055,3.1365,3.1646,2.3101,2.3144,2.379,2.3681,2.3193,2.3506,2.3353,2.2869,2.274,2.274,2.2799,2.3013,2.3101,2.3042,2.2877,2.2789,2.2553,2.1602,2.0316,1.9398,1.8974,1.8671,1.8472,1.9064,2.0314,2.0777,2.0869,2.0762,2.1055,2.1016,2.0859,2.084,2.0723,2.0625,2.0615,2.0615,2.0507,2.038,2.0293,2.0053,1.9725,1.9572,1.9354,1.8967,1.9377,1.9192,1.8994,1.9268,1.9803,2.0251,2.1892,2.3113,2.3944,2.5166,2.6097,2.6487,2.6487,2.6487,2.6487,2.6487,2.6487,2.6487,2.6487,2.6474,2.6487,2.6487,2.6487,2.6487,2.6487,2.6905,2.7517,2.7683,2.7914,2.8125,2.8537,2.8235,2.8226,2.8768,2.9305,3.0231,3.1044,3.1124,3.1242,3.1448,3.1296,3.0518,2.9875,2.9524,2.9116,2.886,2.8718,2.8536,2.8963,2.9428,2.949,2.9628,2.9616,2.9779,2.9869,2.9869,2.9779,2.9779,3.0075,2.9998,2.9869,2.9869,2.9908,3.0279,3.0707,3.1167,3.1633,3.1815,3.1997,3.2033,3.2249,2.3315,2.3411,2.4373,2.4235,2.3448,2.3971,2.3576,2.2552,2.2529,2.2545,2.2682,2.2945,2.3042,2.2935,2.2783,2.2711,2.2678,2.1751,2.0479,1.9738,1.9396,1.9108,1.887,1.9439,2.0055,2.0713,2.0703,2.0674,2.0644,2.0635,2.0654,2.0615,2.0635,2.0615,2.0615,2.0615,2.0566,2.0566,2.0556,2.042,2.0275,2.0265,1.9944,1.9689,1.9561,1.9453,1.9248,1.9492,1.9922,2.0943,2.2146,2.3389,2.4366,2.5375,2.6079,2.6436,2.6487,2.6487,2.6487,2.6487,2.6487,2.6487,2.6487,2.6487,2.6487,2.6487,2.6487,2.6487,2.6487,2.704,2.7776,2.8204,2.8578,2.8859,2.9093,2.8651,2.8356,2.8779,2.9192,2.9832,3.0766,3.2055,3.2231,3.2567,3.2382,3.1739,3.1357,3.1057,3.0534,2.9981,2.965,2.9351,2.9353,2.9718,2.9768,2.9831,2.9818,2.9998,3.0075,3.0177,3.0317,3.0595,3.0996,3.0709,3.0368,3.0394,3.0671,3.0983,3.1328,3.1815,3.2343,3.2735,3.2947,3.2947,3.3136,2.395,2.3981,2.4567,2.4483,2.4085,2.4178,2.3587,2.2451,2.248,2.2643,2.2906,2.3042,2.2847,2.2725,2.274,2.2535,2.208,2.2625,2.1296,2.0192,1.9865,1.968,1.9374,1.9336,1.9805,2.0818,2.0791,2.0625,2.0644,2.0684,2.0664,2.0615,2.0664,2.0635,2.0625,2.0654,2.0615,2.0595,2.0556,2.0341,2.0098,1.9912,1.959,1.8939,1.8724,1.8676,1.8676,1.9259,1.9985,2.1171,2.2706,2.3701,2.4636,2.5709,2.6339,2.6449,2.6487,2.6487,2.6487,2.6487,2.6487,2.6487,2.6487,2.6487,2.6487,2.6487,2.6487,2.6487,2.6487,2.7235,2.8369,2.9348,2.9224,2.9558,2.9587,2.9297,2.8873,2.8533,2.8969,2.9415,3.043,3.1771,3.2806,3.3073,3.3609,3.311,3.2694,3.2424,3.1502,3.0918,3.0533,3.0211,2.9885,2.9934,2.9985,3.0075,3.0317,3.0671,3.0921,3.102,3.1143,3.1462,3.1769,3.1829,3.1586,3.1513,3.1462,3.1815,3.2177,3.2593,3.3017,3.3449,3.3822,3.3939,3.4341,2.4053,2.4946,2.4595,2.4146,2.3747,2.4765,2.401,2.2306,2.2139,2.2353,2.2764,2.2711,2.2769,2.2793,2.2422,2.2383,2.2207,2.1902,2.0964,2.0173,1.9841,1.9705,1.939,1.9456,1.9792,2.0652,2.0703,2.0762,2.0967,2.0928,2.1182,2.1182,2.0879,2.082,2.082,2.0693,2.0625,2.0517,2.0361,2.0049,1.9932,1.9609,1.9248,1.8685,1.8598,1.8598,1.8772,1.9733,2.039,2.1381,2.3217,2.4189,2.4789,2.5877,2.6393,2.6487,2.6487,2.6487,2.6487,2.6487,2.6487,2.6487,2.6487,2.6487,2.6487,2.6487,2.6487,2.6487,2.6524,2.7258,2.8385,2.8919,2.9113,2.9803,2.9998,2.9784,2.9442,2.8962,2.8975,2.9556,3.0448,3.1555,3.2576,3.3451,3.408,3.4486,3.4115,3.3591,3.2639,3.1929,3.1564,3.1146,3.0792,3.0932,3.1071,3.0996,3.0908,3.1267,3.1719,3.1924,3.2055,3.2105,3.2357,3.2558,3.2735,3.2464,3.2429,3.2664,3.2876,3.3031,3.3498,3.4095,3.4476,3.4773,3.51,2.396,2.4829,2.4576,2.4116,2.3781,2.4548,2.3699,2.1924,2.1689,2.2031,2.25,2.2529,2.2666,2.2734,2.2598,2.208,2.207,2.1734,2.096,2.047,2.0157,1.9955,1.9746,1.9764,2.0176,2.0654,2.0801,2.0996,2.1406,2.1299,2.1553,2.1582,2.1182,2.0928,2.1016,2.081,2.0615,2.0507,2.0166,1.9814,1.9707,1.9297,1.8887,1.85,1.85,1.8598,1.9011,1.9966,2.1047,2.2087,2.3427,2.4743,2.5279,2.5753,2.6368,2.6487,2.6487,2.6487,2.6487,2.6487,2.6487,2.6487,2.6487,2.6487,2.6487,2.6487,2.6487,2.6512,2.6647,2.721,2.8415,2.9014,2.9451,3.0135,3.0228,3.0056,2.9691,2.9302,2.9453,2.9758,3.048,3.1016,3.2181,3.315,3.4307,3.4853,3.4884,3.4324,3.3499,3.295,3.2709,3.2231,3.1753,3.2037,3.2357,3.2046,3.1756,3.2033,3.2451,3.2841,3.3017,3.3066,3.3359,3.3871,3.3856,3.3394,3.3276,3.338,3.331,3.3206,3.3925,3.4758,3.4905,3.518,3.5279,2.3731,2.3514,2.4428,2.457,2.4001,2.3315,2.2385,2.1417,2.1298,2.1697,2.2383,2.2432,2.248,2.2578,2.2584,2.2126,2.1629,2.1904,2.1537,2.0709,2.0657,2.074,2.0575,2.0498,2.0564,2.1072,2.1142,2.1328,2.1797,2.1504,2.1787,2.1846,2.1289,2.081,2.1112,2.0791,2.0625,2.0546,2.0127,1.9766,1.9443,1.9023,1.8529,1.8471,1.8471,1.8598,1.9504,2.0432,2.157,2.2755,2.4024,2.518,2.5869,2.6205,2.6499,2.6487,2.6487,2.6487,2.6487,2.6499,2.6537,2.6499,2.6487,2.6487,2.6487,2.6487,2.6575,2.6663,2.6939,2.7589,2.8538,2.9399,2.9804,3.0111,3.0202,3.0173,2.9758,2.9591,2.9679,2.9741,2.987,3.0279,3.1549,3.282,3.4245,3.5037,3.5344,3.5026,3.4268,3.4008,3.3782,3.3423,3.2919,3.3045,3.3255,3.2855,3.2664,3.2912,3.3276,3.3788,3.4177,3.4375,3.4739,3.5133,3.4887,3.4375,3.4158,3.4027,3.4041,3.4124,3.4706,3.5326,3.5457,3.5489,3.5489,2.3134,2.3261,2.2711,2.277,2.3199,2.3303,2.2654,2.1724,2.1385,2.1522,2.1943,2.1816,2.2031,2.2266,2.2051,2.1648,2.1337,2.0967,2.0772,2.0732,2.0771,2.0703,2.0644,2.0703,2.085,2.1093,2.1239,2.1523,2.1865,2.167,2.1748,2.1797,2.1367,2.0986,2.081,2.0644,2.0615,2.0527,2.0156,1.9824,1.9629,1.9062,1.8701,1.8815,1.8776,1.9156,2.0057,2.1063,2.2092,2.3217,2.4446,2.5288,2.5804,2.606,2.6487,2.6487,2.6487,2.6487,2.66,2.6725,2.6839,2.6663,2.6537,2.6549,2.6499,2.6487,2.6663,2.6952,2.718,2.7832,2.8702,2.9017,2.9388,2.9834,2.9936,2.9948,2.9767,2.9691,2.9716,2.9754,2.9856,3.0771,3.1901,3.2749,3.4007,3.5019,3.5424,3.5489,3.4945,3.4945,3.4883,3.457,3.4264,3.4245,3.4109,3.3788,3.3822,3.4177,3.4476,3.4887,3.5246,3.5311,3.5311,3.5311,3.5359,3.5374,3.4986,3.4725,3.4953,3.5213,3.5392,3.5504,3.5504,3.5489,3.5489,2.2395,2.2483,2.1788,2.1809,2.2399,2.2468,2.214,2.1584,2.123,2.1328,2.1709,2.1455,2.1463,2.1765,2.1689,2.1162,2.1035,2.0928,2.0674,2.0654,2.0615,2.0693,2.0771,2.084,2.125,2.1444,2.1648,2.1885,2.2119,2.1963,2.1699,2.1416,2.1259,2.0977,2.0723,2.0625,2.0605,2.0488,2.0166,2.0118,2.0001,1.9664,1.9219,1.9491,1.9561,1.9532,2.0611,2.158,2.2437,2.3494,2.4495,2.5394,2.5734,2.6025,2.6487,2.6487,2.6487,2.6587,2.6851,2.6751,2.6839,2.6864,2.6776,2.6776,2.6713,2.6625,2.6839,2.7128,2.7419,2.8047,2.8712,2.89,2.934,2.9805,2.9818,2.9818,2.9818,2.9741,2.9729,2.9779,2.9921,3.102,3.2177,3.2925,3.3822,3.4691,3.5489,3.5489,3.5489,3.5489,3.5489,3.5231,3.5019,3.492,3.4839,3.4773,3.4953,3.5424,3.5504,3.5519,3.5472,3.5424,3.5457,3.5489,3.5472,3.5472,3.5457,3.5424,3.5359,3.5359,3.5457,3.5489,3.5489,3.5489,3.5489,2.1621,2.1288,2.1699,2.1877,2.1779,2.1312,2.1055,2.124,2.082,2.1163,2.1836,2.1387,2.1229,2.1307,2.1611,2.1419,2.1016,2.1165,2.1056,2.0918,2.1004,2.1066,2.1134,2.121,2.1609,2.2168,2.2393,2.2246,2.2432,2.1943,2.1367,2.1016,2.1055,2.085,2.0664,2.0789,2.0828,2.0776,2.0635,2.0886,2.1167,2.0295,2.0179,2.0307,2.0209,1.9915,2.069,2.1776,2.2772,2.3893,2.5035,2.5973,2.6418,2.6487,2.6487,2.6487,2.6487,2.6751,2.6977,2.6788,2.6977,2.7165,2.7281,2.7293,2.7102,2.6813,2.7065,2.7431,2.7846,2.8373,2.8863,2.9289,2.9679,2.9779,2.9779,2.9779,2.9779,2.9779,2.9779,2.9779,2.9779,3.0633,3.2105,3.2996,3.3567,3.4773,3.5489,3.5489,3.5489,3.5489,3.5489,3.5489,3.5344,3.5424,3.5392,3.5246,3.5502,3.5789,3.5564,3.5519,3.5504,3.5549,3.5489,3.5489,3.5489,3.5489,3.5489,3.5489,3.5457,3.5504,3.5609,3.5579,3.5609,3.5519,3.5489,2.1348,2.121,2.1367,2.1602,2.1875,2.1924,2.1865,2.165,2.125,2.1377,2.1887,2.1094,2.0947,2.1181,2.1075,2.1212,2.1489,2.1696,2.1696,2.1678,2.1765,2.1599,2.152,2.1533,2.2002,2.2314,2.249,2.2461,2.2243,2.1785,2.1346,2.1093,2.0869,2.0693,2.0887,2.127,2.1451,2.1552,2.1398,2.1983,2.2235,2.1523,2.1429,2.1281,2.0606,2.0402,2.1196,2.1871,2.2956,2.4435,2.4945,2.5664,2.6487,2.6487,2.6487,2.6487,2.6499,2.6587,2.6801,2.7268,2.7557,2.7482,2.7645,2.7306,2.709,2.7027,2.7291,2.772,2.8247,2.8725,2.9189,2.9578,2.9895,3.0037,2.996,2.9895,2.9856,2.9856,2.9856,2.9779,2.9779,3.0633,3.2069,3.2664,3.331,3.4725,3.5489,3.5489,3.5489,3.5489,3.5489,3.5489,3.5489,3.5489,3.5489,3.5392,3.5768,3.6043,3.5759,3.5654,3.5923,3.5908,3.5624,3.5624,3.5848,3.5729,3.5489,3.5609,3.5908,3.5804,3.5848,3.5774,3.5714,3.5789,3.5699,2.1034,2.121,2.1385,2.2063,2.2934,2.3084,2.3162,2.3074,2.1839,2.1366,2.1523,2.0928,2.0752,2.0879,2.0791,2.1098,2.1945,2.1945,2.2124,2.2655,2.2702,2.2317,2.2059,2.1855,2.2004,2.2236,2.2353,2.2295,2.196,2.1435,2.0937,2.0898,2.0683,2.0644,2.0828,2.1451,2.2178,2.244,2.2717,2.3231,2.3209,2.2896,2.2613,2.2227,2.1244,2.1237,2.1494,2.1914,2.3294,2.4516,2.4814,2.5938,2.6678,2.6826,2.6625,2.66,2.6487,2.6826,2.7228,2.7444,2.7745,2.7908,2.7984,2.7733,2.7444,2.7306,2.7607,2.7984,2.8561,2.9051,2.9465,2.9818,3.0113,3.0355,3.0177,2.9998,2.9972,2.9972,2.9895,2.9818,3.0241,3.0959,3.1696,3.2263,3.3171,3.4691,3.5489,3.5489,3.5489,3.5489,3.5489,3.5489,3.5489,3.5489,3.5504,3.5549,3.5818,3.5953,3.5699,3.5744,3.6193,3.6372,3.6193,3.6237,3.6372,3.6252,3.6193,3.6312,3.6492,3.6387,3.6402,3.6537,3.6567,3.6567,3.6387,2.081,2.1161,2.165,2.2917,2.4588,2.4116,2.444,2.5229,2.273,2.1431,2.1362,2.0801,2.0625,2.0693,2.0615,2.1298,2.2075,2.2403,2.2888,2.3548,2.3188,2.2836,2.2455,2.219,2.2028,2.2051,2.2109,2.21,2.1435,2.1045,2.084,2.0654,2.0615,2.0615,2.076,2.1555,2.2366,2.3147,2.3551,2.4072,2.4516,2.4241,2.3562,2.3257,2.2408,2.1697,2.1413,2.2124,2.3514,2.4181,2.5194,2.6564,2.6904,2.7203,2.6952,2.6675,2.6499,2.6839,2.7228,2.7419,2.7733,2.8021,2.8348,2.7984,2.7632,2.7758,2.8097,2.836,2.8863,2.9289,2.9654,3.0152,3.0482,3.0771,3.0846,3.0908,3.1082,3.0884,3.0495,3.0407,3.0535,3.1281,3.2345,3.301,3.3691,3.5012,3.5504,3.5504,3.5534,3.5534,3.5579,3.5594,3.5744,3.5744,3.5579,3.5654,3.5804,3.5804,3.5759,3.6222,3.6956,3.6971,3.6791,3.6806,3.6851,3.7075,3.7135,3.7075,3.703,3.7105,3.718,3.7389,3.7449,3.7434,3.712,2.0664,2.0801,2.1201,2.2756,2.4712,2.3905,2.439,2.5576,2.4187,2.3019,2.2228,2.1231,2.0683,2.0828,2.075,2.1527,2.2898,2.3036,2.3734,2.4196,2.4067,2.3465,2.2793,2.2462,2.2075,2.1914,2.1943,2.1865,2.1562,2.124,2.1016,2.0977,2.0771,2.0605,2.0585,2.1466,2.2478,2.3294,2.4228,2.4874,2.5499,2.504,2.4373,2.3599,2.2638,2.1821,2.1718,2.2489,2.3257,2.3854,2.5499,2.6389,2.6675,2.7102,2.7014,2.6625,2.6524,2.6763,2.704,2.7256,2.7544,2.7557,2.7682,2.7695,2.7821,2.826,2.8599,2.885,2.9139,2.9503,2.9871,3.0355,3.0895,3.1217,3.1462,3.1779,3.2092,3.1609,3.1095,3.1055,3.1047,3.1845,3.296,3.3724,3.4468,3.5001,3.5377,3.5549,3.5639,3.5684,3.5789,3.5863,3.6148,3.6148,3.5938,3.5983,3.6267,3.6417,3.6462,3.703,3.7689,3.7674,3.7554,3.7345,3.7345,3.7659,3.7749,3.7434,3.7434,3.7719,3.7913,3.8123,3.8317,3.8347,3.7928,2.0713,2.0908,2.1338,2.2854,2.4575,2.4059,2.4744,2.6021,2.5126,2.4237,2.3619,2.2504,2.1859,2.1707,2.1489,2.2264,2.3745,2.3635,2.4469,2.5111,2.4961,2.4465,2.376,2.3026,2.2443,2.2179,2.1529,2.1299,2.1445,2.1143,2.083,2.0732,2.0498,2.0566,2.0535,2.1374,2.2205,2.284,2.4181,2.5146,2.5908,2.5511,2.5063,2.4217,2.3537,2.2675,2.2713,2.3364,2.4075,2.4995,2.6613,2.7239,2.7469,2.757,2.7369,2.6977,2.6713,2.66,2.6889,2.7203,2.7494,2.7632,2.8197,2.8687,2.8787,2.9151,2.8963,2.9189,2.9402,2.9741,2.9793,3.0177,3.1082,3.1683,3.1499,3.1499,3.1633,3.1426,3.1404,3.1647,3.2031,3.301,3.3886,3.4292,3.4995,3.5707,3.5965,3.6133,3.6133,3.6058,3.6103,3.6237,3.6596,3.6776,3.6716,3.6776,3.6941,3.706,3.7135,3.7539,3.8003,3.8257,3.8332,3.8162,3.8162,3.8422,3.8392,3.8123,3.8257,3.8566,3.8736,3.8856,3.9005,3.908,3.8721,2.0781,2.1191,2.1533,2.2826,2.4437,2.4241,2.5133,2.6524,2.5729,2.5206,2.5052,2.424,2.3854,2.3184,2.2776,2.3734,2.4301,2.4156,2.5028,2.5761,2.5649,2.5024,2.4599,2.4175,2.3042,2.2022,2.129,2.1016,2.0908,2.0635,2.0342,2.0078,2.0176,2.04,2.0422,2.0987,2.1876,2.244,2.3404,2.442,2.5111,2.5769,2.5441,2.5158,2.4791,2.4325,2.4036,2.4476,2.5253,2.6251,2.7385,2.7951,2.8134,2.8047,2.7682,2.7318,2.6914,2.6889,2.709,2.7457,2.7959,2.8511,2.9315,2.9641,2.9616,2.9578,2.939,2.9453,2.9679,2.9767,2.9818,3.0216,3.1193,3.2119,3.1815,3.1523,3.1523,3.1603,3.2017,3.2355,3.3115,3.4072,3.4654,3.5043,3.556,3.6268,3.6641,3.6881,3.6985,3.6851,3.6791,3.6971,3.7255,3.7389,3.733,3.7509,3.7614,3.7614,3.7704,3.8003,3.8317,3.8661,3.896,3.9119,3.9164,3.908,3.9089,3.8955,3.9179,3.9209,3.9179,3.917,3.9215,3.9254,3.9313,2.0654,2.0742,2.083,2.1572,2.2632,2.3345,2.433,2.5432,2.6052,2.6233,2.606,2.5943,2.517,2.3514,2.3368,2.3963,2.4671,2.448,2.5252,2.6226,2.5551,2.5171,2.4707,2.4043,2.2823,2.2025,2.138,2.089,2.0709,2.0349,2.0029,1.9961,2.0352,2.04,2.0106,2.0711,2.1298,2.1886,2.2366,2.3147,2.4,2.4588,2.5123,2.4755,2.4192,2.3818,2.3897,2.495,2.5514,2.6371,2.7668,2.8375,2.8561,2.8473,2.8134,2.7582,2.7178,2.6914,2.7102,2.7419,2.7871,2.7996,2.8649,2.9302,2.9402,2.9641,2.9553,2.9628,2.9779,2.9779,2.9895,3.0457,3.1291,3.2478,3.2763,3.2536,3.2393,3.2822,3.3298,3.3533,3.3892,3.4829,3.5661,3.593,3.6096,3.6649,3.6791,3.7015,3.7285,3.736,3.7464,3.7704,3.7943,3.7689,3.7524,3.8063,3.8227,3.8212,3.8257,3.8527,3.8826,3.9155,3.9409,3.9388,3.9388,3.9284,3.9373,3.9388,3.9373,3.9313,3.9343,3.9343,3.9388,3.9388,3.9388]}]]